Wetterdaten: Montag, 04.04.2016
Datum Zeit Temp. A. Feuchte A. Luftdruck Regen Wind Richtung Richtung Sonnenschein ET UV Solar Taupunkt Windchill Windben Empfang
04.04.2016 00:00 9,3 C 84 % 1009,2 hPa 0,0 l/m 4,5 km/h (1 Bft) SO 137 0 min 0,000 mm 0,0 UV-I 0 W/m 6,7 C 9,3 C 4,8 km/h (1 Bft) 100,00 %
04.04.2016 00:02 9,3 C 84 % 1009,2 hPa 0,0 l/m 3,7 km/h (1 Bft) SO 137 0 min 0,000 mm 0,0 UV-I 0 W/m 6,7 C 9,3 C 4,8 km/h (1 Bft) 96,97 %
04.04.2016 00:03 9,3 C 84 % 1009,2 hPa 0,0 l/m 0,9 km/h (0 Bft) SO 137 0 min 0,000 mm 0,0 UV-I 0 W/m 6,7 C 9,3 C 1,6 km/h (1 Bft) 96,15 %
04.04.2016 00:04 9,3 C 84 % 1009,1 hPa 0,0 l/m 1,4 km/h (1 Bft) SO 137 0 min 0,000 mm 0,0 UV-I 0 W/m 6,7 C 9,3 C 3,2 km/h (1 Bft) 100,00 %
04.04.2016 00:05 9,3 C 84 % 1009,1 hPa 0,0 l/m 1,4 km/h (1 Bft) SO 137 0 min 0,000 mm 0,0 UV-I 0 W/m 6,7 C 9,3 C 1,6 km/h (1 Bft) 96,15 %
04.04.2016 00:06 9,3 C 84 % 1009,1 hPa 0,0 l/m 1,5 km/h (1 Bft) SO 137 0 min 0,000 mm 0,0 UV-I 0 W/m 6,7 C 9,3 C 1,6 km/h (1 Bft) 100,00 %
04.04.2016 00:07 9,4 C 84 % 1009,1 hPa 0,0 l/m 1,1 km/h (1 Bft) SO 142 0 min 0,000 mm 0,0 UV-I 0 W/m 6,8 C 9,4 C 1,6 km/h (1 Bft) 100,00 %
04.04.2016 00:08 9,4 C 84 % 1009,1 hPa 0,0 l/m 1,6 km/h (1 Bft) SO 146 0 min 0,000 mm 0,0 UV-I 0 W/m 6,8 C 9,4 C 3,2 km/h (1 Bft) 100,00 %
04.04.2016 00:09 9,5 C 84 % 1009,1 hPa 0,0 l/m 3,9 km/h (1 Bft) S-SO 160 0 min 0,000 mm 0,0 UV-I 0 W/m 6,9 C 9,5 C 6,4 km/h (2 Bft) 100,00 %
04.04.2016 00:10 9,5 C 84 % 1009,1 hPa 0,0 l/m 5,4 km/h (1 Bft) S-SO 160 0 min 0,000 mm 0,0 UV-I 0 W/m 6,9 C 9,5 C 6,4 km/h (2 Bft) 100,00 %
04.04.2016 00:11 9,6 C 84 % 1009,1 hPa 0,0 l/m 6,4 km/h (2 Bft) S-SO 160 0 min 0,000 mm 0,0 UV-I 0 W/m 7,0 C 9,6 C 8,0 km/h (2 Bft) 100,00 %
04.04.2016 00:12 9,6 C 84 % 1009,1 hPa 0,0 l/m 5,6 km/h (1 Bft) S 176 0 min 0,000 mm 0,0 UV-I 0 W/m 7,0 C 9,6 C 6,4 km/h (2 Bft) 100,00 %
04.04.2016 00:13 9,6 C 83 % 1009,1 hPa 0,0 l/m 5,1 km/h (1 Bft) S 176 0 min 0,000 mm 0,0 UV-I 0 W/m 6,9 C 9,6 C 6,4 km/h (2 Bft) 95,65 %
04.04.2016 00:14 9,6 C 83 % 1009,1 hPa 0,0 l/m 5,0 km/h (1 Bft) S 177 0 min 0,000 mm 0,0 UV-I 0 W/m 6,9 C 9,6 C 6,4 km/h (2 Bft) 100,00 %
04.04.2016 00:15 9,6 C 83 % 1009,0 hPa 0,0 l/m 4,5 km/h (1 Bft) S 177 0 min 0,000 mm 0,0 UV-I 0 W/m 6,9 C 9,6 C 6,4 km/h (2 Bft) 100,00 %
04.04.2016 00:16 9,6 C 84 % 1009,0 hPa 0,0 l/m 5,0 km/h (1 Bft) S 176 0 min 0,000 mm 0,0 UV-I 0 W/m 7,0 C 9,6 C 6,4 km/h (2 Bft) 100,00 %
04.04.2016 00:17 9,6 C 84 % 1009,0 hPa 0,0 l/m 5,0 km/h (1 Bft) S 173 0 min 0,000 mm 0,0 UV-I 0 W/m 7,0 C 9,6 C 8,0 km/h (2 Bft) 100,00 %
04.04.2016 00:18 9,5 C 84 % 1009,0 hPa 0,0 l/m 4,2 km/h (1 Bft) S 173 0 min 0,000 mm 0,0 UV-I 0 W/m 6,9 C 9,5 C 4,8 km/h (1 Bft) 100,00 %
04.04.2016 00:19 9,5 C 83 % 1009,1 hPa 0,0 l/m 3,6 km/h (1 Bft) S 173 0 min 0,000 mm 0,0 UV-I 0 W/m 6,8 C 9,5 C 4,8 km/h (1 Bft) 95,65 %
04.04.2016 00:20 9,4 C 83 % 1009,0 hPa 0,0 l/m 3,8 km/h (1 Bft) S 173 0 min 0,000 mm 0,0 UV-I 0 W/m 6,7 C 9,4 C 4,8 km/h (1 Bft) 100,00 %
04.04.2016 00:21 9,4 C 84 % 1009,0 hPa 0,0 l/m 3,9 km/h (1 Bft) S 173 0 min 0,000 mm 0,0 UV-I 0 W/m 6,8 C 9,4 C 8,0 km/h (2 Bft) 100,00 %
04.04.2016 00:22 9,4 C 83 % 1009,1 hPa 0,0 l/m 5,5 km/h (1 Bft) S 182 0 min 0,000 mm 0,0 UV-I 0 W/m 6,7 C 9,4 C 8,0 km/h (2 Bft) 100,00 %
04.04.2016 00:23 9,3 C 84 % 1009,1 hPa 0,0 l/m 6,0 km/h (2 Bft) S 184 0 min 0,000 mm 0,0 UV-I 0 W/m 6,7 C 9,3 C 8,0 km/h (2 Bft) 100,00 %
04.04.2016 00:24 9,3 C 85 % 1009,0 hPa 0,0 l/m 4,8 km/h (1 Bft) S 178 0 min 0,000 mm 0,0 UV-I 0 W/m 6,9 C 9,3 C 6,4 km/h (2 Bft) 96,30 %
04.04.2016 00:25 9,3 C 85 % 1009,0 hPa 0,0 l/m 5,1 km/h (1 Bft) S 175 0 min 0,000 mm 0,0 UV-I 0 W/m 6,9 C 9,3 C 6,4 km/h (2 Bft) 100,00 %
04.04.2016 00:26 9,4 C 85 % 1009,0 hPa 0,0 l/m 4,0 km/h (1 Bft) S 175 0 min 0,000 mm 0,0 UV-I 0 W/m 7,0 C 9,4 C 4,8 km/h (1 Bft) 95,83 %
04.04.2016 00:27 9,4 C 85 % 1009,1 hPa 0,0 l/m 3,2 km/h (1 Bft) S 175 0 min 0,000 mm 0,0 UV-I 0 W/m 7,0 C 9,4 C 4,8 km/h (1 Bft) 100,00 %
04.04.2016 00:28 9,4 C 84 % 1009,0 hPa 0,0 l/m 1,3 km/h (1 Bft) S 175 0 min 0,000 mm 0,0 UV-I 0 W/m 6,8 C 9,4 C 3,2 km/h (1 Bft) 100,00 %
04.04.2016 00:29 9,4 C 85 % 1009,1 hPa 0,0 l/m 2,7 km/h (1 Bft) S 175 0 min 0,000 mm 0,0 UV-I 0 W/m 7,0 C 9,4 C 4,8 km/h (1 Bft) 100,00 %
04.04.2016 00:30 9,4 C 84 % 1009,0 hPa 0,0 l/m 3,8 km/h (1 Bft) S 175 0 min 0,000 mm 0,0 UV-I 0 W/m 6,8 C 9,4 C 4,8 km/h (1 Bft) 100,00 %
04.04.2016 00:31 9,4 C 85 % 1009,1 hPa 0,0 l/m 3,4 km/h (1 Bft) S 175 0 min 0,000 mm 0,0 UV-I 0 W/m 7,0 C 9,4 C 4,8 km/h (1 Bft) 100,00 %
04.04.2016 00:32 9,4 C 84 % 1009,1 hPa 0,0 l/m 3,6 km/h (1 Bft) S 175 0 min 0,000 mm 0,0 UV-I 0 W/m 6,8 C 9,4 C 4,8 km/h (1 Bft) 95,65 %
04.04.2016 00:33 9,4 C 84 % 1009,1 hPa 0,0 l/m 3,7 km/h (1 Bft) S-SW 207 0 min 0,000 mm 0,0 UV-I 0 W/m 6,8 C 9,4 C 4,8 km/h (1 Bft) 100,00 %
04.04.2016 00:34 9,3 C 85 % 1009,1 hPa 0,0 l/m 3,6 km/h (1 Bft) S-SW 207 0 min 0,000 mm 0,0 UV-I 0 W/m 6,9 C 9,3 C 4,8 km/h (1 Bft) 95,65 %
04.04.2016 00:35 9,3 C 84 % 1009,1 hPa 0,0 l/m 3,8 km/h (1 Bft) S-SW 207 0 min 0,000 mm 0,0 UV-I 0 W/m 6,7 C 9,3 C 4,8 km/h (1 Bft) 100,00 %
04.04.2016 00:36 9,2 C 84 % 1009,1 hPa 0,0 l/m 5,4 km/h (1 Bft) S-SW 207 0 min 0,000 mm 0,0 UV-I 0 W/m 6,6 C 9,2 C 6,4 km/h (2 Bft) 100,00 %
04.04.2016 00:37 9,1 C 85 % 1009,1 hPa 0,0 l/m 5,2 km/h (1 Bft) S-SW 207 0 min 0,000 mm 0,0 UV-I 0 W/m 6,7 C 9,1 C 6,4 km/h (2 Bft) 100,00 %
04.04.2016 00:38 9,0 C 85 % 1009,1 hPa 0,0 l/m 5,8 km/h (2 Bft) S-SW 200 0 min 0,000 mm 0,0 UV-I 0 W/m 6,6 C 9,0 C 6,4 km/h (2 Bft) 100,00 %
04.04.2016 00:39 8,9 C 86 % 1009,1 hPa 0,0 l/m 4,9 km/h (1 Bft) S-SW 200 0 min 0,000 mm 0,0 UV-I 0 W/m 6,7 C 8,9 C 6,4 km/h (2 Bft) 100,00 %
04.04.2016 00:40 8,9 C 86 % 1009,1 hPa 0,0 l/m 3,9 km/h (1 Bft) S-SW 200 0 min 0,000 mm 0,0 UV-I 0 W/m 6,7 C 8,9 C 4,8 km/h (1 Bft) 100,00 %
04.04.2016 00:41 8,8 C 86 % 1009,0 hPa 0,0 l/m 3,3 km/h (1 Bft) S-SW 199 0 min 0,000 mm 0,0 UV-I 0 W/m 6,6 C 8,8 C 4,8 km/h (1 Bft) 100,00 %
04.04.2016 00:42 8,8 C 86 % 1009,0 hPa 0,0 l/m 2,3 km/h (1 Bft) S-SW 199 0 min 0,000 mm 0,0 UV-I 0 W/m 6,6 C 8,8 C 4,8 km/h (1 Bft) 100,00 %
04.04.2016 00:43 8,8 C 87 % 1009,0 hPa 0,0 l/m 1,7 km/h (1 Bft) S-SW 199 0 min 0,000 mm 0,0 UV-I 0 W/m 6,8 C 8,8 C 3,2 km/h (1 Bft) 100,00 %
04.04.2016 00:44 8,8 C 86 % 1009,0 hPa 0,0 l/m 0,9 km/h (0 Bft) S-SW 199 0 min 0,000 mm 0,0 UV-I 0 W/m 6,6 C 8,8 C 3,2 km/h (1 Bft) 100,00 %
04.04.2016 00:45 8,8 C 87 % 1009,0 hPa 0,0 l/m 1,7 km/h (1 Bft) S-SW 198 0 min 0,000 mm 0,0 UV-I 0 W/m 6,8 C 8,8 C 3,2 km/h (1 Bft) 100,00 %
04.04.2016 00:46 8,8 C 87 % 1009,0 hPa 0,0 l/m 1,3 km/h (1 Bft) S-SW 198 0 min 0,000 mm 0,0 UV-I 0 W/m 6,8 C 8,8 C 1,6 km/h (1 Bft) 100,00 %
04.04.2016 00:47 8,9 C 88 % 1009,0 hPa 0,0 l/m 2,3 km/h (1 Bft) S-SW 196 0 min 0,000 mm 0,0 UV-I 0 W/m 7,0 C 8,9 C 4,8 km/h (1 Bft) 91,30 %
04.04.2016 00:48 9,0 C 87 % 1009,0 hPa 0,0 l/m 4,3 km/h (1 Bft) S-SW 196 0 min 0,000 mm 0,0 UV-I 0 W/m 7,0 C 9,0 C 6,4 km/h (2 Bft) 96,30 %
04.04.2016 00:49 9,1 C 87 % 1009,0 hPa 0,0 l/m 5,0 km/h (1 Bft) S-SW 194 0 min 0,000 mm 0,0 UV-I 0 W/m 7,1 C 9,1 C 6,4 km/h (2 Bft) 100,00 %
04.04.2016 00:50 9,2 C 87 % 1009,0 hPa 0,0 l/m 3,8 km/h (1 Bft) S-SW 194 0 min 0,000 mm 0,0 UV-I 0 W/m 7,2 C 9,2 C 4,8 km/h (1 Bft) 100,00 %
04.04.2016 00:51 9,3 C 87 % 1009,0 hPa 0,0 l/m 2,9 km/h (1 Bft) S-SW 194 0 min 0,000 mm 0,0 UV-I 0 W/m 7,2 C 9,3 C 3,2 km/h (1 Bft) 100,00 %
04.04.2016 00:52 9,3 C 86 % 1009,0 hPa 0,0 l/m 2,7 km/h (1 Bft) S-SW 194 0 min 0,000 mm 0,0 UV-I 0 W/m 7,1 C 9,3 C 3,2 km/h (1 Bft) 100,00 %
04.04.2016 00:53 9,3 C 86 % 1009,0 hPa 0,0 l/m 2,5 km/h (1 Bft) S-SW 194 0 min 0,000 mm 0,0 UV-I 0 W/m 7,1 C 9,3 C 4,8 km/h (1 Bft) 95,65 %
04.04.2016 00:54 9,3 C 86 % 1009,1 hPa 0,0 l/m 2,2 km/h (1 Bft) S-SW 194 0 min 0,000 mm 0,0 UV-I 0 W/m 7,1 C 9,3 C 3,2 km/h (1 Bft) 100,00 %
04.04.2016 00:55 9,3 C 86 % 1009,1 hPa 0,0 l/m 3,4 km/h (1 Bft) S-SW 194 0 min 0,000 mm 0,0 UV-I 0 W/m 7,1 C 9,3 C 4,8 km/h (1 Bft) 100,00 %
04.04.2016 00:56 9,2 C 86 % 1009,0 hPa 0,0 l/m 3,1 km/h (1 Bft) S-SW 194 0 min 0,000 mm 0,0 UV-I 0 W/m 7,0 C 9,2 C 4,8 km/h (1 Bft) 100,00 %
04.04.2016 00:57 9,1 C 86 % 1009,0 hPa 0,0 l/m 4,2 km/h (1 Bft) S-SW 194 0 min 0,000 mm 0,0 UV-I 0 W/m 6,9 C 9,1 C 4,8 km/h (1 Bft) 100,00 %
04.04.2016 00:58 8,9 C 85 % 1009,0 hPa 0,0 l/m 3,3 km/h (1 Bft) S-SW 194 0 min 0,000 mm 0,0 UV-I 0 W/m 6,5 C 8,9 C 4,8 km/h (1 Bft) 100,00 %
04.04.2016 00:59 8,9 C 86 % 1009,0 hPa 0,0 l/m 3,2 km/h (1 Bft) S-SW 194 0 min 0,000 mm 0,0 UV-I 0 W/m 6,7 C 8,9 C 3,2 km/h (1 Bft) 100,00 %
04.04.2016 01:00 8,8 C 86 % 1009,0 hPa 0,0 l/m 4,1 km/h (1 Bft) S-SW 194 0 min 0,000 mm 0,0 UV-I 0 W/m 6,6 C 8,8 C 4,8 km/h (1 Bft) 100,00 %
04.04.2016 01:01 8,7 C 86 % 1009,0 hPa 0,0 l/m 3,9 km/h (1 Bft) S-SW 194 0 min 0,000 mm 0,0 UV-I 0 W/m 6,5 C 8,7 C 4,8 km/h (1 Bft) 100,00 %
04.04.2016 01:02 8,6 C 87 % 1009,0 hPa 0,0 l/m 3,7 km/h (1 Bft) S-SW 194 0 min 0,000 mm 0,0 UV-I 0 W/m 6,6 C 8,6 C 4,8 km/h (1 Bft) 100,00 %
04.04.2016 01:03 8,6 C 87 % 1009,0 hPa 0,0 l/m 3,5 km/h (1 Bft) S-SW 194 0 min 0,000 mm 0,0 UV-I 0 W/m 6,6 C 8,6 C 4,8 km/h (1 Bft) 100,00 %
04.04.2016 01:04 8,7 C 88 % 1008,9 hPa 0,0 l/m 2,3 km/h (1 Bft) S-SW 194 0 min 0,000 mm 0,0 UV-I 0 W/m 6,8 C 8,7 C 3,2 km/h (1 Bft) 100,00 %
04.04.2016 01:05 8,7 C 88 % 1008,9 hPa 0,0 l/m 2,5 km/h (1 Bft) S-SW 194 0 min 0,000 mm 0,0 UV-I 0 W/m 6,8 C 8,7 C 3,2 km/h (1 Bft) 100,00 %
04.04.2016 01:06 8,7 C 88 % 1008,9 hPa 0,0 l/m 1,7 km/h (1 Bft) S-SW 194 0 min 0,000 mm 0,0 UV-I 0 W/m 6,8 C 8,7 C 3,2 km/h (1 Bft) 100,00 %
04.04.2016 01:07 8,7 C 87 % 1008,9 hPa 0,0 l/m 1,6 km/h (1 Bft) S-SW 194 0 min 0,000 mm 0,0 UV-I 0 W/m 6,7 C 8,7 C 1,6 km/h (1 Bft) 100,00 %
04.04.2016 01:08 8,7 C 87 % 1008,9 hPa 0,0 l/m 2,1 km/h (1 Bft) S-SW 194 0 min 0,000 mm 0,0 UV-I 0 W/m 6,7 C 8,7 C 3,2 km/h (1 Bft) 95,83 %
04.04.2016 01:09 8,7 C 87 % 1008,9 hPa 0,0 l/m 3,5 km/h (1 Bft) S-SW 194 0 min 0,000 mm 0,0 UV-I 0 W/m 6,7 C 8,7 C 4,8 km/h (1 Bft) 100,00 %
04.04.2016 01:10 8,7 C 88 % 1008,9 hPa 0,0 l/m 3,8 km/h (1 Bft) S-SW 194 0 min 0,000 mm 0,0 UV-I 0 W/m 6,8 C 8,7 C 4,8 km/h (1 Bft) 100,00 %
04.04.2016 01:11 8,7 C 88 % 1008,9 hPa 0,0 l/m 4,7 km/h (1 Bft) S-SW 194 0 min 0,000 mm 0,0 UV-I 0 W/m 6,8 C 8,7 C 4,8 km/h (1 Bft) 100,00 %
04.04.2016 01:12 8,7 C 88 % 1008,9 hPa 0,0 l/m 4,1 km/h (1 Bft) S-SW 194 0 min 0,000 mm 0,0 UV-I 0 W/m 6,8 C 8,7 C 4,8 km/h (1 Bft) 100,00 %
04.04.2016 01:13 8,7 C 88 % 1008,9 hPa 0,0 l/m 3,8 km/h (1 Bft) S-SW 194 0 min 0,000 mm 0,0 UV-I 0 W/m 6,8 C 8,7 C 4,8 km/h (1 Bft) 100,00 %
04.04.2016 01:14 8,7 C 88 % 1008,9 hPa 0,0 l/m 2,7 km/h (1 Bft) S-SW 194 0 min 0,000 mm 0,0 UV-I 0 W/m 6,8 C 8,7 C 4,8 km/h (1 Bft) 100,00 %
04.04.2016 01:15 8,6 C 88 % 1008,9 hPa 0,0 l/m 2,9 km/h (1 Bft) S-SW 194 0 min 0,000 mm 0,0 UV-I 0 W/m 6,7 C 8,6 C 4,8 km/h (1 Bft) 100,00 %
04.04.2016 01:16 8,6 C 88 % 1008,9 hPa 0,0 l/m 2,2 km/h (1 Bft) S-SW 192 0 min 0,000 mm 0,0 UV-I 0 W/m 6,7 C 8,6 C 3,2 km/h (1 Bft) 100,00 %
04.04.2016 01:17 8,5 C 87 % 1008,9 hPa 0,0 l/m 2,1 km/h (1 Bft) S 189 0 min 0,000 mm 0,0 UV-I 0 W/m 6,5 C 8,5 C 4,8 km/h (1 Bft) 100,00 %
04.04.2016 01:18 8,4 C 88 % 1008,9 hPa 0,0 l/m 4,8 km/h (1 Bft) S 188 0 min 0,000 mm 0,0 UV-I 0 W/m 6,5 C 8,4 C 4,8 km/h (1 Bft) 100,00 %
04.04.2016 01:19 8,4 C 88 % 1008,9 hPa 0,0 l/m 3,8 km/h (1 Bft) S 188 0 min 0,000 mm 0,0 UV-I 0 W/m 6,5 C 8,4 C 4,8 km/h (1 Bft) 100,00 %
04.04.2016 01:20 8,4 C 89 % 1008,9 hPa 0,0 l/m 3,3 km/h (1 Bft) S 188 0 min 0,000 mm 0,0 UV-I 0 W/m 6,7 C 8,4 C 4,8 km/h (1 Bft) 95,83 %
04.04.2016 01:21 8,5 C 89 % 1008,9 hPa 0,0 l/m 3,4 km/h (1 Bft) S 188 0 min 0,000 mm 0,0 UV-I 0 W/m 6,8 C 8,5 C 4,8 km/h (1 Bft) 100,00 %
04.04.2016 01:22 8,5 C 89 % 1008,9 hPa 0,0 l/m 3,7 km/h (1 Bft) S 188 0 min 0,000 mm 0,0 UV-I 0 W/m 6,8 C 8,5 C 4,8 km/h (1 Bft) 100,00 %
04.04.2016 01:23 8,5 C 89 % 1008,9 hPa 0,0 l/m 4,5 km/h (1 Bft) S 188 0 min 0,000 mm 0,0 UV-I 0 W/m 6,8 C 8,5 C 4,8 km/h (1 Bft) 100,00 %
04.04.2016 01:24 8,5 C 89 % 1008,9 hPa 0,0 l/m 3,6 km/h (1 Bft) S 188 0 min 0,000 mm 0,0 UV-I 0 W/m 6,8 C 8,5 C 4,8 km/h (1 Bft) 95,83 %
04.04.2016 01:25 8,5 C 89 % 1008,9 hPa 0,0 l/m 2,8 km/h (1 Bft) S 188 0 min 0,000 mm 0,0 UV-I 0 W/m 6,8 C 8,5 C 4,8 km/h (1 Bft) 96,15 %
04.04.2016 01:26 8,4 C 89 % 1008,9 hPa 0,0 l/m 0,6 km/h (0 Bft) S 188 0 min 0,000 mm 0,0 UV-I 0 W/m 6,7 C 8,4 C 1,6 km/h (1 Bft) 100,00 %
04.04.2016 01:27 8,5 C 89 % 1008,8 hPa 0,0 l/m 1,3 km/h (1 Bft) S 188 0 min 0,000 mm 0,0 UV-I 0 W/m 6,8 C 8,5 C 3,2 km/h (1 Bft) 95,65 %
04.04.2016 01:28 8,6 C 90 % 1008,8 hPa 0,0 l/m 1,2 km/h (1 Bft) S 188 0 min 0,000 mm 0,0 UV-I 0 W/m 7,1 C 8,6 C 3,2 km/h (1 Bft) 100,00 %
04.04.2016 01:29 8,6 C 90 % 1008,8 hPa 0,0 l/m 0,9 km/h (0 Bft) S 188 0 min 0,000 mm 0,0 UV-I 0 W/m 7,1 C 8,6 C 1,6 km/h (1 Bft) 100,00 %
04.04.2016 01:30 8,6 C 90 % 1008,8 hPa 0,0 l/m 1,3 km/h (1 Bft) S 188 0 min 0,000 mm 0,0 UV-I 0 W/m 7,1 C 8,6 C 1,6 km/h (1 Bft) 100,00 %
04.04.2016 01:31 8,7 C 90 % 1008,7 hPa 0,0 l/m 0,9 km/h (0 Bft) S 188 0 min 0,000 mm 0,0 UV-I 0 W/m 7,2 C 8,7 C 1,6 km/h (1 Bft) 91,30 %
04.04.2016 01:32 8,8 C 90 % 1008,7 hPa 0,0 l/m 0,9 km/h (0 Bft) S 188 0 min 0,000 mm 0,0 UV-I 0 W/m 7,3 C 8,8 C 3,2 km/h (1 Bft) 100,00 %
04.04.2016 01:33 8,8 C 90 % 1008,7 hPa 0,0 l/m 1,0 km/h (0 Bft) S 188 0 min 0,000 mm 0,0 UV-I 0 W/m 7,3 C 8,8 C 1,6 km/h (1 Bft) 96,15 %
04.04.2016 01:34 8,9 C 90 % 1008,7 hPa 0,0 l/m 1,8 km/h (1 Bft) S 188 0 min 0,000 mm 0,0 UV-I 0 W/m 7,4 C 8,9 C 3,2 km/h (1 Bft) 100,00 %
04.04.2016 01:35 9,1 C 90 % 1008,7 hPa 0,0 l/m 1,5 km/h (1 Bft) S 188 0 min 0,000 mm 0,0 UV-I 0 W/m 7,5 C 9,1 C 1,6 km/h (1 Bft) 100,00 %
04.04.2016 01:36 9,2 C 89 % 1008,7 hPa 0,0 l/m 0,8 km/h (0 Bft) S 188 0 min 0,000 mm 0,0 UV-I 0 W/m 7,5 C 9,2 C 1,6 km/h (1 Bft) 95,83 %
04.04.2016 01:37 9,2 C 89 % 1008,7 hPa 0,0 l/m 0,8 km/h (0 Bft) S 188 0 min 0,000 mm 0,0 UV-I 0 W/m 7,5 C 9,2 C 3,2 km/h (1 Bft) 88,46 %
04.04.2016 01:38 9,2 C 88 % 1008,6 hPa 0,0 l/m 0,7 km/h (0 Bft) S 188 0 min 0,000 mm 0,0 UV-I 0 W/m 7,3 C 9,2 C 1,6 km/h (1 Bft) 100,00 %
04.04.2016 01:39 9,2 C 87 % 1008,6 hPa 0,0 l/m 1,8 km/h (1 Bft) S 188 0 min 0,000 mm 0,0 UV-I 0 W/m 7,2 C 9,2 C 3,2 km/h (1 Bft) 100,00 %
04.04.2016 01:40 9,1 C 87 % 1008,6 hPa 0,0 l/m 1,5 km/h (1 Bft) S 188 0 min 0,000 mm 0,0 UV-I 0 W/m 7,1 C 9,1 C 3,2 km/h (1 Bft) 95,83 %
04.04.2016 01:41 8,9 C 88 % 1008,6 hPa 0,0 l/m 2,0 km/h (1 Bft) S 188 0 min 0,000 mm 0,0 UV-I 0 W/m 7,0 C 8,9 C 3,2 km/h (1 Bft) 95,83 %
04.04.2016 01:42 8,8 C 88 % 1008,7 hPa 0,0 l/m 2,5 km/h (1 Bft) S 188 0 min 0,000 mm 0,0 UV-I 0 W/m 6,9 C 8,8 C 3,2 km/h (1 Bft) 95,65 %
04.04.2016 01:43 8,7 C 87 % 1008,6 hPa 0,0 l/m 3,2 km/h (1 Bft) S 188 0 min 0,000 mm 0,0 UV-I 0 W/m 6,7 C 8,7 C 3,2 km/h (1 Bft) 95,83 %
04.04.2016 01:44 8,6 C 87 % 1008,7 hPa 0,0 l/m 3,1 km/h (1 Bft) S 188 0 min 0,000 mm 0,0 UV-I 0 W/m 6,6 C 8,6 C 4,8 km/h (1 Bft) 95,65 %
04.04.2016 01:45 8,3 C 87 % 1008,6 hPa 0,0 l/m 3,3 km/h (1 Bft) S 188 0 min 0,000 mm 0,0 UV-I 0 W/m 6,3 C 8,3 C 4,8 km/h (1 Bft) 95,83 %
04.04.2016 01:46 8,2 C 88 % 1008,6 hPa 0,0 l/m 3,4 km/h (1 Bft) S 188 0 min 0,000 mm 0,0 UV-I 0 W/m 6,3 C 8,2 C 4,8 km/h (1 Bft) 100,00 %
04.04.2016 01:47 8,1 C 88 % 1008,6 hPa 0,0 l/m 3,2 km/h (1 Bft) S 188 0 min 0,000 mm 0,0 UV-I 0 W/m 6,2 C 8,1 C 4,8 km/h (1 Bft) 96,30 %
04.04.2016 01:48 8,0 C 89 % 1008,6 hPa 0,0 l/m 1,4 km/h (1 Bft) S 188 0 min 0,000 mm 0,0 UV-I 0 W/m 6,3 C 8,0 C 3,2 km/h (1 Bft) 95,65 %
04.04.2016 01:49 8,0 C 90 % 1008,6 hPa 0,0 l/m 1,1 km/h (1 Bft) S 188 0 min 0,000 mm 0,0 UV-I 0 W/m 6,5 C 8,0 C 1,6 km/h (1 Bft) 100,00 %
04.04.2016 01:50 8,1 C 90 % 1008,6 hPa 0,0 l/m 1,7 km/h (1 Bft) S 188 0 min 0,000 mm 0,0 UV-I 0 W/m 6,6 C 8,1 C 3,2 km/h (1 Bft) 95,65 %
04.04.2016 01:51 8,1 C 91 % 1008,6 hPa 0,0 l/m 0,8 km/h (0 Bft) S 188 0 min 0,000 mm 0,0 UV-I 0 W/m 6,7 C 8,1 C 3,2 km/h (1 Bft) 100,00 %
04.04.2016 01:52 8,2 C 91 % 1008,6 hPa 0,0 l/m 1,5 km/h (1 Bft) S 188 0 min 0,000 mm 0,0 UV-I 0 W/m 6,8 C 8,2 C 3,2 km/h (1 Bft) 95,65 %
04.04.2016 01:53 8,2 C 90 % 1008,6 hPa 0,0 l/m 2,5 km/h (1 Bft) S 188 0 min 0,000 mm 0,0 UV-I 0 W/m 6,7 C 8,2 C 4,8 km/h (1 Bft) 100,00 %
04.04.2016 01:54 8,1 C 90 % 1008,5 hPa 0,0 l/m 3,6 km/h (1 Bft) S 188 0 min 0,000 mm 0,0 UV-I 0 W/m 6,6 C 8,1 C 4,8 km/h (1 Bft) 91,30 %
04.04.2016 01:55 8,1 C 90 % 1008,6 hPa 0,0 l/m 4,2 km/h (1 Bft) S 188 0 min 0,000 mm 0,0 UV-I 0 W/m 6,6 C 8,1 C 4,8 km/h (1 Bft) 95,83 %
04.04.2016 01:56 8,1 C 90 % 1008,6 hPa 0,0 l/m 4,2 km/h (1 Bft) S 188 0 min 0,000 mm 0,0 UV-I 0 W/m 6,6 C 8,1 C 4,8 km/h (1 Bft) 100,00 %
04.04.2016 01:57 8,1 C 90 % 1008,6 hPa 0,0 l/m 4,4 km/h (1 Bft) S 188 0 min 0,000 mm 0,0 UV-I 0 W/m 6,6 C 8,1 C 4,8 km/h (1 Bft) 100,00 %
04.04.2016 01:58 8,1 C 89 % 1008,6 hPa 0,0 l/m 4,5 km/h (1 Bft) S 188 0 min 0,000 mm 0,0 UV-I 0 W/m 6,4 C 8,1 C 4,8 km/h (1 Bft) 95,65 %
04.04.2016 01:59 7,9 C 89 % 1008,5 hPa 0,0 l/m 4,8 km/h (1 Bft) S 188 0 min 0,000 mm 0,0 UV-I 0 W/m 6,2 C 7,9 C 4,8 km/h (1 Bft) 95,83 %
04.04.2016 02:00 7,9 C 90 % 1008,5 hPa 0,0 l/m 4,2 km/h (1 Bft) S 188 0 min 0,000 mm 0,0 UV-I 0 W/m 6,4 C 7,9 C 4,8 km/h (1 Bft) 100,00 %
04.04.2016 02:01 7,9 C 90 % 1008,5 hPa 0,0 l/m 3,7 km/h (1 Bft) S 187 0 min 0,000 mm 0,0 UV-I 0 W/m 6,4 C 7,9 C 4,8 km/h (1 Bft) 95,65 %
04.04.2016 02:02 7,8 C 90 % 1008,5 hPa 0,0 l/m 4,4 km/h (1 Bft) S 187 0 min 0,000 mm 0,0 UV-I 0 W/m 6,3 C 7,8 C 4,8 km/h (1 Bft) 96,30 %
04.04.2016 02:03 7,8 C 90 % 1008,5 hPa 0,0 l/m 4,6 km/h (1 Bft) S 187 0 min 0,000 mm 0,0 UV-I 0 W/m 6,3 C 7,8 C 4,8 km/h (1 Bft) 91,30 %
04.04.2016 02:04 7,8 C 90 % 1008,5 hPa 0,0 l/m 3,8 km/h (1 Bft) S 187 0 min 0,000 mm 0,0 UV-I 0 W/m 6,3 C 7,8 C 4,8 km/h (1 Bft) 100,00 %
04.04.2016 02:05 7,8 C 90 % 1008,5 hPa 0,0 l/m 4,1 km/h (1 Bft) S 187 0 min 0,000 mm 0,0 UV-I 0 W/m 6,3 C 7,8 C 4,8 km/h (1 Bft) 95,65 %
04.04.2016 02:06 7,8 C 91 % 1008,5 hPa 0,0 l/m 4,0 km/h (1 Bft) S 187 0 min 0,000 mm 0,0 UV-I 0 W/m 6,4 C 7,8 C 4,8 km/h (1 Bft) 95,83 %
04.04.2016 02:07 7,8 C 91 % 1008,5 hPa 0,0 l/m 4,4 km/h (1 Bft) S 187 0 min 0,000 mm 0,0 UV-I 0 W/m 6,4 C 7,8 C 4,8 km/h (1 Bft) 100,00 %
04.04.2016 02:08 7,8 C 91 % 1008,5 hPa 0,0 l/m 3,8 km/h (1 Bft) S 187 0 min 0,000 mm 0,0 UV-I 0 W/m 6,4 C 7,8 C 4,8 km/h (1 Bft) 95,83 %
04.04.2016 02:09 7,8 C 91 % 1008,5 hPa 0,0 l/m 3,2 km/h (1 Bft) S 187 0 min 0,000 mm 0,0 UV-I 0 W/m 6,4 C 7,8 C 4,8 km/h (1 Bft) 100,00 %
04.04.2016 02:10 7,8 C 91 % 1008,5 hPa 0,0 l/m 2,7 km/h (1 Bft) S 187 0 min 0,000 mm 0,0 UV-I 0 W/m 6,4 C 7,8 C 4,8 km/h (1 Bft) 95,83 %
04.04.2016 02:11 7,8 C 91 % 1008,5 hPa 0,0 l/m 3,2 km/h (1 Bft) S 187 0 min 0,000 mm 0,0 UV-I 0 W/m 6,4 C 7,8 C 3,2 km/h (1 Bft) 100,00 %
04.04.2016 02:12 7,8 C 91 % 1008,5 hPa 0,0 l/m 3,6 km/h (1 Bft) S 187 0 min 0,000 mm 0,0 UV-I 0 W/m 6,4 C 7,8 C 4,8 km/h (1 Bft) 100,00 %
04.04.2016 02:13 7,8 C 91 % 1008,5 hPa 0,0 l/m 3,6 km/h (1 Bft) S 187 0 min 0,000 mm 0,0 UV-I 0 W/m 6,4 C 7,8 C 4,8 km/h (1 Bft) 95,65 %
04.04.2016 02:14 7,9 C 91 % 1008,5 hPa 0,0 l/m 2,9 km/h (1 Bft) S 187 0 min 0,000 mm 0,0 UV-I 0 W/m 6,5 C 7,9 C 4,8 km/h (1 Bft) 100,00 %
04.04.2016 02:15 8,0 C 92 % 1008,5 hPa 0,0 l/m 1,6 km/h (1 Bft) S 187 0 min 0,000 mm 0,0 UV-I 0 W/m 6,8 C 8,0 C 3,2 km/h (1 Bft) 100,00 %
04.04.2016 02:16 8,1 C 92 % 1008,5 hPa 0,0 l/m 0,6 km/h (0 Bft) S 187 0 min 0,000 mm 0,0 UV-I 0 W/m 6,9 C 8,1 C 1,6 km/h (1 Bft) 100,00 %
04.04.2016 02:17 8,1 C 92 % 1008,5 hPa 0,0 l/m 0,4 km/h (0 Bft) S 187 0 min 0,000 mm 0,0 UV-I 0 W/m 6,9 C 8,1 C 1,6 km/h (1 Bft) 95,65 %
04.04.2016 02:18 8,2 C 92 % 1008,5 hPa 0,0 l/m 0,5 km/h (0 Bft) S 187 0 min 0,000 mm 0,0 UV-I 0 W/m 7,0 C 8,2 C 1,6 km/h (1 Bft) 100,00 %
04.04.2016 02:19 8,3 C 91 % 1008,5 hPa 0,0 l/m 1,4 km/h (1 Bft) S 187 0 min 0,000 mm 0,0 UV-I 0 W/m 6,9 C 8,3 C 3,2 km/h (1 Bft) 95,65 %
04.04.2016 02:20 8,3 C 91 % 1008,5 hPa 0,0 l/m 2,4 km/h (1 Bft) S 187 0 min 0,000 mm 0,0 UV-I 0 W/m 6,9 C 8,3 C 4,8 km/h (1 Bft) 95,83 %
04.04.2016 02:21 8,3 C 91 % 1008,5 hPa 0,0 l/m 1,9 km/h (1 Bft) S 187 0 min 0,000 mm 0,0 UV-I 0 W/m 6,9 C 8,3 C 3,2 km/h (1 Bft) 95,65 %
04.04.2016 02:22 8,4 C 92 % 1008,5 hPa 0,0 l/m 0,4 km/h (0 Bft) S 187 0 min 0,000 mm 0,0 UV-I 0 W/m 7,2 C 8,4 C 1,6 km/h (1 Bft) 100,00 %
04.04.2016 02:23 8,5 C 91 % 1008,5 hPa 0,0 l/m 0,5 km/h (0 Bft) S 187 0 min 0,000 mm 0,0 UV-I 0 W/m 7,1 C 8,5 C 1,6 km/h (1 Bft) 100,00 %
04.04.2016 02:24 8,6 C 91 % 1008,5 hPa 0,0 l/m 1,5 km/h (1 Bft) S 187 0 min 0,000 mm 0,0 UV-I 0 W/m 7,2 C 8,6 C 3,2 km/h (1 Bft) 100,00 %
04.04.2016 02:25 8,5 C 90 % 1008,5 hPa 0,0 l/m 3,9 km/h (1 Bft) S 187 0 min 0,000 mm 0,0 UV-I 0 W/m 7,0 C 8,5 C 4,8 km/h (1 Bft) 100,00 %
04.04.2016 02:26 8,5 C 90 % 1008,4 hPa 0,0 l/m 3,9 km/h (1 Bft) S 187 0 min 0,000 mm 0,0 UV-I 0 W/m 7,0 C 8,5 C 4,8 km/h (1 Bft) 100,00 %
04.04.2016 02:27 8,4 C 90 % 1008,4 hPa 0,0 l/m 3,0 km/h (1 Bft) S 187 0 min 0,000 mm 0,0 UV-I 0 W/m 6,9 C 8,4 C 4,8 km/h (1 Bft) 100,00 %
04.04.2016 02:28 8,4 C 89 % 1008,4 hPa 0,0 l/m 1,5 km/h (1 Bft) S 187 0 min 0,000 mm 0,0 UV-I 0 W/m 6,7 C 8,4 C 3,2 km/h (1 Bft) 95,65 %
04.04.2016 02:29 8,3 C 90 % 1008,4 hPa 0,0 l/m 1,9 km/h (1 Bft) S 187 0 min 0,000 mm 0,0 UV-I 0 W/m 6,8 C 8,3 C 3,2 km/h (1 Bft) 100,00 %
04.04.2016 02:30 8,3 C 90 % 1008,4 hPa 0,0 l/m 0,7 km/h (0 Bft) S 187 0 min 0,000 mm 0,0 UV-I 0 W/m 6,8 C 8,3 C 1,6 km/h (1 Bft) 100,00 %
04.04.2016 02:31 8,3 C 90 % 1008,3 hPa 0,0 l/m 0,9 km/h (0 Bft) S 187 0 min 0,000 mm 0,0 UV-I 0 W/m 6,8 C 8,3 C 1,6 km/h (1 Bft) 100,00 %
04.04.2016 02:32 8,3 C 90 % 1008,3 hPa 0,0 l/m 0,9 km/h (0 Bft) S 187 0 min 0,000 mm 0,0 UV-I 0 W/m 6,8 C 8,3 C 1,6 km/h (1 Bft) 100,00 %
04.04.2016 02:33 8,3 C 91 % 1008,3 hPa 0,0 l/m 0,9 km/h (0 Bft) S 187 0 min 0,000 mm 0,0 UV-I 0 W/m 6,9 C 8,3 C 1,6 km/h (1 Bft) 100,00 %
04.04.2016 02:34 8,4 C 91 % 1008,3 hPa 0,0 l/m 1,3 km/h (1 Bft) S 187 0 min 0,000 mm 0,0 UV-I 0 W/m 7,0 C 8,4 C 3,2 km/h (1 Bft) 100,00 %
04.04.2016 02:35 8,4 C 90 % 1008,3 hPa 0,0 l/m 2,6 km/h (1 Bft) S 187 0 min 0,000 mm 0,0 UV-I 0 W/m 6,9 C 8,4 C 3,2 km/h (1 Bft) 100,00 %
04.04.2016 02:36 8,3 C 90 % 1008,3 hPa 0,0 l/m 3,2 km/h (1 Bft) S 187 0 min 0,000 mm 0,0 UV-I 0 W/m 6,8 C 8,3 C 3,2 km/h (1 Bft) 100,00 %
04.04.2016 02:37 8,3 C 90 % 1008,3 hPa 0,0 l/m 1,7 km/h (1 Bft) S 187 0 min 0,000 mm 0,0 UV-I 0 W/m 6,8 C 8,3 C 3,2 km/h (1 Bft) 100,00 %
04.04.2016 02:38 8,3 C 90 % 1008,3 hPa 0,0 l/m 1,9 km/h (1 Bft) S 187 0 min 0,000 mm 0,0 UV-I 0 W/m 6,8 C 8,3 C 3,2 km/h (1 Bft) 100,00 %
04.04.2016 02:39 8,2 C 90 % 1008,3 hPa 0,0 l/m 2,3 km/h (1 Bft) S 187 0 min 0,000 mm 0,0 UV-I 0 W/m 6,7 C 8,2 C 3,2 km/h (1 Bft) 100,00 %
04.04.2016 02:40 8,1 C 90 % 1008,4 hPa 0,0 l/m 2,8 km/h (1 Bft) S 187 0 min 0,000 mm 0,0 UV-I 0 W/m 6,6 C 8,1 C 3,2 km/h (1 Bft) 100,00 %
04.04.2016 02:41 8,0 C 90 % 1008,3 hPa 0,0 l/m 3,0 km/h (1 Bft) S 187 0 min 0,000 mm 0,0 UV-I 0 W/m 6,5 C 8,0 C 3,2 km/h (1 Bft) 100,00 %
04.04.2016 02:42 7,9 C 90 % 1008,3 hPa 0,0 l/m 3,5 km/h (1 Bft) S 187 0 min 0,000 mm 0,0 UV-I 0 W/m 6,4 C 7,9 C 4,8 km/h (1 Bft) 100,00 %
04.04.2016 02:43 7,8 C 90 % 1008,3 hPa 0,0 l/m 3,9 km/h (1 Bft) S 187 0 min 0,000 mm 0,0 UV-I 0 W/m 6,3 C 7,8 C 4,8 km/h (1 Bft) 95,83 %
04.04.2016 02:44 7,7 C 90 % 1008,3 hPa 0,0 l/m 2,4 km/h (1 Bft) S 187 0 min 0,000 mm 0,0 UV-I 0 W/m 6,2 C 7,7 C 3,2 km/h (1 Bft) 100,00 %
04.04.2016 02:45 7,7 C 90 % 1008,3 hPa 0,0 l/m 2,9 km/h (1 Bft) S 186 0 min 0,000 mm 0,0 UV-I 0 W/m 6,2 C 7,7 C 4,8 km/h (1 Bft) 100,00 %
04.04.2016 02:46 7,6 C 91 % 1008,3 hPa 0,0 l/m 3,2 km/h (1 Bft) S 184 0 min 0,000 mm 0,0 UV-I 0 W/m 6,2 C 7,6 C 4,8 km/h (1 Bft) 100,00 %
04.04.2016 02:47 7,6 C 90 % 1008,3 hPa 0,0 l/m 4,6 km/h (1 Bft) S 175 0 min 0,000 mm 0,0 UV-I 0 W/m 6,1 C 7,6 C 6,4 km/h (2 Bft) 100,00 %
04.04.2016 02:48 7,6 C 91 % 1008,3 hPa 0,0 l/m 4,4 km/h (1 Bft) S 175 0 min 0,000 mm 0,0 UV-I 0 W/m 6,2 C 7,6 C 4,8 km/h (1 Bft) 100,00 %
04.04.2016 02:49 7,7 C 92 % 1008,3 hPa 0,0 l/m 3,8 km/h (1 Bft) S 175 0 min 0,000 mm 0,0 UV-I 0 W/m 6,5 C 7,7 C 4,8 km/h (1 Bft) 100,00 %
04.04.2016 02:50 7,7 C 92 % 1008,3 hPa 0,0 l/m 3,3 km/h (1 Bft) S 175 0 min 0,000 mm 0,0 UV-I 0 W/m 6,5 C 7,7 C 4,8 km/h (1 Bft) 100,00 %
04.04.2016 02:51 7,7 C 92 % 1008,3 hPa 0,0 l/m 1,3 km/h (1 Bft) S 175 0 min 0,000 mm 0,0 UV-I 0 W/m 6,5 C 7,7 C 3,2 km/h (1 Bft) 100,00 %
04.04.2016 02:52 7,8 C 92 % 1008,2 hPa 0,0 l/m 2,4 km/h (1 Bft) S 175 0 min 0,000 mm 0,0 UV-I 0 W/m 6,6 C 7,8 C 3,2 km/h (1 Bft) 100,00 %
04.04.2016 02:53 7,8 C 92 % 1008,3 hPa 0,0 l/m 3,2 km/h (1 Bft) S 175 0 min 0,000 mm 0,0 UV-I 0 W/m 6,6 C 7,8 C 3,2 km/h (1 Bft) 100,00 %
04.04.2016 02:54 7,9 C 92 % 1008,2 hPa 0,0 l/m 3,3 km/h (1 Bft) S 175 0 min 0,000 mm 0,0 UV-I 0 W/m 6,7 C 7,9 C 4,8 km/h (1 Bft) 100,00 %
04.04.2016 02:55 7,9 C 92 % 1008,3 hPa 0,0 l/m 3,1 km/h (1 Bft) S 175 0 min 0,000 mm 0,0 UV-I 0 W/m 6,7 C 7,9 C 3,2 km/h (1 Bft) 96,15 %
04.04.2016 02:56 7,9 C 92 % 1008,2 hPa 0,0 l/m 2,6 km/h (1 Bft) S 175 0 min 0,000 mm 0,0 UV-I 0 W/m 6,7 C 7,9 C 3,2 km/h (1 Bft) 100,00 %
04.04.2016 02:57 7,9 C 91 % 1008,3 hPa 0,0 l/m 2,3 km/h (1 Bft) S 175 0 min 0,000 mm 0,0 UV-I 0 W/m 6,5 C 7,9 C 3,2 km/h (1 Bft) 95,65 %
04.04.2016 02:58 7,8 C 91 % 1008,3 hPa 0,0 l/m 2,7 km/h (1 Bft) S 175 0 min 0,000 mm 0,0 UV-I 0 W/m 6,4 C 7,8 C 4,8 km/h (1 Bft) 100,00 %
04.04.2016 02:59 7,7 C 91 % 1008,2 hPa 0,0 l/m 3,8 km/h (1 Bft) S 175 0 min 0,000 mm 0,0 UV-I 0 W/m 6,3 C 7,7 C 4,8 km/h (1 Bft) 100,00 %
04.04.2016 03:00 7,7 C 91 % 1008,2 hPa 0,0 l/m 4,1 km/h (1 Bft) S 175 0 min 0,000 mm 0,0 UV-I 0 W/m 6,3 C 7,7 C 4,8 km/h (1 Bft) 100,00 %
04.04.2016 03:01 7,6 C 91 % 1008,2 hPa 0,0 l/m 2,9 km/h (1 Bft) S 175 0 min 0,000 mm 0,0 UV-I 0 W/m 6,2 C 7,6 C 4,8 km/h (1 Bft) 86,96 %
04.04.2016 03:02 7,6 C 91 % 1008,2 hPa 0,0 l/m 3,0 km/h (1 Bft) S 175 0 min 0,000 mm 0,0 UV-I 0 W/m 6,2 C 7,6 C 4,8 km/h (1 Bft) 100,00 %
04.04.2016 03:03 7,6 C 91 % 1008,1 hPa 0,0 l/m 1,9 km/h (1 Bft) S 175 0 min 0,000 mm 0,0 UV-I 0 W/m 6,2 C 7,6 C 3,2 km/h (1 Bft) 100,00 %
04.04.2016 03:04 7,5 C 92 % 1008,1 hPa 0,0 l/m 2,0 km/h (1 Bft) S 174 0 min 0,000 mm 0,0 UV-I 0 W/m 6,3 C 7,5 C 3,2 km/h (1 Bft) 95,65 %
04.04.2016 03:05 7,6 C 92 % 1008,1 hPa 0,0 l/m 3,7 km/h (1 Bft) S 173 0 min 0,000 mm 0,0 UV-I 0 W/m 6,4 C 7,6 C 4,8 km/h (1 Bft) 100,00 %
04.04.2016 03:06 7,6 C 92 % 1008,1 hPa 0,0 l/m 4,0 km/h (1 Bft) S 173 0 min 0,000 mm 0,0 UV-I 0 W/m 6,4 C 7,6 C 8,0 km/h (2 Bft) 100,00 %
04.04.2016 03:07 7,7 C 93 % 1008,1 hPa 0,0 l/m 1,3 km/h (1 Bft) S 172 0 min 0,000 mm 0,0 UV-I 0 W/m 6,6 C 7,7 C 1,6 km/h (1 Bft) 100,00 %
04.04.2016 03:08 7,7 C 93 % 1008,1 hPa 0,0 l/m 1,3 km/h (1 Bft) S 172 0 min 0,000 mm 0,0 UV-I 0 W/m 6,6 C 7,7 C 3,2 km/h (1 Bft) 100,00 %
04.04.2016 03:09 7,8 C 93 % 1008,1 hPa 0,0 l/m 1,2 km/h (1 Bft) S 172 0 min 0,000 mm 0,0 UV-I 0 W/m 6,7 C 7,8 C 3,2 km/h (1 Bft) 100,00 %
04.04.2016 03:10 7,9 C 93 % 1008,1 hPa 0,0 l/m 1,0 km/h (0 Bft) S 172 0 min 0,000 mm 0,0 UV-I 0 W/m 6,8 C 7,9 C 1,6 km/h (1 Bft) 100,00 %
04.04.2016 03:11 7,9 C 92 % 1008,1 hPa 0,0 l/m 0,8 km/h (0 Bft) S 172 0 min 0,000 mm 0,0 UV-I 0 W/m 6,7 C 7,9 C 1,6 km/h (1 Bft) 100,00 %
04.04.2016 03:12 7,9 C 92 % 1008,1 hPa 0,0 l/m 3,1 km/h (1 Bft) S 172 0 min 0,000 mm 0,0 UV-I 0 W/m 6,7 C 7,9 C 4,8 km/h (1 Bft) 100,00 %
04.04.2016 03:13 7,9 C 92 % 1008,1 hPa 0,0 l/m 3,2 km/h (1 Bft) S 172 0 min 0,000 mm 0,0 UV-I 0 W/m 6,7 C 7,9 C 4,8 km/h (1 Bft) 95,83 %
04.04.2016 03:14 7,9 C 92 % 1008,1 hPa 0,0 l/m 3,5 km/h (1 Bft) S 172 0 min 0,000 mm 0,0 UV-I 0 W/m 6,7 C 7,9 C 4,8 km/h (1 Bft) 100,00 %
04.04.2016 03:15 7,8 C 91 % 1008,2 hPa 0,0 l/m 3,2 km/h (1 Bft) S 172 0 min 0,000 mm 0,0 UV-I 0 W/m 6,4 C 7,8 C 3,2 km/h (1 Bft) 100,00 %
04.04.2016 03:16 7,7 C 90 % 1008,2 hPa 0,0 l/m 3,5 km/h (1 Bft) S 172 0 min 0,000 mm 0,0 UV-I 0 W/m 6,2 C 7,7 C 4,8 km/h (1 Bft) 100,00 %
04.04.2016 03:17 7,6 C 90 % 1008,2 hPa 0,0 l/m 3,6 km/h (1 Bft) S 172 0 min 0,000 mm 0,0 UV-I 0 W/m 6,1 C 7,6 C 4,8 km/h (1 Bft) 100,00 %
04.04.2016 03:18 7,5 C 90 % 1008,1 hPa 0,0 l/m 3,8 km/h (1 Bft) S 172 0 min 0,000 mm 0,0 UV-I 0 W/m 6,0 C 7,5 C 4,8 km/h (1 Bft) 100,00 %
04.04.2016 03:19 7,3 C 90 % 1008,1 hPa 0,0 l/m 3,8 km/h (1 Bft) S 172 0 min 0,000 mm 0,0 UV-I 0 W/m 5,8 C 7,3 C 4,8 km/h (1 Bft) 100,00 %
04.04.2016 03:20 7,2 C 91 % 1008,2 hPa 0,0 l/m 3,0 km/h (1 Bft) S 172 0 min 0,000 mm 0,0 UV-I 0 W/m 5,8 C 7,2 C 4,8 km/h (1 Bft) 100,00 %
04.04.2016 03:21 7,2 C 91 % 1008,2 hPa 0,0 l/m 3,0 km/h (1 Bft) S 172 0 min 0,000 mm 0,0 UV-I 0 W/m 5,8 C 7,2 C 4,8 km/h (1 Bft) 100,00 %
04.04.2016 03:22 7,1 C 91 % 1008,2 hPa 0,0 l/m 2,8 km/h (1 Bft) S 172 0 min 0,000 mm 0,0 UV-I 0 W/m 5,7 C 7,1 C 4,8 km/h (1 Bft) 100,00 %
04.04.2016 03:23 7,0 C 91 % 1008,2 hPa 0,0 l/m 3,6 km/h (1 Bft) S 172 0 min 0,000 mm 0,0 UV-I 0 W/m 5,6 C 7,0 C 4,8 km/h (1 Bft) 100,00 %
04.04.2016 03:24 6,9 C 91 % 1008,2 hPa 0,0 l/m 3,9 km/h (1 Bft) S 172 0 min 0,000 mm 0,0 UV-I 0 W/m 5,5 C 6,9 C 4,8 km/h (1 Bft) 100,00 %
04.04.2016 03:25 6,9 C 92 % 1008,2 hPa 0,0 l/m 4,0 km/h (1 Bft) S 172 0 min 0,000 mm 0,0 UV-I 0 W/m 5,7 C 6,9 C 4,8 km/h (1 Bft) 95,65 %
04.04.2016 03:26 6,8 C 92 % 1008,3 hPa 0,0 l/m 3,8 km/h (1 Bft) S 172 0 min 0,000 mm 0,0 UV-I 0 W/m 5,6 C 6,8 C 4,8 km/h (1 Bft) 100,00 %
04.04.2016 03:27 6,8 C 92 % 1008,3 hPa 0,0 l/m 3,8 km/h (1 Bft) S 172 0 min 0,000 mm 0,0 UV-I 0 W/m 5,6 C 6,8 C 4,8 km/h (1 Bft) 100,00 %
04.04.2016 03:28 6,8 C 93 % 1008,3 hPa 0,0 l/m 3,4 km/h (1 Bft) S 172 0 min 0,000 mm 0,0 UV-I 0 W/m 5,7 C 6,8 C 4,8 km/h (1 Bft) 100,00 %
04.04.2016 03:29 6,8 C 93 % 1008,3 hPa 0,0 l/m 3,4 km/h (1 Bft) S 172 0 min 0,000 mm 0,0 UV-I 0 W/m 5,7 C 6,8 C 4,8 km/h (1 Bft) 100,00 %
04.04.2016 03:30 6,8 C 93 % 1008,3 hPa 0,0 l/m 3,3 km/h (1 Bft) S 172 0 min 0,000 mm 0,0 UV-I 0 W/m 5,7 C 6,8 C 4,8 km/h (1 Bft) 100,00 %
04.04.2016 03:31 6,8 C 93 % 1008,3 hPa 0,0 l/m 3,5 km/h (1 Bft) S 172 0 min 0,000 mm 0,0 UV-I 0 W/m 5,7 C 6,8 C 4,8 km/h (1 Bft) 100,00 %
04.04.2016 03:32 6,8 C 93 % 1008,3 hPa 0,0 l/m 1,9 km/h (1 Bft) S 172 0 min 0,000 mm 0,0 UV-I 0 W/m 5,7 C 6,8 C 3,2 km/h (1 Bft) 100,00 %
04.04.2016 03:33 6,8 C 93 % 1008,3 hPa 0,0 l/m 1,0 km/h (0 Bft) S 172 0 min 0,000 mm 0,0 UV-I 0 W/m 5,7 C 6,8 C 1,6 km/h (1 Bft) 95,65 %
04.04.2016 03:34 6,8 C 93 % 1008,3 hPa 0,0 l/m 3,4 km/h (1 Bft) S 172 0 min 0,000 mm 0,0 UV-I 0 W/m 5,7 C 6,8 C 4,8 km/h (1 Bft) 100,00 %
04.04.2016 03:35 6,9 C 93 % 1008,3 hPa 0,0 l/m 3,4 km/h (1 Bft) S 172 0 min 0,000 mm 0,0 UV-I 0 W/m 5,8 C 6,9 C 4,8 km/h (1 Bft) 100,00 %
04.04.2016 03:36 6,9 C 93 % 1008,3 hPa 0,0 l/m 3,4 km/h (1 Bft) S 172 0 min 0,000 mm 0,0 UV-I 0 W/m 5,8 C 6,9 C 4,8 km/h (1 Bft) 95,83 %
04.04.2016 03:37 6,9 C 93 % 1008,3 hPa 0,0 l/m 3,4 km/h (1 Bft) S 172 0 min 0,000 mm 0,0 UV-I 0 W/m 5,8 C 6,9 C 4,8 km/h (1 Bft) 95,65 %
04.04.2016 03:38 7,0 C 93 % 1008,3 hPa 0,0 l/m 3,0 km/h (1 Bft) S 172 0 min 0,000 mm 0,0 UV-I 0 W/m 5,9 C 7,0 C 3,2 km/h (1 Bft) 100,00 %
04.04.2016 03:39 7,1 C 94 % 1008,3 hPa 0,0 l/m 3,0 km/h (1 Bft) S 172 0 min 0,000 mm 0,0 UV-I 0 W/m 6,2 C 7,1 C 4,8 km/h (1 Bft) 95,65 %
04.04.2016 03:40 7,1 C 94 % 1008,3 hPa 0,0 l/m 3,0 km/h (1 Bft) S 172 0 min 0,000 mm 0,0 UV-I 0 W/m 6,2 C 7,1 C 3,2 km/h (1 Bft) 95,83 %
04.04.2016 03:41 7,1 C 93 % 1008,3 hPa 0,0 l/m 2,5 km/h (1 Bft) S 172 0 min 0,000 mm 0,0 UV-I 0 W/m 6,0 C 7,1 C 3,2 km/h (1 Bft) 100,00 %
04.04.2016 03:42 7,1 C 93 % 1008,3 hPa 0,0 l/m 3,6 km/h (1 Bft) S 172 0 min 0,000 mm 0,0 UV-I 0 W/m 6,0 C 7,1 C 4,8 km/h (1 Bft) 95,83 %
04.04.2016 03:43 7,1 C 93 % 1008,2 hPa 0,0 l/m 3,6 km/h (1 Bft) S 172 0 min 0,000 mm 0,0 UV-I 0 W/m 6,0 C 7,1 C 4,8 km/h (1 Bft) 100,00 %
04.04.2016 03:44 7,1 C 93 % 1008,2 hPa 0,0 l/m 1,0 km/h (0 Bft) S 172 0 min 0,000 mm 0,0 UV-I 0 W/m 6,0 C 7,1 C 3,2 km/h (1 Bft) 96,15 %
04.04.2016 03:45 7,1 C 92 % 1008,2 hPa 0,0 l/m 1,0 km/h (0 Bft) S 172 0 min 0,000 mm 0,0 UV-I 0 W/m 5,9 C 7,1 C 1,6 km/h (1 Bft) 95,83 %
04.04.2016 03:46 7,1 C 93 % 1008,1 hPa 0,0 l/m 1,3 km/h (1 Bft) S 172 0 min 0,000 mm 0,0 UV-I 0 W/m 6,0 C 7,1 C 3,2 km/h (1 Bft) 100,00 %
04.04.2016 03:47 7,1 C 93 % 1008,2 hPa 0,0 l/m 0,6 km/h (0 Bft) S 172 0 min 0,000 mm 0,0 UV-I 0 W/m 6,0 C 7,1 C 1,6 km/h (1 Bft) 95,83 %
04.04.2016 03:48 7,1 C 93 % 1008,2 hPa 0,0 l/m 0,4 km/h (0 Bft) S 172 0 min 0,000 mm 0,0 UV-I 0 W/m 6,0 C 7,1 C 1,6 km/h (1 Bft) 100,00 %
04.04.2016 03:49 7,2 C 93 % 1008,2 hPa 0,0 l/m 0,3 km/h (0 Bft) S 172 0 min 0,000 mm 0,0 UV-I 0 W/m 6,1 C 7,2 C 1,6 km/h (1 Bft) 95,83 %
04.04.2016 03:50 7,2 C 93 % 1008,1 hPa 0,0 l/m 0,9 km/h (0 Bft) S 172 0 min 0,000 mm 0,0 UV-I 0 W/m 6,1 C 7,2 C 1,6 km/h (1 Bft) 95,65 %
04.04.2016 03:51 7,2 C 94 % 1008,1 hPa 0,0 l/m 1,5 km/h (1 Bft) S 172 0 min 0,000 mm 0,0 UV-I 0 W/m 6,3 C 7,2 C 3,2 km/h (1 Bft) 100,00 %
04.04.2016 03:52 7,3 C 94 % 1008,1 hPa 0,0 l/m 1,4 km/h (1 Bft) S 172 0 min 0,000 mm 0,0 UV-I 0 W/m 6,4 C 7,3 C 3,2 km/h (1 Bft) 95,65 %
04.04.2016 03:53 7,4 C 94 % 1008,1 hPa 0,0 l/m 0,7 km/h (0 Bft) S 172 0 min 0,000 mm 0,0 UV-I 0 W/m 6,5 C 7,4 C 1,6 km/h (1 Bft) 100,00 %
04.04.2016 03:54 7,5 C 94 % 1008,1 hPa 0,0 l/m 0,9 km/h (0 Bft) S 172 0 min 0,000 mm 0,0 UV-I 0 W/m 6,6 C 7,5 C 3,2 km/h (1 Bft) 96,55 %
04.04.2016 03:55 7,6 C 94 % 1008,0 hPa 0,0 l/m 1,2 km/h (1 Bft) S 172 0 min 0,000 mm 0,0 UV-I 0 W/m 6,7 C 7,6 C 3,2 km/h (1 Bft) 100,00 %
04.04.2016 03:56 7,7 C 94 % 1008,0 hPa 0,0 l/m 1,5 km/h (1 Bft) S 172 0 min 0,000 mm 0,0 UV-I 0 W/m 6,8 C 7,7 C 1,6 km/h (1 Bft) 95,65 %
04.04.2016 03:57 7,8 C 93 % 1008,0 hPa 0,0 l/m 0,8 km/h (0 Bft) S 172 0 min 0,000 mm 0,0 UV-I 0 W/m 6,7 C 7,8 C 1,6 km/h (1 Bft) 91,67 %
04.04.2016 03:58 7,8 C 93 % 1008,0 hPa 0,0 l/m 0,2 km/h (0 Bft) S 172 0 min 0,000 mm 0,0 UV-I 0 W/m 6,7 C 7,8 C 1,6 km/h (1 Bft) 91,30 %
04.04.2016 03:59 7,8 C 92 % 1008,0 hPa 0,0 l/m 0,8 km/h (0 Bft) S 172 0 min 0,000 mm 0,0 UV-I 0 W/m 6,6 C 7,8 C 1,6 km/h (1 Bft) 95,83 %
04.04.2016 04:00 7,8 C 92 % 1008,0 hPa 0,0 l/m 0,8 km/h (0 Bft) S 172 0 min 0,000 mm 0,0 UV-I 0 W/m 6,6 C 7,8 C 1,6 km/h (1 Bft) 100,00 %
04.04.2016 04:03 7,5 C 90 % 1008,0 hPa 0,0 l/m 0,2 km/h (0 Bft) S 172 0 min 0,000 mm 0,0 UV-I 0 W/m 6,0 C 7,5 C 1,6 km/h (1 Bft) 97,83 %
04.04.2016 04:04 7,4 C 91 % 1008,0 hPa 0,0 l/m 0,8 km/h (0 Bft) S 172 0 min 0,000 mm 0,0 UV-I 0 W/m 6,0 C 7,4 C 1,6 km/h (1 Bft) 95,65 %
04.04.2016 04:05 7,3 C 91 % 1008,0 hPa 0,0 l/m 1,0 km/h (0 Bft) S 172 0 min 0,000 mm 0,0 UV-I 0 W/m 5,9 C 7,3 C 1,6 km/h (1 Bft) 100,00 %
04.04.2016 04:06 7,3 C 92 % 1007,9 hPa 0,0 l/m 0,4 km/h (0 Bft) S 172 0 min 0,000 mm 0,0 UV-I 0 W/m 6,1 C 7,3 C 1,6 km/h (1 Bft) 95,83 %
04.04.2016 04:07 7,3 C 93 % 1008,0 hPa 0,0 l/m 0,0 km/h (0 Bft) S 172 0 min 0,000 mm 0,0 UV-I 0 W/m 6,2 C 7,3 C 0,0 km/h (0 Bft) 100,00 %
04.04.2016 04:08 7,3 C 93 % 1008,0 hPa 0,0 l/m 0,0 km/h (0 Bft) S 172 0 min 0,000 mm 0,0 UV-I 0 W/m 6,2 C 7,3 C 0,0 km/h (0 Bft) 95,83 %
04.04.2016 04:09 7,3 C 93 % 1008,0 hPa 0,0 l/m 0,0 km/h (0 Bft) S 172 0 min 0,000 mm 0,0 UV-I 0 W/m 6,2 C 7,3 C 0,0 km/h (0 Bft) 100,00 %
04.04.2016 04:10 7,4 C 93 % 1007,9 hPa 0,0 l/m 0,0 km/h (0 Bft) S 172 0 min 0,000 mm 0,0 UV-I 0 W/m 6,3 C 7,4 C 0,0 km/h (0 Bft) 95,83 %
04.04.2016 04:11 7,4 C 93 % 1008,0 hPa 0,0 l/m 0,3 km/h (0 Bft) S 172 0 min 0,000 mm 0,0 UV-I 0 W/m 6,3 C 7,4 C 1,6 km/h (1 Bft) 95,65 %
04.04.2016 04:12 7,4 C 93 % 1008,0 hPa 0,0 l/m 0,3 km/h (0 Bft) S 172 0 min 0,000 mm 0,0 UV-I 0 W/m 6,3 C 7,4 C 1,6 km/h (1 Bft) 91,67 %
04.04.2016 04:13 7,4 C 93 % 1008,0 hPa 0,0 l/m 0,0 km/h (0 Bft) S 172 0 min 0,000 mm 0,0 UV-I 0 W/m 6,3 C 7,4 C 0,0 km/h (0 Bft) 94,29 %
04.04.2016 04:14 7,3 C 92 % 1008,0 hPa 0,0 l/m 0,5 km/h (0 Bft) S 172 0 min 0,000 mm 0,0 UV-I 0 W/m 6,1 C 7,3 C 1,6 km/h (1 Bft) 100,00 %
04.04.2016 04:15 7,3 C 92 % 1008,0 hPa 0,0 l/m 0,8 km/h (0 Bft) S 172 0 min 0,000 mm 0,0 UV-I 0 W/m 6,1 C 7,3 C 1,6 km/h (1 Bft) 100,00 %
04.04.2016 04:16 7,3 C 92 % 1008,0 hPa 0,0 l/m 0,4 km/h (0 Bft) S 172 0 min 0,000 mm 0,0 UV-I 0 W/m 6,1 C 7,3 C 1,6 km/h (1 Bft) 96,30 %
04.04.2016 04:17 7,3 C 92 % 1008,0 hPa 0,0 l/m 0,1 km/h (0 Bft) S 172 0 min 0,000 mm 0,0 UV-I 0 W/m 6,1 C 7,3 C 1,6 km/h (1 Bft) 91,30 %
04.04.2016 04:18 7,2 C 92 % 1008,0 hPa 0,0 l/m 0,0 km/h (0 Bft) S 172 0 min 0,000 mm 0,0 UV-I 0 W/m 6,0 C 7,2 C 0,0 km/h (0 Bft) 100,00 %
04.04.2016 04:19 7,2 C 92 % 1008,0 hPa 0,0 l/m 0,0 km/h (0 Bft) S 172 0 min 0,000 mm 0,0 UV-I 0 W/m 6,0 C 7,2 C 0,0 km/h (0 Bft) 100,00 %
04.04.2016 04:20 7,1 C 92 % 1008,0 hPa 0,0 l/m 0,0 km/h (0 Bft) S 172 0 min 0,000 mm 0,0 UV-I 0 W/m 5,9 C 7,1 C 0,0 km/h (0 Bft) 97,37 %
04.04.2016 04:21 7,0 C 91 % 1007,9 hPa 0,0 l/m 0,5 km/h (0 Bft) S 172 0 min 0,000 mm 0,0 UV-I 0 W/m 5,6 C 7,0 C 1,6 km/h (1 Bft) 95,83 %
04.04.2016 04:22 6,9 C 91 % 1007,9 hPa 0,0 l/m 0,0 km/h (0 Bft) S 172 0 min 0,000 mm 0,0 UV-I 0 W/m 5,5 C 6,9 C 0,0 km/h (0 Bft) 100,00 %
04.04.2016 04:23 6,8 C 91 % 1007,9 hPa 0,0 l/m 0,0 km/h (0 Bft) S 172 0 min 0,000 mm 0,0 UV-I 0 W/m 5,4 C 6,8 C 0,0 km/h (0 Bft) 100,00 %
04.04.2016 04:24 6,7 C 92 % 1007,9 hPa 0,0 l/m 0,6 km/h (0 Bft) S 172 0 min 0,000 mm 0,0 UV-I 0 W/m 5,5 C 6,7 C 1,6 km/h (1 Bft) 95,65 %
04.04.2016 04:25 6,7 C 92 % 1007,8 hPa 0,0 l/m 1,6 km/h (1 Bft) S 172 0 min 0,000 mm 0,0 UV-I 0 W/m 5,5 C 6,7 C 3,2 km/h (1 Bft) 95,83 %
04.04.2016 04:26 6,7 C 92 % 1007,8 hPa 0,0 l/m 1,6 km/h (1 Bft) S 172 0 min 0,000 mm 0,0 UV-I 0 W/m 5,5 C 6,7 C 3,2 km/h (1 Bft) 95,65 %
04.04.2016 04:27 6,7 C 93 % 1007,7 hPa 0,0 l/m 0,8 km/h (0 Bft) S 172 0 min 0,000 mm 0,0 UV-I 0 W/m 5,6 C 6,7 C 1,6 km/h (1 Bft) 100,00 %
04.04.2016 04:28 6,7 C 93 % 1007,7 hPa 0,0 l/m 0,0 km/h (0 Bft) S 172 0 min 0,000 mm 0,0 UV-I 0 W/m 5,6 C 6,7 C 0,0 km/h (0 Bft) 95,65 %
04.04.2016 04:29 6,7 C 93 % 1007,7 hPa 0,0 l/m 0,0 km/h (0 Bft) S 172 0 min 0,000 mm 0,0 UV-I 0 W/m 5,6 C 6,7 C 0,0 km/h (0 Bft) 95,83 %
04.04.2016 04:30 6,7 C 93 % 1007,7 hPa 0,0 l/m 0,0 km/h (0 Bft) S 172 0 min 0,000 mm 0,0 UV-I 0 W/m 5,6 C 6,7 C 0,0 km/h (0 Bft) 100,00 %
04.04.2016 04:31 6,6 C 93 % 1007,8 hPa 0,0 l/m 0,7 km/h (0 Bft) S 172 0 min 0,000 mm 0,0 UV-I 0 W/m 5,6 C 6,6 C 1,6 km/h (1 Bft) 100,00 %
04.04.2016 04:32 6,6 C 93 % 1007,8 hPa 0,0 l/m 2,6 km/h (1 Bft) S 172 0 min 0,000 mm 0,0 UV-I 0 W/m 5,6 C 6,6 C 4,8 km/h (1 Bft) 100,00 %
04.04.2016 04:33 6,4 C 92 % 1007,8 hPa 0,0 l/m 2,2 km/h (1 Bft) S 172 0 min 0,000 mm 0,0 UV-I 0 W/m 5,2 C 6,4 C 3,2 km/h (1 Bft) 95,83 %
04.04.2016 04:34 6,4 C 92 % 1007,8 hPa 0,0 l/m 0,7 km/h (0 Bft) S 172 0 min 0,000 mm 0,0 UV-I 0 W/m 5,2 C 6,4 C 3,2 km/h (1 Bft) 100,00 %
04.04.2016 04:35 6,3 C 92 % 1007,7 hPa 0,0 l/m 0,1 km/h (0 Bft) S 172 0 min 0,000 mm 0,0 UV-I 0 W/m 5,1 C 6,3 C 1,6 km/h (1 Bft) 95,83 %
04.04.2016 04:36 6,3 C 93 % 1007,7 hPa 0,0 l/m 1,3 km/h (1 Bft) S 172 0 min 0,000 mm 0,0 UV-I 0 W/m 5,3 C 6,3 C 1,6 km/h (1 Bft) 100,00 %
04.04.2016 04:37 6,3 C 93 % 1007,7 hPa 0,0 l/m 2,0 km/h (1 Bft) S 172 0 min 0,000 mm 0,0 UV-I 0 W/m 5,3 C 6,3 C 3,2 km/h (1 Bft) 100,00 %
04.04.2016 04:38 6,3 C 93 % 1007,7 hPa 0,0 l/m 1,8 km/h (1 Bft) S 172 0 min 0,000 mm 0,0 UV-I 0 W/m 5,3 C 6,3 C 3,2 km/h (1 Bft) 100,00 %
04.04.2016 04:39 6,3 C 94 % 1007,7 hPa 0,0 l/m 1,5 km/h (1 Bft) S 172 0 min 0,000 mm 0,0 UV-I 0 W/m 5,4 C 6,3 C 1,6 km/h (1 Bft) 100,00 %
04.04.2016 04:40 6,4 C 94 % 1007,7 hPa 0,0 l/m 0,5 km/h (0 Bft) S 172 0 min 0,000 mm 0,0 UV-I 0 W/m 5,5 C 6,4 C 1,6 km/h (1 Bft) 100,00 %
04.04.2016 04:41 6,5 C 94 % 1007,7 hPa 0,0 l/m 0,1 km/h (0 Bft) S 172 0 min 0,000 mm 0,0 UV-I 0 W/m 5,6 C 6,5 C 1,6 km/h (1 Bft) 100,00 %
04.04.2016 04:42 6,5 C 94 % 1007,7 hPa 0,0 l/m 0,0 km/h (0 Bft) S 172 0 min 0,000 mm 0,0 UV-I 0 W/m 5,6 C 6,5 C 0,0 km/h (0 Bft) 100,00 %
04.04.2016 04:43 6,6 C 95 % 1007,7 hPa 0,0 l/m 0,0 km/h (0 Bft) S 172 0 min 0,000 mm 0,0 UV-I 0 W/m 5,9 C 6,6 C 0,0 km/h (0 Bft) 100,00 %
04.04.2016 04:44 6,6 C 94 % 1007,7 hPa 0,0 l/m 0,0 km/h (0 Bft) S 172 0 min 0,000 mm 0,0 UV-I 0 W/m 5,7 C 6,6 C 0,0 km/h (0 Bft) 100,00 %
04.04.2016 04:45 6,6 C 94 % 1007,7 hPa 0,0 l/m 0,0 km/h (0 Bft) S 172 0 min 0,000 mm 0,0 UV-I 0 W/m 5,7 C 6,6 C 0,0 km/h (0 Bft) 95,65 %
04.04.2016 04:46 6,6 C 94 % 1007,7 hPa 0,0 l/m 0,0 km/h (0 Bft) S 172 0 min 0,000 mm 0,0 UV-I 0 W/m 5,7 C 6,6 C 0,0 km/h (0 Bft) 100,00 %
04.04.2016 04:47 6,5 C 94 % 1007,7 hPa 0,0 l/m 2,1 km/h (1 Bft) S 172 0 min 0,000 mm 0,0 UV-I 0 W/m 5,6 C 6,5 C 3,2 km/h (1 Bft) 100,00 %
04.04.2016 04:48 6,4 C 93 % 1007,7 hPa 0,0 l/m 2,6 km/h (1 Bft) S 172 0 min 0,000 mm 0,0 UV-I 0 W/m 5,4 C 6,4 C 3,2 km/h (1 Bft) 100,00 %
04.04.2016 04:49 6,4 C 93 % 1007,7 hPa 0,0 l/m 1,0 km/h (0 Bft) S 172 0 min 0,000 mm 0,0 UV-I 0 W/m 5,4 C 6,4 C 3,2 km/h (1 Bft) 95,65 %
04.04.2016 04:50 6,4 C 94 % 1007,7 hPa 0,0 l/m 0,0 km/h (0 Bft) S 172 0 min 0,000 mm 0,0 UV-I 0 W/m 5,5 C 6,4 C 0,0 km/h (0 Bft) 100,00 %
04.04.2016 04:51 6,4 C 94 % 1007,7 hPa 0,0 l/m 0,0 km/h (0 Bft) S 172 0 min 0,000 mm 0,0 UV-I 0 W/m 5,5 C 6,4 C 0,0 km/h (0 Bft) 91,30 %
04.04.2016 04:52 6,3 C 94 % 1007,7 hPa 0,0 l/m 0,0 km/h (0 Bft) S 172 0 min 0,000 mm 0,0 UV-I 0 W/m 5,4 C 6,3 C 0,0 km/h (0 Bft) 100,00 %
04.04.2016 04:53 6,4 C 94 % 1007,7 hPa 0,0 l/m 0,1 km/h (0 Bft) S 172 0 min 0,000 mm 0,0 UV-I 0 W/m 5,5 C 6,4 C 1,6 km/h (1 Bft) 100,00 %
04.04.2016 04:54 6,4 C 94 % 1007,7 hPa 0,0 l/m 0,3 km/h (0 Bft) S 172 0 min 0,000 mm 0,0 UV-I 0 W/m 5,5 C 6,4 C 1,6 km/h (1 Bft) 100,00 %
04.04.2016 04:55 6,4 C 94 % 1007,7 hPa 0,0 l/m 2,1 km/h (1 Bft) S 172 0 min 0,000 mm 0,0 UV-I 0 W/m 5,5 C 6,4 C 3,2 km/h (1 Bft) 100,00 %
04.04.2016 04:56 6,4 C 94 % 1007,7 hPa 0,0 l/m 2,1 km/h (1 Bft) S 172 0 min 0,000 mm 0,0 UV-I 0 W/m 5,5 C 6,4 C 3,2 km/h (1 Bft) 100,00 %
04.04.2016 04:57 6,3 C 94 % 1007,7 hPa 0,0 l/m 1,6 km/h (1 Bft) S 172 0 min 0,000 mm 0,0 UV-I 0 W/m 5,4 C 6,3 C 3,2 km/h (1 Bft) 100,00 %
04.04.2016 04:58 6,3 C 94 % 1007,7 hPa 0,0 l/m 1,1 km/h (1 Bft) S 172 0 min 0,000 mm 0,0 UV-I 0 W/m 5,4 C 6,3 C 1,6 km/h (1 Bft) 95,65 %
04.04.2016 04:59 6,3 C 94 % 1007,7 hPa 0,0 l/m 2,6 km/h (1 Bft) S 172 0 min 0,000 mm 0,0 UV-I 0 W/m 5,4 C 6,3 C 3,2 km/h (1 Bft) 100,00 %
04.04.2016 05:00 6,3 C 94 % 1007,7 hPa 0,0 l/m 3,5 km/h (1 Bft) S 172 0 min 0,000 mm 0,0 UV-I 0 W/m 5,4 C 6,3 C 4,8 km/h (1 Bft) 95,65 %
04.04.2016 05:01 6,3 C 94 % 1007,7 hPa 0,0 l/m 2,9 km/h (1 Bft) S 172 0 min 0,000 mm 0,0 UV-I 0 W/m 5,4 C 6,3 C 3,2 km/h (1 Bft) 96,30 %
04.04.2016 05:02 6,2 C 93 % 1007,7 hPa 0,0 l/m 2,0 km/h (1 Bft) S 172 0 min 0,000 mm 0,0 UV-I 0 W/m 5,2 C 6,2 C 3,2 km/h (1 Bft) 100,00 %
04.04.2016 05:03 6,2 C 94 % 1007,7 hPa 0,0 l/m 2,2 km/h (1 Bft) S 172 0 min 0,000 mm 0,0 UV-I 0 W/m 5,3 C 6,2 C 3,2 km/h (1 Bft) 95,83 %
04.04.2016 05:04 6,2 C 94 % 1007,7 hPa 0,0 l/m 2,3 km/h (1 Bft) S 172 0 min 0,000 mm 0,0 UV-I 0 W/m 5,3 C 6,2 C 3,2 km/h (1 Bft) 100,00 %
04.04.2016 05:05 6,2 C 94 % 1007,7 hPa 0,0 l/m 2,8 km/h (1 Bft) S 172 0 min 0,000 mm 0,0 UV-I 0 W/m 5,3 C 6,2 C 3,2 km/h (1 Bft) 100,00 %
04.04.2016 05:06 6,1 C 94 % 1007,6 hPa 0,0 l/m 2,2 km/h (1 Bft) S 172 0 min 0,000 mm 0,0 UV-I 0 W/m 5,2 C 6,1 C 3,2 km/h (1 Bft) 100,00 %
04.04.2016 05:07 6,1 C 94 % 1007,6 hPa 0,0 l/m 1,1 km/h (1 Bft) S 172 0 min 0,000 mm 0,0 UV-I 0 W/m 5,2 C 6,1 C 1,6 km/h (1 Bft) 100,00 %
04.04.2016 05:08 6,2 C 95 % 1007,6 hPa 0,0 l/m 0,0 km/h (0 Bft) S 172 0 min 0,000 mm 0,0 UV-I 0 W/m 5,5 C 6,2 C 0,0 km/h (0 Bft) 95,65 %
04.04.2016 05:09 6,3 C 95 % 1007,6 hPa 0,0 l/m 0,1 km/h (0 Bft) S 172 0 min 0,000 mm 0,0 UV-I 0 W/m 5,6 C 6,3 C 1,6 km/h (1 Bft) 100,00 %
04.04.2016 05:10 6,3 C 95 % 1007,6 hPa 0,0 l/m 0,0 km/h (0 Bft) S 172 0 min 0,000 mm 0,0 UV-I 0 W/m 5,6 C 6,3 C 0,0 km/h (0 Bft) 100,00 %
04.04.2016 05:11 6,4 C 95 % 1007,7 hPa 0,0 l/m 2,3 km/h (1 Bft) S 172 0 min 0,000 mm 0,0 UV-I 0 W/m 5,7 C 6,4 C 3,2 km/h (1 Bft) 100,00 %
04.04.2016 05:12 6,4 C 95 % 1007,6 hPa 0,0 l/m 2,3 km/h (1 Bft) S 172 0 min 0,000 mm 0,0 UV-I 0 W/m 5,7 C 6,4 C 3,2 km/h (1 Bft) 100,00 %
04.04.2016 05:13 6,4 C 95 % 1007,6 hPa 0,0 l/m 0,9 km/h (0 Bft) S 172 0 min 0,000 mm 0,0 UV-I 0 W/m 5,7 C 6,4 C 3,2 km/h (1 Bft) 95,83 %
04.04.2016 05:14 6,3 C 94 % 1007,6 hPa 0,0 l/m 0,3 km/h (0 Bft) S 172 0 min 0,000 mm 0,0 UV-I 0 W/m 5,4 C 6,3 C 1,6 km/h (1 Bft) 91,30 %
04.04.2016 05:15 6,3 C 94 % 1007,6 hPa 0,0 l/m 0,0 km/h (0 Bft) S 172 0 min 0,000 mm 0,0 UV-I 0 W/m 5,4 C 6,3 C 0,0 km/h (0 Bft) 95,83 %
04.04.2016 05:16 6,2 C 94 % 1007,6 hPa 0,0 l/m 0,5 km/h (0 Bft) S 172 0 min 0,000 mm 0,0 UV-I 0 W/m 5,3 C 6,2 C 1,6 km/h (1 Bft) 87,50 %
04.04.2016 05:17 6,2 C 94 % 1007,6 hPa 0,0 l/m 0,0 km/h (0 Bft) S 172 0 min 0,000 mm 0,0 UV-I 0 W/m 5,3 C 6,2 C 0,0 km/h (0 Bft) 100,00 %
04.04.2016 05:18 6,1 C 94 % 1007,5 hPa 0,0 l/m 0,0 km/h (0 Bft) S 172 0 min 0,000 mm 0,0 UV-I 0 W/m 5,2 C 6,1 C 0,0 km/h (0 Bft) 100,00 %
04.04.2016 05:19 6,1 C 94 % 1007,5 hPa 0,0 l/m 0,0 km/h (0 Bft) S 172 0 min 0,000 mm 0,0 UV-I 0 W/m 5,2 C 6,1 C 0,0 km/h (0 Bft) 100,00 %
04.04.2016 05:20 6,1 C 94 % 1007,5 hPa 0,0 l/m 0,0 km/h (0 Bft) S 172 0 min 0,000 mm 0,0 UV-I 0 W/m 5,2 C 6,1 C 0,0 km/h (0 Bft) 95,83 %
04.04.2016 05:21 6,0 C 94 % 1007,5 hPa 0,0 l/m 0,0 km/h (0 Bft) S 172 0 min 0,000 mm 0,0 UV-I 0 W/m 5,1 C 6,0 C 0,0 km/h (0 Bft) 95,65 %
04.04.2016 05:22 6,0 C 94 % 1007,4 hPa 0,0 l/m 0,0 km/h (0 Bft) S 172 0 min 0,000 mm 0,0 UV-I 0 W/m 5,1 C 6,0 C 0,0 km/h (0 Bft) 100,00 %
04.04.2016 05:23 6,0 C 94 % 1007,4 hPa 0,0 l/m 0,0 km/h (0 Bft) S 172 0 min 0,000 mm 0,0 UV-I 0 W/m 5,1 C 6,0 C 0,0 km/h (0 Bft) 100,00 %
04.04.2016 05:24 6,1 C 95 % 1007,5 hPa 0,0 l/m 0,0 km/h (0 Bft) S 172 0 min 0,000 mm 0,0 UV-I 0 W/m 5,4 C 6,1 C 0,0 km/h (0 Bft) 100,00 %
04.04.2016 05:25 6,1 C 95 % 1007,5 hPa 0,0 l/m 0,0 km/h (0 Bft) S 172 0 min 0,000 mm 0,0 UV-I 0 W/m 5,4 C 6,1 C 0,0 km/h (0 Bft) 100,00 %
04.04.2016 05:26 6,1 C 95 % 1007,5 hPa 0,0 l/m 0,0 km/h (0 Bft) S 172 0 min 0,000 mm 0,0 UV-I 0 W/m 5,4 C 6,1 C 0,0 km/h (0 Bft) 100,00 %
04.04.2016 05:27 6,2 C 95 % 1007,5 hPa 0,0 l/m 1,1 km/h (1 Bft) S 172 0 min 0,000 mm 0,0 UV-I 0 W/m 5,5 C 6,2 C 1,6 km/h (1 Bft) 100,00 %
04.04.2016 05:28 6,2 C 95 % 1007,5 hPa 0,0 l/m 0,4 km/h (0 Bft) S 172 0 min 0,000 mm 0,0 UV-I 0 W/m 5,5 C 6,2 C 1,6 km/h (1 Bft) 100,00 %
04.04.2016 05:29 6,2 C 95 % 1007,6 hPa 0,0 l/m 0,0 km/h (0 Bft) S 172 0 min 0,000 mm 0,0 UV-I 0 W/m 5,5 C 6,2 C 0,0 km/h (0 Bft) 100,00 %
04.04.2016 05:30 6,2 C 95 % 1007,6 hPa 0,0 l/m 0,5 km/h (0 Bft) S 172 0 min 0,000 mm 0,0 UV-I 0 W/m 5,5 C 6,2 C 1,6 km/h (1 Bft) 100,00 %
04.04.2016 05:31 6,2 C 95 % 1007,6 hPa 0,0 l/m 2,3 km/h (1 Bft) S 172 0 min 0,000 mm 0,0 UV-I 0 W/m 5,5 C 6,2 C 4,8 km/h (1 Bft) 100,00 %
04.04.2016 05:32 6,1 C 95 % 1007,7 hPa 0,0 l/m 4,4 km/h (1 Bft) S 182 0 min 0,000 mm 0,0 UV-I 0 W/m 5,4 C 6,1 C 4,8 km/h (1 Bft) 100,00 %
04.04.2016 05:33 6,1 C 95 % 1007,7 hPa 0,0 l/m 3,2 km/h (1 Bft) S 182 0 min 0,000 mm 0,0 UV-I 0 W/m 5,4 C 6,1 C 3,2 km/h (1 Bft) 100,00 %
04.04.2016 05:34 5,9 C 94 % 1007,7 hPa 0,0 l/m 2,4 km/h (1 Bft) S 182 0 min 0,000 mm 0,0 UV-I 0 W/m 5,0 C 5,9 C 3,2 km/h (1 Bft) 100,00 %
04.04.2016 05:35 5,8 C 93 % 1007,7 hPa 0,0 l/m 3,3 km/h (1 Bft) S 182 0 min 0,000 mm 0,0 UV-I 0 W/m 4,8 C 5,8 C 4,8 km/h (1 Bft) 100,00 %
04.04.2016 05:36 5,7 C 93 % 1007,6 hPa 0,0 l/m 3,2 km/h (1 Bft) S 182 0 min 0,000 mm 0,0 UV-I 0 W/m 4,7 C 5,7 C 4,8 km/h (1 Bft) 100,00 %
04.04.2016 05:37 5,6 C 93 % 1007,7 hPa 0,0 l/m 3,0 km/h (1 Bft) S 182 0 min 0,000 mm 0,0 UV-I 0 W/m 4,6 C 5,6 C 4,8 km/h (1 Bft) 100,00 %
04.04.2016 05:38 5,5 C 93 % 1007,7 hPa 0,0 l/m 1,3 km/h (1 Bft) S 182 0 min 0,000 mm 0,0 UV-I 0 W/m 4,5 C 5,5 C 3,2 km/h (1 Bft) 95,65 %
04.04.2016 05:39 5,4 C 93 % 1007,7 hPa 0,0 l/m 1,5 km/h (1 Bft) S 182 0 min 0,000 mm 0,0 UV-I 0 W/m 4,4 C 5,4 C 3,2 km/h (1 Bft) 100,00 %
04.04.2016 05:40 5,3 C 94 % 1007,7 hPa 0,0 l/m 2,7 km/h (1 Bft) S 182 0 min 0,000 mm 0,0 UV-I 0 W/m 4,4 C 5,3 C 3,2 km/h (1 Bft) 100,00 %
04.04.2016 05:41 5,3 C 94 % 1007,7 hPa 0,0 l/m 2,4 km/h (1 Bft) S 182 0 min 0,000 mm 0,0 UV-I 0 W/m 4,4 C 5,3 C 3,2 km/h (1 Bft) 100,00 %
04.04.2016 05:42 5,4 C 94 % 1007,7 hPa 0,0 l/m 1,8 km/h (1 Bft) S 182 0 min 0,000 mm 0,0 UV-I 0 W/m 4,5 C 5,4 C 3,2 km/h (1 Bft) 100,00 %
04.04.2016 05:43 5,4 C 95 % 1007,7 hPa 0,0 l/m 1,5 km/h (1 Bft) S 182 0 min 0,000 mm 0,0 UV-I 0 W/m 4,7 C 5,4 C 3,2 km/h (1 Bft) 100,00 %
04.04.2016 05:44 5,4 C 95 % 1007,7 hPa 0,0 l/m 1,1 km/h (1 Bft) S 182 0 min 0,000 mm 0,0 UV-I 0 W/m 4,7 C 5,4 C 1,6 km/h (1 Bft) 96,15 %
04.04.2016 05:45 5,4 C 95 % 1007,6 hPa 0,0 l/m 3,8 km/h (1 Bft) S-SO 147 0 min 0,000 mm 0,0 UV-I 0 W/m 4,7 C 5,4 C 4,8 km/h (1 Bft) 100,00 %
04.04.2016 05:46 5,4 C 94 % 1007,6 hPa 0,0 l/m 5,9 km/h (2 Bft) SO 129 0 min 0,000 mm 0,0 UV-I 0 W/m 4,5 C 5,4 C 6,4 km/h (2 Bft) 100,00 %
04.04.2016 05:47 5,3 C 94 % 1007,6 hPa 0,0 l/m 6,4 km/h (2 Bft) SO 128 0 min 0,000 mm 0,0 UV-I 0 W/m 4,4 C 5,3 C 6,4 km/h (2 Bft) 100,00 %
04.04.2016 05:48 5,4 C 95 % 1007,6 hPa 0,0 l/m 5,7 km/h (1 Bft) SO 128 0 min 0,000 mm 0,0 UV-I 0 W/m 4,7 C 5,4 C 6,4 km/h (2 Bft) 91,30 %
04.04.2016 05:49 5,5 C 95 % 1007,6 hPa 0,0 l/m 4,3 km/h (1 Bft) SO 128 0 min 0,000 mm 0,0 UV-I 0 W/m 4,8 C 5,5 C 6,4 km/h (2 Bft) 100,00 %
04.04.2016 05:50 5,6 C 95 % 1007,6 hPa 0,0 l/m 1,7 km/h (1 Bft) SO 128 0 min 0,000 mm 0,0 UV-I 0 W/m 4,9 C 5,6 C 4,8 km/h (1 Bft) 95,65 %
04.04.2016 05:51 5,8 C 96 % 1007,6 hPa 0,0 l/m 0,2 km/h (0 Bft) SO 128 0 min 0,000 mm 0,0 UV-I 0 W/m 5,2 C 5,8 C 1,6 km/h (1 Bft) 100,00 %
04.04.2016 05:52 5,8 C 96 % 1007,7 hPa 0,0 l/m 1,1 km/h (1 Bft) SO 128 0 min 0,000 mm 0,0 UV-I 0 W/m 5,2 C 5,8 C 1,6 km/h (1 Bft) 100,00 %
04.04.2016 05:53 5,9 C 96 % 1007,7 hPa 0,0 l/m 2,0 km/h (1 Bft) SO 128 0 min 0,000 mm 0,0 UV-I 0 W/m 5,3 C 5,9 C 3,2 km/h (1 Bft) 95,83 %
04.04.2016 05:54 5,9 C 96 % 1007,7 hPa 0,0 l/m 2,0 km/h (1 Bft) SO 128 0 min 0,000 mm 0,0 UV-I 0 W/m 5,3 C 5,9 C 3,2 km/h (1 Bft) 100,00 %
04.04.2016 05:55 6,0 C 96 % 1007,7 hPa 0,0 l/m 1,7 km/h (1 Bft) SO 128 0 min 0,000 mm 0,0 UV-I 0 W/m 5,4 C 6,0 C 3,2 km/h (1 Bft) 100,00 %
04.04.2016 05:56 6,0 C 96 % 1007,6 hPa 0,0 l/m 1,0 km/h (0 Bft) SO 128 0 min 0,000 mm 0,0 UV-I 0 W/m 5,4 C 6,0 C 1,6 km/h (1 Bft) 100,00 %
04.04.2016 05:57 6,1 C 96 % 1007,6 hPa 0,0 l/m 0,1 km/h (0 Bft) SO 128 0 min 0,000 mm 0,0 UV-I 0 W/m 5,5 C 6,1 C 1,6 km/h (1 Bft) 100,00 %
04.04.2016 05:58 6,1 C 95 % 1007,6 hPa 0,0 l/m 0,0 km/h (0 Bft) SO 128 0 min 0,000 mm 0,0 UV-I 0 W/m 5,4 C 6,1 C 0,0 km/h (0 Bft) 100,00 %
04.04.2016 05:59 6,1 C 95 % 1007,6 hPa 0,0 l/m 0,0 km/h (0 Bft) SO 128 0 min 0,000 mm 0,0 UV-I 0 W/m 5,4 C 6,1 C 0,0 km/h (0 Bft) 100,00 %
04.04.2016 06:00 6,1 C 96 % 1007,6 hPa 0,0 l/m 0,0 km/h (0 Bft) SO 128 0 min 0,000 mm 0,0 UV-I 0 W/m 5,5 C 6,1 C 0,0 km/h (0 Bft) 95,83 %
04.04.2016 06:01 6,1 C 95 % 1007,6 hPa 0,0 l/m 0,0 km/h (0 Bft) SO 128 0 min 0,000 mm 0,0 UV-I 0 W/m 5,4 C 6,1 C 0,0 km/h (0 Bft) 91,30 %
04.04.2016 06:02 6,0 C 95 % 1007,6 hPa 0,0 l/m 0,0 km/h (0 Bft) SO 128 0 min 0,000 mm 0,0 UV-I 0 W/m 5,3 C 6,0 C 0,0 km/h (0 Bft) 100,00 %
04.04.2016 06:03 5,9 C 95 % 1007,6 hPa 0,0 l/m 0,0 km/h (0 Bft) SO 128 0 min 0,000 mm 0,0 UV-I 0 W/m 5,2 C 5,9 C 0,0 km/h (0 Bft) 91,30 %
04.04.2016 06:04 5,8 C 95 % 1007,6 hPa 0,0 l/m 0,0 km/h (0 Bft) SO 128 0 min 0,000 mm 0,0 UV-I 0 W/m 5,1 C 5,8 C 0,0 km/h (0 Bft) 100,00 %
04.04.2016 06:05 5,8 C 95 % 1007,6 hPa 0,0 l/m 0,0 km/h (0 Bft) SO 128 0 min 0,000 mm 0,0 UV-I 0 W/m 5,1 C 5,8 C 0,0 km/h (0 Bft) 95,65 %
04.04.2016 06:06 5,8 C 95 % 1007,6 hPa 0,0 l/m 0,0 km/h (0 Bft) SO 128 0 min 0,000 mm 0,0 UV-I 0 W/m 5,1 C 5,8 C 0,0 km/h (0 Bft) 100,00 %
04.04.2016 06:07 5,7 C 95 % 1007,6 hPa 0,0 l/m 0,0 km/h (0 Bft) SO 128 0 min 0,000 mm 0,0 UV-I 0 W/m 5,0 C 5,7 C 0,0 km/h (0 Bft) 86,96 %
04.04.2016 06:08 5,7 C 95 % 1007,6 hPa 0,0 l/m 0,1 km/h (0 Bft) SO 128 0 min 0,000 mm 0,0 UV-I 0 W/m 5,0 C 5,7 C 1,6 km/h (1 Bft) 95,83 %
04.04.2016 06:09 5,7 C 95 % 1007,6 hPa 0,0 l/m 0,8 km/h (0 Bft) SO 128 0 min 0,000 mm 0,0 UV-I 0 W/m 5,0 C 5,7 C 1,6 km/h (1 Bft) 100,00 %
04.04.2016 06:10 5,8 C 95 % 1007,6 hPa 0,0 l/m 0,1 km/h (0 Bft) SO 128 0 min 0,000 mm 0,0 UV-I 0 W/m 5,1 C 5,8 C 1,6 km/h (1 Bft) 95,83 %
04.04.2016 06:11 5,7 C 95 % 1007,6 hPa 0,0 l/m 0,0 km/h (0 Bft) SO 128 0 min 0,000 mm 0,0 UV-I 0 W/m 5,0 C 5,7 C 0,0 km/h (0 Bft) 100,00 %
04.04.2016 06:12 5,8 C 95 % 1007,6 hPa 0,0 l/m 0,6 km/h (0 Bft) SO 128 0 min 0,000 mm 0,0 UV-I 0 W/m 5,1 C 5,8 C 1,6 km/h (1 Bft) 95,83 %
04.04.2016 06:13 5,8 C 95 % 1007,6 hPa 0,0 l/m 1,3 km/h (1 Bft) SO 128 0 min 0,000 mm 0,0 UV-I 0 W/m 5,1 C 5,8 C 1,6 km/h (1 Bft) 100,00 %
04.04.2016 06:14 5,8 C 95 % 1007,7 hPa 0,0 l/m 1,0 km/h (0 Bft) SO 128 0 min 0,000 mm 0,0 UV-I 0 W/m 5,1 C 5,8 C 1,6 km/h (1 Bft) 95,83 %
04.04.2016 06:15 5,8 C 95 % 1007,6 hPa 0,0 l/m 1,6 km/h (1 Bft) SO 128 0 min 0,000 mm 0,0 UV-I 0 W/m 5,1 C 5,8 C 3,2 km/h (1 Bft) 95,65 %
04.04.2016 06:16 5,7 C 95 % 1007,7 hPa 0,0 l/m 1,4 km/h (1 Bft) SO 128 0 min 0,000 mm 0,0 UV-I 0 W/m 5,0 C 5,7 C 3,2 km/h (1 Bft) 91,67 %
04.04.2016 06:17 5,6 C 94 % 1007,7 hPa 0,0 l/m 2,2 km/h (1 Bft) SO 128 0 min 0,000 mm 0,0 UV-I 0 W/m 4,7 C 5,6 C 3,2 km/h (1 Bft) 91,30 %
04.04.2016 06:18 5,5 C 94 % 1007,6 hPa 0,0 l/m 2,5 km/h (1 Bft) SO 128 0 min 0,000 mm 0,0 UV-I 0 W/m 4,6 C 5,5 C 3,2 km/h (1 Bft) 100,00 %
04.04.2016 06:19 5,4 C 94 % 1007,6 hPa 0,0 l/m 3,0 km/h (1 Bft) SO 128 0 min 0,000 mm 0,0 UV-I 0 W/m 4,5 C 5,4 C 3,2 km/h (1 Bft) 95,83 %
04.04.2016 06:20 5,3 C 94 % 1007,6 hPa 0,0 l/m 1,4 km/h (1 Bft) SO 128 0 min 0,000 mm 0,0 UV-I 0 W/m 4,4 C 5,3 C 3,2 km/h (1 Bft) 100,00 %
04.04.2016 06:21 5,3 C 94 % 1007,5 hPa 0,0 l/m 1,5 km/h (1 Bft) SO 128 0 min 0,000 mm 0,0 UV-I 0 W/m 4,4 C 5,3 C 3,2 km/h (1 Bft) 95,65 %
04.04.2016 06:22 5,3 C 94 % 1007,5 hPa 0,0 l/m 2,6 km/h (1 Bft) SO 128 0 min 0,000 mm 0,0 UV-I 0 W/m 4,4 C 5,3 C 3,2 km/h (1 Bft) 100,00 %
04.04.2016 06:23 5,2 C 94 % 1007,5 hPa 0,0 l/m 2,0 km/h (1 Bft) SO 128 0 min 0,000 mm 0,0 UV-I 0 W/m 4,3 C 5,2 C 3,2 km/h (1 Bft) 95,65 %
04.04.2016 06:24 5,2 C 95 % 1007,5 hPa 0,0 l/m 1,0 km/h (0 Bft) SO 128 0 min 0,000 mm 0,0 UV-I 0 W/m 4,5 C 5,2 C 1,6 km/h (1 Bft) 91,67 %
04.04.2016 06:25 5,2 C 95 % 1007,5 hPa 0,0 l/m 0,0 km/h (0 Bft) SO 128 0 min 0,000 mm 0,0 UV-I 0 W/m 4,5 C 5,2 C 0,0 km/h (0 Bft) 100,00 %
04.04.2016 06:26 5,2 C 95 % 1007,5 hPa 0,0 l/m 0,1 km/h (0 Bft) SO 128 0 min 0,000 mm 0,0 UV-I 0 W/m 4,5 C 5,2 C 1,6 km/h (1 Bft) 95,65 %
04.04.2016 06:27 5,3 C 95 % 1007,5 hPa 0,0 l/m 0,0 km/h (0 Bft) SO 128 0 min 0,000 mm 0,0 UV-I 0 W/m 4,6 C 5,3 C 0,0 km/h (0 Bft) 100,00 %
04.04.2016 06:28 5,3 C 95 % 1007,4 hPa 0,0 l/m 0,6 km/h (0 Bft) SO 128 0 min 0,000 mm 0,0 UV-I 0 W/m 4,6 C 5,3 C 3,2 km/h (1 Bft) 91,30 %
04.04.2016 06:29 5,3 C 95 % 1007,4 hPa 0,0 l/m 1,6 km/h (1 Bft) SO 128 0 min 0,000 mm 0,0 UV-I 0 W/m 4,6 C 5,3 C 3,2 km/h (1 Bft) 100,00 %
04.04.2016 06:30 5,4 C 95 % 1007,4 hPa 0,0 l/m 2,2 km/h (1 Bft) SO 128 0 min 0,000 mm 0,0 UV-I 0 W/m 4,7 C 5,4 C 3,2 km/h (1 Bft) 96,15 %
04.04.2016 06:31 5,4 C 96 % 1007,5 hPa 0,0 l/m 2,7 km/h (1 Bft) SO 128 0 min 0,000 mm 0,0 UV-I 0 W/m 4,8 C 5,4 C 3,2 km/h (1 Bft) 100,00 %
04.04.2016 06:32 5,5 C 96 % 1007,4 hPa 0,0 l/m 3,1 km/h (1 Bft) SO 128 0 min 0,000 mm 0,0 UV-I 0 W/m 4,9 C 5,5 C 3,2 km/h (1 Bft) 96,15 %
04.04.2016 06:33 5,6 C 96 % 1007,4 hPa 0,0 l/m 3,0 km/h (1 Bft) SO 128 0 min 0,000 mm 0,0 UV-I 0 W/m 5,0 C 5,6 C 3,2 km/h (1 Bft) 95,83 %
04.04.2016 06:34 5,6 C 96 % 1007,3 hPa 0,0 l/m 3,6 km/h (1 Bft) SO 128 0 min 0,000 mm 0,0 UV-I 0 W/m 5,0 C 5,6 C 4,8 km/h (1 Bft) 95,65 %
04.04.2016 06:35 5,6 C 96 % 1007,3 hPa 0,0 l/m 3,4 km/h (1 Bft) SO 128 0 min 0,000 mm 0,0 UV-I 0 W/m 5,0 C 5,6 C 4,8 km/h (1 Bft) 95,83 %
04.04.2016 06:36 5,6 C 96 % 1007,3 hPa 0,0 l/m 3,1 km/h (1 Bft) SO 128 0 min 0,000 mm 0,0 UV-I 5 W/m 5,0 C 5,6 C 3,2 km/h (1 Bft) 95,65 %
04.04.2016 06:37 5,6 C 96 % 1007,4 hPa 0,0 l/m 1,7 km/h (1 Bft) SO 128 0 min 0,000 mm 0,0 UV-I 5 W/m 5,0 C 5,6 C 3,2 km/h (1 Bft) 100,00 %
04.04.2016 06:38 5,6 C 96 % 1007,3 hPa 0,0 l/m 0,0 km/h (0 Bft) SO 128 0 min 0,000 mm 0,0 UV-I 5 W/m 5,0 C 5,6 C 0,0 km/h (0 Bft) 100,00 %
04.04.2016 06:39 5,6 C 95 % 1007,4 hPa 0,0 l/m 0,4 km/h (0 Bft) SO 128 0 min 0,000 mm 0,0 UV-I 5 W/m 4,9 C 5,6 C 1,6 km/h (1 Bft) 96,15 %
04.04.2016 06:40 5,7 C 96 % 1007,4 hPa 0,0 l/m 0,0 km/h (0 Bft) SO 128 0 min 0,000 mm 0,0 UV-I 5 W/m 5,1 C 5,7 C 0,0 km/h (0 Bft) 100,00 %
04.04.2016 06:41 5,6 C 96 % 1007,4 hPa 0,0 l/m 0,0 km/h (0 Bft) SO 128 0 min 0,000 mm 0,0 UV-I 5 W/m 5,0 C 5,6 C 0,0 km/h (0 Bft) 100,00 %
04.04.2016 06:42 5,6 C 95 % 1007,4 hPa 0,0 l/m 0,0 km/h (0 Bft) SO 128 0 min 0,000 mm 0,0 UV-I 7 W/m 4,9 C 5,6 C 0,0 km/h (0 Bft) 100,00 %
04.04.2016 06:43 5,5 C 95 % 1007,4 hPa 0,0 l/m 0,0 km/h (0 Bft) SO 128 0 min 0,000 mm 0,0 UV-I 7 W/m 4,8 C 5,5 C 0,0 km/h (0 Bft) 95,65 %
04.04.2016 06:44 5,5 C 95 % 1007,4 hPa 0,0 l/m 0,0 km/h (0 Bft) SO 128 0 min 0,000 mm 0,0 UV-I 8 W/m 4,8 C 5,5 C 0,0 km/h (0 Bft) 100,00 %
04.04.2016 06:45 5,6 C 96 % 1007,4 hPa 0,0 l/m 0,0 km/h (0 Bft) SO 128 0 min 0,000 mm 0,0 UV-I 9 W/m 5,0 C 5,6 C 0,0 km/h (0 Bft) 100,00 %
04.04.2016 06:46 5,6 C 96 % 1007,4 hPa 0,0 l/m 0,7 km/h (0 Bft) SO 128 1 min 0,000 mm 0,0 UV-I 11 W/m 5,0 C 5,6 C 1,6 km/h (1 Bft) 100,00 %
04.04.2016 06:47 5,6 C 96 % 1007,4 hPa 0,0 l/m 0,3 km/h (0 Bft) SO 128 1 min 0,000 mm 0,0 UV-I 11 W/m 5,0 C 5,6 C 1,6 km/h (1 Bft) 100,00 %
04.04.2016 06:48 5,5 C 96 % 1007,4 hPa 0,0 l/m 0,1 km/h (0 Bft) SO 128 0 min 0,000 mm 0,0 UV-I 11 W/m 4,9 C 5,5 C 1,6 km/h (1 Bft) 95,83 %
04.04.2016 06:49 5,5 C 96 % 1007,5 hPa 0,0 l/m 0,1 km/h (0 Bft) SO 128 0 min 0,000 mm 0,0 UV-I 11 W/m 4,9 C 5,5 C 1,6 km/h (1 Bft) 100,00 %
04.04.2016 06:50 5,4 C 95 % 1007,5 hPa 0,0 l/m 0,0 km/h (0 Bft) SO 128 0 min 0,000 mm 0,0 UV-I 12 W/m 4,7 C 5,4 C 0,0 km/h (0 Bft) 100,00 %
04.04.2016 06:51 5,4 C 95 % 1007,5 hPa 0,0 l/m 0,3 km/h (0 Bft) SO 128 0 min 0,000 mm 0,0 UV-I 12 W/m 4,7 C 5,4 C 1,6 km/h (1 Bft) 100,00 %
04.04.2016 06:52 5,3 C 95 % 1007,5 hPa 0,0 l/m 0,1 km/h (0 Bft) SO 128 0 min 0,000 mm 0,0 UV-I 14 W/m 4,6 C 5,3 C 1,6 km/h (1 Bft) 100,00 %
04.04.2016 06:53 5,2 C 95 % 1007,5 hPa 0,0 l/m 0,1 km/h (0 Bft) SO 128 0 min 0,000 mm 0,0 UV-I 16 W/m 4,5 C 5,2 C 1,6 km/h (1 Bft) 100,00 %
04.04.2016 06:54 5,2 C 94 % 1007,5 hPa 0,0 l/m 0,0 km/h (0 Bft) SO 128 0 min 0,000 mm 0,0 UV-I 17 W/m 4,3 C 5,2 C 0,0 km/h (0 Bft) 100,00 %
04.04.2016 06:55 5,1 C 95 % 1007,6 hPa 0,0 l/m 0,5 km/h (0 Bft) SO 128 0 min 0,000 mm 0,0 UV-I 20 W/m 4,4 C 5,1 C 1,6 km/h (1 Bft) 100,00 %
04.04.2016 06:56 5,0 C 95 % 1007,6 hPa 0,0 l/m 2,4 km/h (1 Bft) S-SO 155 0 min 0,000 mm 0,0 UV-I 22 W/m 4,3 C 5,0 C 3,2 km/h (1 Bft) 100,00 %
04.04.2016 06:57 5,0 C 95 % 1007,6 hPa 0,0 l/m 1,0 km/h (0 Bft) S-SO 155 0 min 0,000 mm 0,0 UV-I 24 W/m 4,3 C 5,0 C 3,2 km/h (1 Bft) 100,00 %
04.04.2016 06:58 4,9 C 95 % 1007,6 hPa 0,0 l/m 0,1 km/h (0 Bft) S-SO 155 0 min 0,000 mm 0,0 UV-I 25 W/m 4,2 C 4,9 C 1,6 km/h (1 Bft) 100,00 %
04.04.2016 06:59 4,9 C 95 % 1007,5 hPa 0,0 l/m 0,0 km/h (0 Bft) S-SO 155 0 min 0,000 mm 0,0 UV-I 26 W/m 4,2 C 4,9 C 0,0 km/h (0 Bft) 100,00 %
04.04.2016 07:00 5,0 C 95 % 1007,5 hPa 0,0 l/m 0,0 km/h (0 Bft) S-SO 155 0 min 0,000 mm 0,0 UV-I 28 W/m 4,3 C 5,0 C 0,0 km/h (0 Bft) 100,00 %
04.04.2016 07:01 5,1 C 95 % 1007,4 hPa 0,0 l/m 1,6 km/h (1 Bft) S-SO 155 0 min 0,000 mm 0,0 UV-I 30 W/m 4,4 C 5,1 C 3,2 km/h (1 Bft) 100,00 %
04.04.2016 07:02 5,2 C 95 % 1007,4 hPa 0,0 l/m 2,8 km/h (1 Bft) S-SO 155 0 min 0,000 mm 0,0 UV-I 31 W/m 4,5 C 5,2 C 3,2 km/h (1 Bft) 100,00 %
04.04.2016 07:03 5,3 C 96 % 1007,4 hPa 0,0 l/m 3,4 km/h (1 Bft) S-SO 155 0 min 0,000 mm 0,0 UV-I 33 W/m 4,7 C 5,3 C 4,8 km/h (1 Bft) 95,83 %
04.04.2016 07:04 5,3 C 96 % 1007,4 hPa 0,0 l/m 3,4 km/h (1 Bft) S-SO 155 0 min 0,000 mm 0,0 UV-I 33 W/m 4,7 C 5,3 C 4,8 km/h (1 Bft) 95,65 %
04.04.2016 07:05 5,4 C 96 % 1007,4 hPa 0,0 l/m 1,7 km/h (1 Bft) S-SO 155 0 min 0,000 mm 0,0 UV-I 33 W/m 4,8 C 5,4 C 3,2 km/h (1 Bft) 100,00 %
04.04.2016 07:06 5,6 C 96 % 1007,5 hPa 0,0 l/m 0,0 km/h (0 Bft) S-SO 155 0 min 0,000 mm 0,0 UV-I 35 W/m 5,0 C 5,6 C 0,0 km/h (0 Bft) 100,00 %
04.04.2016 07:07 5,7 C 96 % 1007,5 hPa 0,0 l/m 0,0 km/h (0 Bft) S-SO 155 0 min 0,000 mm 0,0 UV-I 35 W/m 5,1 C 5,7 C 0,0 km/h (0 Bft) 100,00 %
04.04.2016 07:08 5,7 C 96 % 1007,5 hPa 0,0 l/m 0,5 km/h (0 Bft) S-SO 155 0 min 0,000 mm 0,0 UV-I 35 W/m 5,1 C 5,7 C 1,6 km/h (1 Bft) 86,96 %
04.04.2016 07:09 5,8 C 96 % 1007,5 hPa 0,0 l/m 1,5 km/h (1 Bft) S-SO 155 0 min 0,000 mm 0,0 UV-I 35 W/m 5,2 C 5,8 C 3,2 km/h (1 Bft) 100,00 %
04.04.2016 07:10 5,8 C 96 % 1007,5 hPa 0,0 l/m 1,5 km/h (1 Bft) S-SO 155 0 min 0,000 mm 0,0 UV-I 35 W/m 5,2 C 5,8 C 1,6 km/h (1 Bft) 100,00 %
04.04.2016 07:11 5,8 C 96 % 1007,5 hPa 0,0 l/m 1,4 km/h (1 Bft) S-SO 155 0 min 0,000 mm 0,0 UV-I 37 W/m 5,2 C 5,8 C 3,2 km/h (1 Bft) 100,00 %
04.04.2016 07:12 5,8 C 96 % 1007,5 hPa 0,0 l/m 0,1 km/h (0 Bft) S-SO 155 0 min 0,000 mm 0,0 UV-I 37 W/m 5,2 C 5,8 C 1,6 km/h (1 Bft) 91,30 %
04.04.2016 07:13 5,8 C 96 % 1007,5 hPa 0,0 l/m 0,0 km/h (0 Bft) S-SO 155 0 min 0,000 mm 0,0 UV-I 37 W/m 5,2 C 5,8 C 0,0 km/h (0 Bft) 100,00 %
04.04.2016 07:14 5,7 C 95 % 1007,5 hPa 0,0 l/m 0,0 km/h (0 Bft) S-SO 155 0 min 0,000 mm 0,0 UV-I 37 W/m 5,0 C 5,7 C 0,0 km/h (0 Bft) 100,00 %
04.04.2016 07:15 5,6 C 95 % 1007,6 hPa 0,0 l/m 1,6 km/h (1 Bft) S-SO 155 0 min 0,000 mm 0,0 UV-I 37 W/m 4,9 C 5,6 C 3,2 km/h (1 Bft) 95,83 %
04.04.2016 07:16 5,6 C 95 % 1007,6 hPa 0,0 l/m 2,7 km/h (1 Bft) S-SO 155 0 min 0,000 mm 0,0 UV-I 39 W/m 4,9 C 5,6 C 3,2 km/h (1 Bft) 100,00 %
04.04.2016 07:17 5,5 C 95 % 1007,6 hPa 0,0 l/m 3,7 km/h (1 Bft) S-SO 155 0 min 0,000 mm 0,0 UV-I 39 W/m 4,8 C 5,5 C 4,8 km/h (1 Bft) 100,00 %
04.04.2016 07:18 5,5 C 95 % 1007,6 hPa 0,0 l/m 3,5 km/h (1 Bft) S-SO 155 0 min 0,000 mm 0,0 UV-I 39 W/m 4,8 C 5,5 C 4,8 km/h (1 Bft) 100,00 %
04.04.2016 07:19 5,4 C 95 % 1007,6 hPa 0,0 l/m 1,9 km/h (1 Bft) S-SO 155 0 min 0,000 mm 0,0 UV-I 39 W/m 4,7 C 5,4 C 3,2 km/h (1 Bft) 100,00 %
04.04.2016 07:20 5,4 C 95 % 1007,6 hPa 0,0 l/m 1,0 km/h (0 Bft) S-SO 155 0 min 0,000 mm 0,0 UV-I 40 W/m 4,7 C 5,4 C 1,6 km/h (1 Bft) 100,00 %
04.04.2016 07:21 5,4 C 95 % 1007,6 hPa 0,0 l/m 1,3 km/h (1 Bft) S-SO 155 0 min 0,000 mm 0,0 UV-I 40 W/m 4,7 C 5,4 C 1,6 km/h (1 Bft) 100,00 %
04.04.2016 07:22 5,4 C 95 % 1007,6 hPa 0,0 l/m 0,1 km/h (0 Bft) S-SO 155 0 min 0,000 mm 0,0 UV-I 40 W/m 4,7 C 5,4 C 1,6 km/h (1 Bft) 100,00 %
04.04.2016 07:23 5,3 C 95 % 1007,6 hPa 0,0 l/m 0,0 km/h (0 Bft) S-SO 155 0 min 0,000 mm 0,0 UV-I 40 W/m 4,6 C 5,3 C 0,0 km/h (0 Bft) 95,65 %
04.04.2016 07:24 5,3 C 95 % 1007,6 hPa 0,0 l/m 0,0 km/h (0 Bft) S-SO 155 0 min 0,000 mm 0,0 UV-I 40 W/m 4,6 C 5,3 C 0,0 km/h (0 Bft) 100,00 %
04.04.2016 07:25 5,3 C 95 % 1007,6 hPa 0,0 l/m 0,5 km/h (0 Bft) S-SO 155 0 min 0,000 mm 0,0 UV-I 40 W/m 4,6 C 5,3 C 1,6 km/h (1 Bft) 100,00 %
04.04.2016 07:26 5,3 C 95 % 1007,6 hPa 0,0 l/m 0,7 km/h (0 Bft) S-SO 155 0 min 0,000 mm 0,0 UV-I 41 W/m 4,6 C 5,3 C 1,6 km/h (1 Bft) 100,00 %
04.04.2016 07:27 5,3 C 95 % 1007,6 hPa 0,0 l/m 0,0 km/h (0 Bft) S-SO 155 0 min 0,000 mm 0,0 UV-I 42 W/m 4,6 C 5,3 C 0,0 km/h (0 Bft) 95,65 %
04.04.2016 07:28 5,4 C 95 % 1007,5 hPa 0,0 l/m 0,0 km/h (0 Bft) S-SO 155 0 min 0,000 mm 0,0 UV-I 42 W/m 4,7 C 5,4 C 0,0 km/h (0 Bft) 100,00 %
04.04.2016 07:29 5,4 C 96 % 1007,5 hPa 0,0 l/m 0,1 km/h (0 Bft) S-SO 155 0 min 0,000 mm 0,0 UV-I 42 W/m 4,8 C 5,4 C 1,6 km/h (1 Bft) 95,65 %
04.04.2016 07:30 5,5 C 96 % 1007,5 hPa 0,0 l/m 1,2 km/h (1 Bft) S-SO 155 0 min 0,000 mm 0,0 UV-I 44 W/m 4,9 C 5,5 C 3,2 km/h (1 Bft) 100,00 %
04.04.2016 07:31 5,6 C 96 % 1007,5 hPa 0,0 l/m 1,7 km/h (1 Bft) S-SO 155 0 min 0,000 mm 0,0 UV-I 45 W/m 5,0 C 5,6 C 3,2 km/h (1 Bft) 100,00 %
04.04.2016 07:32 5,6 C 95 % 1007,5 hPa 0,0 l/m 1,7 km/h (1 Bft) S-SO 155 0 min 0,000 mm 0,0 UV-I 47 W/m 4,9 C 5,6 C 3,2 km/h (1 Bft) 100,00 %
04.04.2016 07:33 5,7 C 95 % 1007,5 hPa 0,0 l/m 2,4 km/h (1 Bft) S-SO 155 0 min 0,000 mm 0,0 UV-I 49 W/m 5,0 C 5,7 C 3,2 km/h (1 Bft) 100,00 %
04.04.2016 07:34 5,8 C 96 % 1007,5 hPa 0,0 l/m 3,1 km/h (1 Bft) S-SO 155 0 min 0,000 mm 0,0 UV-I 49 W/m 5,2 C 5,8 C 3,2 km/h (1 Bft) 100,00 %
04.04.2016 07:35 6,0 C 96 % 1007,5 hPa 0,0 l/m 2,9 km/h (1 Bft) S-SO 155 0 min 0,000 mm 0,0 UV-I 51 W/m 5,4 C 6,0 C 3,2 km/h (1 Bft) 95,65 %
04.04.2016 07:36 6,2 C 96 % 1007,4 hPa 0,0 l/m 3,4 km/h (1 Bft) S-SO 155 0 min 0,000 mm 0,0 UV-I 53 W/m 5,6 C 6,2 C 4,8 km/h (1 Bft) 95,83 %
04.04.2016 07:37 6,3 C 96 % 1007,4 hPa 0,0 l/m 3,0 km/h (1 Bft) S-SO 155 0 min 0,000 mm 0,0 UV-I 55 W/m 5,7 C 6,3 C 3,2 km/h (1 Bft) 100,00 %
04.04.2016 07:38 6,5 C 96 % 1007,4 hPa 0,0 l/m 2,9 km/h (1 Bft) S-SO 155 0 min 0,000 mm 0,0 UV-I 57 W/m 5,9 C 6,5 C 3,2 km/h (1 Bft) 100,00 %
04.04.2016 07:39 6,6 C 96 % 1007,5 hPa 0,0 l/m 3,7 km/h (1 Bft) O 82 0 min 0,000 mm 0,0 UV-I 60 W/m 6,0 C 6,6 C 4,8 km/h (1 Bft) 100,00 %
04.04.2016 07:40 6,8 C 96 % 1007,5 hPa 0,0 l/m 3,6 km/h (1 Bft) O 82 0 min 0,000 mm 0,0 UV-I 62 W/m 6,2 C 6,8 C 4,8 km/h (1 Bft) 100,00 %
04.04.2016 07:41 6,9 C 96 % 1007,5 hPa 0,0 l/m 3,2 km/h (1 Bft) O 82 0 min 0,000 mm 0,0 UV-I 63 W/m 6,3 C 6,9 C 4,8 km/h (1 Bft) 100,00 %
04.04.2016 07:42 7,0 C 96 % 1007,4 hPa 0,0 l/m 3,3 km/h (1 Bft) O 80 0 min 0,000 mm 0,0 UV-I 67 W/m 6,4 C 7,0 C 4,8 km/h (1 Bft) 96,15 %
04.04.2016 07:43 7,1 C 96 % 1007,4 hPa 0,0 l/m 3,4 km/h (1 Bft) O 80 0 min 0,000 mm 0,0 UV-I 70 W/m 6,5 C 7,1 C 4,8 km/h (1 Bft) 100,00 %
04.04.2016 07:44 7,1 C 96 % 1007,5 hPa 0,0 l/m 2,7 km/h (1 Bft) O 80 0 min 0,000 mm 0,0 UV-I 71 W/m 6,5 C 7,1 C 3,2 km/h (1 Bft) 100,00 %
04.04.2016 07:45 7,1 C 96 % 1007,5 hPa 0,0 l/m 1,5 km/h (1 Bft) O 81 0 min 0,000 mm 0,0 UV-I 75 W/m 6,5 C 7,1 C 3,2 km/h (1 Bft) 100,00 %
04.04.2016 07:46 7,1 C 95 % 1007,5 hPa 0,0 l/m 1,3 km/h (1 Bft) O 80 0 min 0,000 mm 0,0 UV-I 78 W/m 6,4 C 7,1 C 1,6 km/h (1 Bft) 100,00 %
04.04.2016 07:47 7,1 C 95 % 1007,5 hPa 0,0 l/m 0,2 km/h (0 Bft) O 81 0 min 0,000 mm 0,0 UV-I 82 W/m 6,4 C 7,1 C 1,6 km/h (1 Bft) 100,00 %
04.04.2016 07:48 7,1 C 95 % 1007,5 hPa 0,0 l/m 0,0 km/h (0 Bft) O 80 0 min 0,000 mm 0,0 UV-I 84 W/m 6,4 C 7,1 C 0,0 km/h (0 Bft) 100,00 %
04.04.2016 07:49 6,9 C 94 % 1007,5 hPa 0,0 l/m 0,0 km/h (0 Bft) O 80 0 min 0,000 mm 0,0 UV-I 88 W/m 6,0 C 6,9 C 0,0 km/h (0 Bft) 97,22 %
04.04.2016 07:50 6,8 C 93 % 1007,5 hPa 0,0 l/m 1,0 km/h (0 Bft) O 81 0 min 0,000 mm 0,0 UV-I 91 W/m 5,7 C 6,8 C 1,6 km/h (1 Bft) 100,00 %
04.04.2016 07:51 6,6 C 93 % 1007,5 hPa 0,0 l/m 0,2 km/h (0 Bft) O 80 0 min 0,000 mm 0,0 UV-I 93 W/m 5,6 C 6,6 C 1,6 km/h (1 Bft) 100,00 %
04.04.2016 07:52 6,4 C 92 % 1007,5 hPa 0,0 l/m 0,0 km/h (0 Bft) O 80 0 min 0,000 mm 0,0 UV-I 97 W/m 5,2 C 6,4 C 0,0 km/h (0 Bft) 100,00 %
04.04.2016 07:53 6,3 C 93 % 1007,4 hPa 0,0 l/m 0,8 km/h (0 Bft) O 80 0 min 0,000 mm 0,0 UV-I 101 W/m 5,3 C 6,3 C 1,6 km/h (1 Bft) 100,00 %
04.04.2016 07:54 6,3 C 93 % 1007,5 hPa 0,0 l/m 1,1 km/h (1 Bft) O 81 0 min 0,000 mm 0,0 UV-I 103 W/m 5,3 C 6,3 C 1,6 km/h (1 Bft) 100,00 %
04.04.2016 07:55 6,2 C 94 % 1007,4 hPa 0,0 l/m 1,6 km/h (1 Bft) O 80 0 min 0,000 mm 0,0 UV-I 107 W/m 5,3 C 6,2 C 1,6 km/h (1 Bft) 100,00 %
04.04.2016 07:56 6,3 C 94 % 1007,4 hPa 0,0 l/m 1,5 km/h (1 Bft) O 81 0 min 0,000 mm 0,0 UV-I 112 W/m 5,4 C 6,3 C 1,6 km/h (1 Bft) 100,00 %
04.04.2016 07:57 6,3 C 94 % 1007,5 hPa 0,0 l/m 0,4 km/h (0 Bft) O 81 0 min 0,000 mm 0,0 UV-I 114 W/m 5,4 C 6,3 C 1,6 km/h (1 Bft) 100,00 %
04.04.2016 07:58 6,3 C 94 % 1007,5 hPa 0,0 l/m 0,0 km/h (0 Bft) O 81 0 min 0,000 mm 0,0 UV-I 118 W/m 5,4 C 6,3 C 0,0 km/h (0 Bft) 95,65 %
04.04.2016 07:59 6,3 C 94 % 1007,5 hPa 0,0 l/m 0,1 km/h (0 Bft) O 80 0 min 0,000 mm 0,0 UV-I 122 W/m 5,4 C 6,3 C 1,6 km/h (1 Bft) 100,00 %
04.04.2016 08:00 6,3 C 94 % 1007,5 hPa 0,0 l/m 0,0 km/h (0 Bft) O 81 0 min 0,025 mm 0,0 UV-I 126 W/m 5,4 C 6,3 C 0,0 km/h (0 Bft) 100,00 %
04.04.2016 08:01 6,3 C 94 % 1007,6 hPa 0,0 l/m 0,0 km/h (0 Bft) O 80 1 min 0,000 mm 0,0 UV-I 132 W/m 5,4 C 6,3 C 0,0 km/h (0 Bft) 100,00 %
04.04.2016 08:02 6,3 C 94 % 1007,6 hPa 0,0 l/m 0,0 km/h (0 Bft) O 81 1 min 0,000 mm 0,0 UV-I 136 W/m 5,4 C 6,3 C 0,0 km/h (0 Bft) 100,00 %
04.04.2016 08:03 6,4 C 94 % 1007,6 hPa 0,0 l/m 0,0 km/h (0 Bft) O 80 1 min 0,000 mm 0,0 UV-I 139 W/m 5,5 C 6,4 C 0,0 km/h (0 Bft) 100,00 %
04.04.2016 08:04 6,5 C 95 % 1007,6 hPa 0,0 l/m 0,0 km/h (0 Bft) O 80 1 min 0,000 mm 0,0 UV-I 142 W/m 5,8 C 6,5 C 0,0 km/h (0 Bft) 100,00 %
04.04.2016 08:05 6,6 C 95 % 1007,6 hPa 0,0 l/m 0,0 km/h (0 Bft) O 80 1 min 0,000 mm 0,0 UV-I 145 W/m 5,9 C 6,6 C 0,0 km/h (0 Bft) 100,00 %
04.04.2016 08:06 6,7 C 95 % 1007,6 hPa 0,0 l/m 0,0 km/h (0 Bft) O 81 1 min 0,000 mm 0,0 UV-I 147 W/m 6,0 C 6,7 C 0,0 km/h (0 Bft) 100,00 %
04.04.2016 08:07 6,8 C 95 % 1007,5 hPa 0,0 l/m 0,0 km/h (0 Bft) O 81 1 min 0,000 mm 0,0 UV-I 149 W/m 6,1 C 6,8 C 0,0 km/h (0 Bft) 95,65 %
04.04.2016 08:08 6,9 C 95 % 1007,5 hPa 0,0 l/m 0,0 km/h (0 Bft) O 81 1 min 0,000 mm 0,0 UV-I 149 W/m 6,2 C 6,9 C 0,0 km/h (0 Bft) 95,83 %
04.04.2016 08:09 7,0 C 95 % 1007,5 hPa 0,0 l/m 0,0 km/h (0 Bft) O 80 1 min 0,000 mm 0,0 UV-I 151 W/m 6,3 C 7,0 C 0,0 km/h (0 Bft) 95,65 %
04.04.2016 08:10 7,1 C 94 % 1007,6 hPa 0,0 l/m 0,0 km/h (0 Bft) O 80 1 min 0,000 mm 0,0 UV-I 151 W/m 6,2 C 7,1 C 0,0 km/h (0 Bft) 100,00 %
04.04.2016 08:11 7,1 C 95 % 1007,6 hPa 0,0 l/m 0,0 km/h (0 Bft) O 80 1 min 0,000 mm 0,0 UV-I 152 W/m 6,4 C 7,1 C 0,0 km/h (0 Bft) 95,65 %
04.04.2016 08:12 7,2 C 95 % 1007,6 hPa 0,0 l/m 0,0 km/h (0 Bft) O 80 1 min 0,000 mm 0,0 UV-I 153 W/m 6,5 C 7,2 C 0,0 km/h (0 Bft) 95,83 %
04.04.2016 08:13 7,3 C 95 % 1007,6 hPa 0,0 l/m 0,0 km/h (0 Bft) O 81 1 min 0,000 mm 0,0 UV-I 153 W/m 6,6 C 7,3 C 0,0 km/h (0 Bft) 91,30 %
04.04.2016 08:14 7,4 C 95 % 1007,7 hPa 0,0 l/m 0,0 km/h (0 Bft) O 81 1 min 0,000 mm 0,0 UV-I 151 W/m 6,7 C 7,4 C 0,0 km/h (0 Bft) 95,83 %
04.04.2016 08:15 7,5 C 94 % 1007,7 hPa 0,0 l/m 0,0 km/h (0 Bft) O 80 1 min 0,000 mm 0,0 UV-I 151 W/m 6,6 C 7,5 C 0,0 km/h (0 Bft) 95,65 %
04.04.2016 08:16 7,6 C 95 % 1007,7 hPa 0,0 l/m 0,0 km/h (0 Bft) O 80 0 min 0,000 mm 0,0 UV-I 150 W/m 6,9 C 7,6 C 0,0 km/h (0 Bft) 100,00 %
04.04.2016 08:17 7,7 C 95 % 1007,7 hPa 0,0 l/m 0,0 km/h (0 Bft) O 80 0 min 0,000 mm 0,0 UV-I 148 W/m 7,0 C 7,7 C 0,0 km/h (0 Bft) 100,00 %
04.04.2016 08:18 7,7 C 94 % 1007,7 hPa 0,0 l/m 0,0 km/h (0 Bft) O 80 0 min 0,000 mm 0,0 UV-I 150 W/m 6,8 C 7,7 C 0,0 km/h (0 Bft) 95,65 %
04.04.2016 08:19 7,7 C 93 % 1007,7 hPa 0,0 l/m 0,0 km/h (0 Bft) O 81 0 min 0,000 mm 0,0 UV-I 149 W/m 6,6 C 7,7 C 0,0 km/h (0 Bft) 100,00 %
04.04.2016 08:20 7,7 C 93 % 1007,7 hPa 0,0 l/m 0,0 km/h (0 Bft) O 81 0 min 0,000 mm 0,0 UV-I 146 W/m 6,6 C 7,7 C 0,0 km/h (0 Bft) 95,65 %
04.04.2016 08:21 7,7 C 93 % 1007,8 hPa 0,0 l/m 0,0 km/h (0 Bft) O 80 0 min 0,000 mm 0,0 UV-I 145 W/m 6,6 C 7,7 C 0,0 km/h (0 Bft) 96,30 %
04.04.2016 08:22 7,7 C 93 % 1007,7 hPa 0,0 l/m 0,0 km/h (0 Bft) O 80 0 min 0,000 mm 0,0 UV-I 142 W/m 6,6 C 7,7 C 0,0 km/h (0 Bft) 100,00 %
04.04.2016 08:23 7,7 C 92 % 1007,7 hPa 0,0 l/m 0,0 km/h (0 Bft) O 81 0 min 0,000 mm 0,0 UV-I 146 W/m 6,5 C 7,7 C 0,0 km/h (0 Bft) 95,83 %
04.04.2016 08:24 7,7 C 92 % 1007,8 hPa 0,0 l/m 0,0 km/h (0 Bft) O 80 0 min 0,000 mm 0,0 UV-I 147 W/m 6,5 C 7,7 C 0,0 km/h (0 Bft) 100,00 %
04.04.2016 08:25 7,7 C 92 % 1007,8 hPa 0,0 l/m 0,0 km/h (0 Bft) O 81 0 min 0,000 mm 0,0 UV-I 138 W/m 6,5 C 7,7 C 0,0 km/h (0 Bft) 95,83 %
04.04.2016 08:26 7,7 C 92 % 1007,7 hPa 0,0 l/m 0,7 km/h (0 Bft) O 81 0 min 0,000 mm 0,0 UV-I 136 W/m 6,5 C 7,7 C 1,6 km/h (1 Bft) 100,00 %
04.04.2016 08:27 7,7 C 93 % 1007,7 hPa 0,0 l/m 1,9 km/h (1 Bft) O 81 0 min 0,000 mm 0,0 UV-I 150 W/m 6,6 C 7,7 C 3,2 km/h (1 Bft) 95,83 %
04.04.2016 08:28 7,7 C 93 % 1007,7 hPa 0,0 l/m 0,6 km/h (0 Bft) O 81 0 min 0,000 mm 0,0 UV-I 166 W/m 6,6 C 7,7 C 1,6 km/h (1 Bft) 96,15 %
04.04.2016 08:29 7,7 C 93 % 1007,6 hPa 0,0 l/m 0,0 km/h (0 Bft) O 81 0 min 0,000 mm 0,0 UV-I 169 W/m 6,6 C 7,7 C 0,0 km/h (0 Bft) 100,00 %
04.04.2016 08:30 7,7 C 92 % 1007,7 hPa 0,0 l/m 0,0 km/h (0 Bft) O 81 0 min 0,000 mm 0,0 UV-I 172 W/m 6,5 C 7,7 C 0,0 km/h (0 Bft) 95,65 %
04.04.2016 08:31 7,8 C 93 % 1007,7 hPa 0,0 l/m 0,0 km/h (0 Bft) O 81 1 min 0,000 mm 0,0 UV-I 177 W/m 6,7 C 7,8 C 0,0 km/h (0 Bft) 100,00 %
04.04.2016 08:32 7,8 C 93 % 1007,7 hPa 0,0 l/m 0,7 km/h (0 Bft) O 81 1 min 0,000 mm 0,0 UV-I 179 W/m 6,7 C 7,8 C 1,6 km/h (1 Bft) 95,65 %
04.04.2016 08:33 7,9 C 93 % 1007,7 hPa 0,0 l/m 1,3 km/h (1 Bft) O 80 1 min 0,000 mm 0,0 UV-I 184 W/m 6,8 C 7,9 C 1,6 km/h (1 Bft) 95,83 %
04.04.2016 08:34 8,1 C 94 % 1007,7 hPa 0,0 l/m 1,2 km/h (1 Bft) O 81 1 min 0,000 mm 0,0 UV-I 188 W/m 7,2 C 8,1 C 3,2 km/h (1 Bft) 95,65 %
04.04.2016 08:35 8,2 C 93 % 1007,7 hPa 0,0 l/m 0,0 km/h (0 Bft) O 80 1 min 0,000 mm 0,0 UV-I 195 W/m 7,1 C 8,2 C 0,0 km/h (0 Bft) 95,83 %
04.04.2016 08:36 8,3 C 93 % 1007,6 hPa 0,0 l/m 0,0 km/h (0 Bft) O 80 1 min 0,000 mm 0,0 UV-I 199 W/m 7,2 C 8,3 C 0,0 km/h (0 Bft) 100,00 %
04.04.2016 08:37 8,4 C 92 % 1007,6 hPa 0,0 l/m 0,0 km/h (0 Bft) O 80 1 min 0,000 mm 0,0 UV-I 201 W/m 7,2 C 8,4 C 0,0 km/h (0 Bft) 95,83 %
04.04.2016 08:38 8,5 C 92 % 1007,7 hPa 0,0 l/m 0,0 km/h (0 Bft) O 80 1 min 0,000 mm 0,0 UV-I 208 W/m 7,3 C 8,5 C 0,0 km/h (0 Bft) 100,00 %
04.04.2016 08:39 8,6 C 91 % 1007,6 hPa 0,0 l/m 0,3 km/h (0 Bft) O 80 1 min 0,000 mm 0,0 UV-I 211 W/m 7,2 C 8,6 C 1,6 km/h (1 Bft) 91,67 %
04.04.2016 08:40 8,6 C 91 % 1007,6 hPa 0,0 l/m 0,0 km/h (0 Bft) O 80 1 min 0,000 mm 0,0 UV-I 212 W/m 7,2 C 8,6 C 0,0 km/h (0 Bft) 100,00 %
04.04.2016 08:41 8,7 C 91 % 1007,6 hPa 0,0 l/m 0,0 km/h (0 Bft) O 80 1 min 0,000 mm 0,1 UV-I 211 W/m 7,3 C 8,7 C 0,0 km/h (0 Bft) 95,65 %
04.04.2016 08:42 8,7 C 91 % 1007,6 hPa 0,0 l/m 0,0 km/h (0 Bft) O 80 1 min 0,000 mm 0,5 UV-I 211 W/m 7,3 C 8,7 C 0,0 km/h (0 Bft) 100,00 %
04.04.2016 08:43 8,8 C 91 % 1007,6 hPa 0,0 l/m 0,0 km/h (0 Bft) O 81 1 min 0,000 mm 0,5 UV-I 207 W/m 7,4 C 8,8 C 0,0 km/h (0 Bft) 95,65 %
04.04.2016 08:44 8,8 C 91 % 1007,6 hPa 0,0 l/m 0,0 km/h (0 Bft) O 80 0 min 0,000 mm 0,5 UV-I 175 W/m 7,4 C 8,8 C 0,0 km/h (0 Bft) 100,00 %
04.04.2016 08:45 8,8 C 91 % 1007,6 hPa 0,0 l/m 0,0 km/h (0 Bft) O 80 0 min 0,000 mm 0,5 UV-I 170 W/m 7,4 C 8,8 C 0,0 km/h (0 Bft) 95,65 %
04.04.2016 08:46 8,9 C 91 % 1007,7 hPa 0,0 l/m 0,0 km/h (0 Bft) O 80 0 min 0,000 mm 0,5 UV-I 186 W/m 7,5 C 8,9 C 0,0 km/h (0 Bft) 91,67 %
04.04.2016 08:47 8,9 C 91 % 1007,7 hPa 0,0 l/m 0,0 km/h (0 Bft) O 80 0 min 0,000 mm 0,5 UV-I 197 W/m 7,5 C 8,9 C 0,0 km/h (0 Bft) 95,65 %
04.04.2016 08:48 9,0 C 91 % 1007,7 hPa 0,0 l/m 0,0 km/h (0 Bft) O 81 1 min 0,000 mm 0,5 UV-I 228 W/m 7,6 C 9,0 C 0,0 km/h (0 Bft) 95,83 %
04.04.2016 08:49 9,0 C 91 % 1007,7 hPa 0,0 l/m 0,0 km/h (0 Bft) O 81 1 min 0,000 mm 0,5 UV-I 240 W/m 7,6 C 9,0 C 0,0 km/h (0 Bft) 100,00 %
04.04.2016 08:50 9,1 C 91 % 1007,7 hPa 0,0 l/m 0,0 km/h (0 Bft) O 80 1 min 0,000 mm 0,5 UV-I 249 W/m 7,7 C 9,1 C 0,0 km/h (0 Bft) 100,00 %
04.04.2016 08:51 9,2 C 90 % 1007,7 hPa 0,0 l/m 0,0 km/h (0 Bft) O 80 1 min 0,000 mm 0,6 UV-I 255 W/m 7,6 C 9,2 C 0,0 km/h (0 Bft) 100,00 %
04.04.2016 08:52 9,3 C 90 % 1007,7 hPa 0,0 l/m 0,0 km/h (0 Bft) O 80 1 min 0,000 mm 0,6 UV-I 257 W/m 7,7 C 9,3 C 0,0 km/h (0 Bft) 100,00 %
04.04.2016 08:53 9,3 C 90 % 1007,7 hPa 0,0 l/m 0,0 km/h (0 Bft) O 81 1 min 0,000 mm 0,6 UV-I 260 W/m 7,7 C 9,3 C 0,0 km/h (0 Bft) 95,65 %
04.04.2016 08:54 9,4 C 90 % 1007,7 hPa 0,0 l/m 0,0 km/h (0 Bft) O 81 1 min 0,000 mm 0,6 UV-I 268 W/m 7,8 C 9,4 C 0,0 km/h (0 Bft) 100,00 %
04.04.2016 08:55 9,5 C 89 % 1007,7 hPa 0,0 l/m 0,4 km/h (0 Bft) O 80 1 min 0,000 mm 0,6 UV-I 273 W/m 7,8 C 9,5 C 1,6 km/h (1 Bft) 100,00 %
04.04.2016 08:56 9,6 C 89 % 1007,8 hPa 0,0 l/m 0,5 km/h (0 Bft) O 80 1 min 0,000 mm 0,6 UV-I 276 W/m 7,9 C 9,6 C 1,6 km/h (1 Bft) 100,00 %
04.04.2016 08:57 9,6 C 89 % 1007,8 hPa 0,0 l/m 0,6 km/h (0 Bft) O 81 1 min 0,000 mm 0,6 UV-I 280 W/m 7,9 C 9,6 C 1,6 km/h (1 Bft) 100,00 %
04.04.2016 08:58 9,6 C 89 % 1007,8 hPa 0,0 l/m 0,0 km/h (0 Bft) O 80 1 min 0,000 mm 0,7 UV-I 282 W/m 7,9 C 9,6 C 0,0 km/h (0 Bft) 100,00 %
04.04.2016 08:59 9,7 C 89 % 1007,8 hPa 0,0 l/m 0,0 km/h (0 Bft) O 81 1 min 0,000 mm 0,7 UV-I 279 W/m 8,0 C 9,7 C 0,0 km/h (0 Bft) 100,00 %
04.04.2016 09:00 9,7 C 88 % 1007,8 hPa 0,0 l/m 0,0 km/h (0 Bft) O 80 1 min 0,000 mm 0,7 UV-I 282 W/m 7,8 C 9,7 C 0,0 km/h (0 Bft) 100,00 %
04.04.2016 09:01 9,8 C 88 % 1007,8 hPa 0,0 l/m 0,2 km/h (0 Bft) O 80 1 min 0,077 mm 0,7 UV-I 281 W/m 7,9 C 9,8 C 1,6 km/h (1 Bft) 100,00 %
04.04.2016 09:02 9,8 C 88 % 1007,8 hPa 0,0 l/m 0,1 km/h (0 Bft) O 80 1 min 0,000 mm 0,7 UV-I 286 W/m 7,9 C 9,8 C 1,6 km/h (1 Bft) 96,15 %
04.04.2016 09:03 9,8 C 88 % 1007,8 hPa 0,0 l/m 0,1 km/h (0 Bft) O 81 1 min 0,000 mm 0,7 UV-I 280 W/m 7,9 C 9,8 C 1,6 km/h (1 Bft) 100,00 %
04.04.2016 09:04 9,8 C 89 % 1007,8 hPa 0,0 l/m 0,5 km/h (0 Bft) O 81 1 min 0,000 mm 0,7 UV-I 275 W/m 8,1 C 9,8 C 3,2 km/h (1 Bft) 95,65 %
04.04.2016 09:05 9,8 C 89 % 1007,8 hPa 0,0 l/m 0,7 km/h (0 Bft) O 80 1 min 0,000 mm 0,7 UV-I 277 W/m 8,1 C 9,8 C 3,2 km/h (1 Bft) 100,00 %
04.04.2016 09:06 9,9 C 89 % 1007,8 hPa 0,0 l/m 0,1 km/h (0 Bft) O 81 1 min 0,000 mm 0,7 UV-I 292 W/m 8,2 C 9,9 C 1,6 km/h (1 Bft) 100,00 %
04.04.2016 09:07 10,1 C 88 % 1007,8 hPa 0,0 l/m 0,5 km/h (0 Bft) O 81 1 min 0,000 mm 0,8 UV-I 303 W/m 8,2 C 10,1 C 1,6 km/h (1 Bft) 100,00 %
04.04.2016 09:08 10,2 C 88 % 1007,8 hPa 0,0 l/m 0,6 km/h (0 Bft) O 80 1 min 0,000 mm 0,8 UV-I 307 W/m 8,3 C 10,2 C 1,6 km/h (1 Bft) 100,00 %
04.04.2016 09:09 10,2 C 87 % 1007,8 hPa 0,0 l/m 2,4 km/h (1 Bft) O 80 1 min 0,000 mm 0,8 UV-I 302 W/m 8,1 C 10,2 C 4,8 km/h (1 Bft) 100,00 %
04.04.2016 09:10 10,3 C 88 % 1007,8 hPa 0,0 l/m 3,3 km/h (1 Bft) O 80 1 min 0,000 mm 0,8 UV-I 304 W/m 8,4 C 10,3 C 4,8 km/h (1 Bft) 100,00 %
04.04.2016 09:11 10,4 C 87 % 1007,8 hPa 0,0 l/m 1,8 km/h (1 Bft) O 80 1 min 0,000 mm 0,8 UV-I 308 W/m 8,3 C 10,4 C 3,2 km/h (1 Bft) 100,00 %
04.04.2016 09:12 10,4 C 86 % 1007,8 hPa 0,0 l/m 1,3 km/h (1 Bft) O 80 1 min 0,000 mm 0,9 UV-I 319 W/m 8,2 C 10,4 C 3,2 km/h (1 Bft) 100,00 %
04.04.2016 09:13 10,6 C 87 % 1007,8 hPa 0,0 l/m 2,5 km/h (1 Bft) O 80 1 min 0,000 mm 0,9 UV-I 322 W/m 8,5 C 10,6 C 3,2 km/h (1 Bft) 100,00 %
04.04.2016 09:14 10,6 C 87 % 1007,8 hPa 0,0 l/m 3,6 km/h (1 Bft) O 80 1 min 0,000 mm 0,9 UV-I 321 W/m 8,5 C 10,6 C 4,8 km/h (1 Bft) 100,00 %
04.04.2016 09:15 10,7 C 87 % 1007,8 hPa 0,0 l/m 4,5 km/h (1 Bft) NO 37 1 min 0,000 mm 0,9 UV-I 330 W/m 8,6 C 10,7 C 8,0 km/h (2 Bft) 95,83 %
04.04.2016 09:16 10,7 C 87 % 1007,8 hPa 0,0 l/m 7,0 km/h (2 Bft) NO 44 1 min 0,000 mm 0,9 UV-I 337 W/m 8,6 C 10,3 C 8,0 km/h (2 Bft) 100,00 %
04.04.2016 09:17 10,8 C 86 % 1007,8 hPa 0,0 l/m 6,4 km/h (2 Bft) NO 38 1 min 0,000 mm 0,9 UV-I 342 W/m 8,6 C 10,8 C 8,0 km/h (2 Bft) 100,00 %
04.04.2016 09:18 10,8 C 86 % 1007,8 hPa 0,0 l/m 5,8 km/h (2 Bft) NO 55 1 min 0,000 mm 0,9 UV-I 345 W/m 8,6 C 10,8 C 8,0 km/h (2 Bft) 95,83 %
04.04.2016 09:19 10,9 C 86 % 1007,8 hPa 0,0 l/m 5,8 km/h (2 Bft) NO 55 1 min 0,000 mm 0,9 UV-I 344 W/m 8,7 C 10,9 C 8,0 km/h (2 Bft) 95,65 %
04.04.2016 09:20 10,9 C 85 % 1007,8 hPa 0,0 l/m 4,9 km/h (1 Bft) NO 44 1 min 0,000 mm 1,0 UV-I 354 W/m 8,5 C 10,9 C 6,4 km/h (2 Bft) 100,00 %
04.04.2016 09:21 10,9 C 84 % 1007,8 hPa 0,0 l/m 5,2 km/h (1 Bft) NO 51 1 min 0,000 mm 1,0 UV-I 361 W/m 8,3 C 10,9 C 6,4 km/h (2 Bft) 100,00 %
04.04.2016 09:22 10,9 C 84 % 1007,8 hPa 0,0 l/m 5,4 km/h (1 Bft) O-NO 62 1 min 0,000 mm 1,0 UV-I 362 W/m 8,3 C 10,9 C 6,4 km/h (2 Bft) 100,00 %
04.04.2016 09:23 10,9 C 84 % 1007,8 hPa 0,0 l/m 5,0 km/h (1 Bft) O-NO 72 1 min 0,000 mm 1,0 UV-I 364 W/m 8,3 C 10,9 C 6,4 km/h (2 Bft) 95,65 %
04.04.2016 09:24 10,9 C 83 % 1007,8 hPa 0,0 l/m 5,5 km/h (1 Bft) NO 49 1 min 0,000 mm 1,0 UV-I 370 W/m 8,1 C 10,9 C 6,4 km/h (2 Bft) 100,00 %
04.04.2016 09:25 10,9 C 84 % 1007,8 hPa 0,0 l/m 3,3 km/h (1 Bft) NO 52 1 min 0,000 mm 1,0 UV-I 366 W/m 8,3 C 10,9 C 6,4 km/h (2 Bft) 95,65 %
04.04.2016 09:26 10,9 C 83 % 1007,8 hPa 0,0 l/m 5,1 km/h (1 Bft) NO 52 1 min 0,000 mm 1,0 UV-I 363 W/m 8,1 C 10,9 C 6,4 km/h (2 Bft) 95,83 %
04.04.2016 09:27 11,0 C 85 % 1007,8 hPa 0,0 l/m 4,8 km/h (1 Bft) NO 52 1 min 0,000 mm 1,0 UV-I 371 W/m 8,6 C 11,0 C 6,4 km/h (2 Bft) 100,00 %
04.04.2016 09:28 11,1 C 84 % 1007,8 hPa 0,0 l/m 4,4 km/h (1 Bft) NO 50 1 min 0,000 mm 1,0 UV-I 366 W/m 8,5 C 11,1 C 6,4 km/h (2 Bft) 100,00 %
04.04.2016 09:29 11,1 C 84 % 1007,8 hPa 0,0 l/m 3,3 km/h (1 Bft) NO 50 1 min 0,000 mm 1,0 UV-I 359 W/m 8,5 C 11,1 C 4,8 km/h (1 Bft) 100,00 %
04.04.2016 09:30 11,1 C 85 % 1007,8 hPa 0,0 l/m 2,4 km/h (1 Bft) NO 50 1 min 0,000 mm 1,1 UV-I 368 W/m 8,7 C 11,1 C 3,2 km/h (1 Bft) 96,67 %
04.04.2016 09:31 11,2 C 85 % 1007,8 hPa 0,0 l/m 3,8 km/h (1 Bft) NO 50 1 min 0,000 mm 1,1 UV-I 382 W/m 8,8 C 11,2 C 4,8 km/h (1 Bft) 95,65 %
04.04.2016 09:32 11,2 C 85 % 1007,7 hPa 0,0 l/m 2,6 km/h (1 Bft) NO 50 1 min 0,000 mm 1,1 UV-I 386 W/m 8,8 C 11,2 C 4,8 km/h (1 Bft) 100,00 %
04.04.2016 09:33 11,2 C 84 % 1007,7 hPa 0,0 l/m 2,8 km/h (1 Bft) NO 50 1 min 0,000 mm 1,1 UV-I 383 W/m 8,6 C 11,2 C 4,8 km/h (1 Bft) 100,00 %
04.04.2016 09:34 11,2 C 84 % 1007,8 hPa 0,0 l/m 3,2 km/h (1 Bft) NO 50 1 min 0,000 mm 1,1 UV-I 380 W/m 8,6 C 11,2 C 4,8 km/h (1 Bft) 100,00 %
04.04.2016 09:35 11,3 C 85 % 1007,8 hPa 0,0 l/m 3,1 km/h (1 Bft) NO 50 1 min 0,000 mm 1,1 UV-I 384 W/m 8,9 C 11,3 C 4,8 km/h (1 Bft) 100,00 %
04.04.2016 09:36 11,3 C 84 % 1007,8 hPa 0,0 l/m 3,7 km/h (1 Bft) NO 50 1 min 0,000 mm 1,1 UV-I 385 W/m 8,7 C 11,3 C 4,8 km/h (1 Bft) 100,00 %
04.04.2016 09:37 11,3 C 84 % 1007,7 hPa 0,0 l/m 4,3 km/h (1 Bft) NO 51 1 min 0,000 mm 1,2 UV-I 387 W/m 8,7 C 11,3 C 6,4 km/h (2 Bft) 100,00 %
04.04.2016 09:38 11,4 C 85 % 1007,8 hPa 0,0 l/m 4,2 km/h (1 Bft) NO 51 1 min 0,000 mm 1,2 UV-I 390 W/m 9,0 C 11,4 C 6,4 km/h (2 Bft) 100,00 %
04.04.2016 09:39 11,4 C 84 % 1007,8 hPa 0,0 l/m 2,9 km/h (1 Bft) NO 51 1 min 0,000 mm 1,2 UV-I 396 W/m 8,8 C 11,4 C 4,8 km/h (1 Bft) 95,83 %
04.04.2016 09:40 11,5 C 84 % 1007,8 hPa 0,0 l/m 2,5 km/h (1 Bft) NO 51 1 min 0,000 mm 1,2 UV-I 409 W/m 8,9 C 11,5 C 3,2 km/h (1 Bft) 100,00 %
04.04.2016 09:41 11,6 C 85 % 1007,8 hPa 0,0 l/m 0,4 km/h (0 Bft) NO 51 1 min 0,000 mm 1,2 UV-I 416 W/m 9,2 C 11,6 C 3,2 km/h (1 Bft) 100,00 %
04.04.2016 09:42 11,7 C 84 % 1007,9 hPa 0,0 l/m 2,7 km/h (1 Bft) NO 49 1 min 0,000 mm 1,2 UV-I 415 W/m 9,1 C 11,7 C 6,4 km/h (2 Bft) 95,65 %
04.04.2016 09:43 11,8 C 84 % 1007,9 hPa 0,0 l/m 2,8 km/h (1 Bft) NO 49 1 min 0,000 mm 1,3 UV-I 417 W/m 9,2 C 11,8 C 4,8 km/h (1 Bft) 95,83 %
04.04.2016 09:44 11,8 C 82 % 1007,9 hPa 0,0 l/m 3,8 km/h (1 Bft) NO 49 1 min 0,000 mm 1,3 UV-I 417 W/m 8,8 C 11,8 C 4,8 km/h (1 Bft) 100,00 %
04.04.2016 09:45 11,8 C 83 % 1007,9 hPa 0,0 l/m 3,3 km/h (1 Bft) NO 49 1 min 0,000 mm 1,3 UV-I 423 W/m 9,0 C 11,8 C 4,8 km/h (1 Bft) 91,67 %
04.04.2016 09:46 11,9 C 82 % 1007,9 hPa 0,0 l/m 3,1 km/h (1 Bft) NO 49 1 min 0,000 mm 1,3 UV-I 422 W/m 8,9 C 11,9 C 4,8 km/h (1 Bft) 100,00 %
04.04.2016 09:47 12,0 C 80 % 1007,9 hPa 0,0 l/m 1,8 km/h (1 Bft) NO 49 1 min 0,000 mm 1,3 UV-I 424 W/m 8,7 C 12,0 C 3,2 km/h (1 Bft) 100,00 %
04.04.2016 09:48 12,0 C 81 % 1007,9 hPa 0,0 l/m 0,3 km/h (0 Bft) NO 49 1 min 0,000 mm 1,3 UV-I 424 W/m 8,8 C 12,0 C 1,6 km/h (1 Bft) 95,65 %
04.04.2016 09:49 12,1 C 81 % 1007,9 hPa 0,0 l/m 0,9 km/h (0 Bft) NO 49 1 min 0,000 mm 1,3 UV-I 437 W/m 8,9 C 12,1 C 3,2 km/h (1 Bft) 100,00 %
04.04.2016 09:50 12,1 C 82 % 1007,9 hPa 0,0 l/m 2,5 km/h (1 Bft) NO 49 1 min 0,000 mm 1,4 UV-I 436 W/m 9,1 C 12,1 C 4,8 km/h (1 Bft) 100,00 %
04.04.2016 09:51 12,2 C 80 % 1007,9 hPa 0,0 l/m 2,5 km/h (1 Bft) NO 49 1 min 0,000 mm 1,4 UV-I 444 W/m 8,9 C 12,2 C 4,8 km/h (1 Bft) 100,00 %
04.04.2016 09:52 12,2 C 80 % 1007,9 hPa 0,0 l/m 2,0 km/h (1 Bft) NO 48 1 min 0,000 mm 1,4 UV-I 443 W/m 8,9 C 12,2 C 4,8 km/h (1 Bft) 96,15 %
04.04.2016 09:53 12,3 C 80 % 1007,9 hPa 0,0 l/m 1,3 km/h (1 Bft) NO 48 1 min 0,000 mm 1,4 UV-I 448 W/m 8,9 C 12,3 C 3,2 km/h (1 Bft) 100,00 %
04.04.2016 09:54 12,4 C 77 % 1007,9 hPa 0,0 l/m 0,6 km/h (0 Bft) NO 48 1 min 0,000 mm 1,5 UV-I 450 W/m 8,5 C 12,4 C 1,6 km/h (1 Bft) 100,00 %
04.04.2016 09:55 12,4 C 78 % 1007,9 hPa 0,0 l/m 0,9 km/h (0 Bft) NO 48 1 min 0,000 mm 1,5 UV-I 460 W/m 8,7 C 12,4 C 3,2 km/h (1 Bft) 100,00 %
04.04.2016 09:56 12,5 C 80 % 1007,9 hPa 0,0 l/m 1,6 km/h (1 Bft) NO 48 1 min 0,000 mm 1,5 UV-I 468 W/m 9,1 C 12,5 C 3,2 km/h (1 Bft) 100,00 %
04.04.2016 09:57 12,5 C 78 % 1008,0 hPa 0,0 l/m 0,4 km/h (0 Bft) NO 48 1 min 0,000 mm 1,5 UV-I 470 W/m 8,8 C 12,5 C 1,6 km/h (1 Bft) 100,00 %
04.04.2016 09:58 12,6 C 78 % 1007,9 hPa 0,0 l/m 2,1 km/h (1 Bft) NO 48 1 min 0,000 mm 1,5 UV-I 472 W/m 8,9 C 12,6 C 3,2 km/h (1 Bft) 100,00 %
04.04.2016 09:59 12,6 C 78 % 1008,0 hPa 0,0 l/m 2,5 km/h (1 Bft) NO 48 1 min 0,000 mm 1,6 UV-I 467 W/m 8,9 C 12,6 C 3,2 km/h (1 Bft) 100,00 %
04.04.2016 10:00 12,7 C 78 % 1008,0 hPa 0,0 l/m 2,1 km/h (1 Bft) NO 48 1 min 0,177 mm 1,6 UV-I 475 W/m 9,0 C 12,7 C 3,2 km/h (1 Bft) 100,00 %
04.04.2016 10:01 12,7 C 78 % 1007,9 hPa 0,0 l/m 3,4 km/h (1 Bft) NO 48 1 min 0,000 mm 1,6 UV-I 477 W/m 9,0 C 12,7 C 4,8 km/h (1 Bft) 100,00 %
04.04.2016 10:02 12,8 C 79 % 1007,9 hPa 0,0 l/m 3,4 km/h (1 Bft) NO 48 1 min 0,000 mm 1,6 UV-I 481 W/m 9,2 C 12,8 C 4,8 km/h (1 Bft) 100,00 %
04.04.2016 10:03 12,8 C 78 % 1007,9 hPa 0,0 l/m 1,5 km/h (1 Bft) NO 48 1 min 0,000 mm 1,6 UV-I 481 W/m 9,1 C 12,8 C 3,2 km/h (1 Bft) 95,65 %
04.04.2016 10:04 12,9 C 76 % 1007,9 hPa 0,0 l/m 2,3 km/h (1 Bft) NO 48 1 min 0,000 mm 1,6 UV-I 482 W/m 8,8 C 12,9 C 3,2 km/h (1 Bft) 100,00 %
04.04.2016 10:05 12,9 C 78 % 1007,9 hPa 0,0 l/m 0,8 km/h (0 Bft) NO 48 1 min 0,000 mm 1,7 UV-I 489 W/m 9,2 C 12,9 C 3,2 km/h (1 Bft) 100,00 %
04.04.2016 10:06 12,9 C 77 % 1007,9 hPa 0,0 l/m 0,1 km/h (0 Bft) NO 48 1 min 0,000 mm 1,7 UV-I 486 W/m 9,0 C 12,9 C 1,6 km/h (1 Bft) 100,00 %
04.04.2016 10:07 13,0 C 77 % 1007,9 hPa 0,0 l/m 0,3 km/h (0 Bft) NO 48 1 min 0,000 mm 1,7 UV-I 483 W/m 9,1 C 13,0 C 1,6 km/h (1 Bft) 100,00 %
04.04.2016 10:08 13,1 C 78 % 1007,9 hPa 0,0 l/m 0,0 km/h (0 Bft) NO 48 1 min 0,000 mm 1,7 UV-I 483 W/m 9,4 C 13,1 C 0,0 km/h (0 Bft) 100,00 %
04.04.2016 10:09 13,2 C 78 % 1007,9 hPa 0,0 l/m 0,5 km/h (0 Bft) NO 48 1 min 0,000 mm 1,7 UV-I 482 W/m 9,4 C 13,2 C 1,6 km/h (1 Bft) 100,00 %
04.04.2016 10:10 13,3 C 77 % 1007,9 hPa 0,0 l/m 0,5 km/h (0 Bft) NO 48 1 min 0,000 mm 1,7 UV-I 480 W/m 9,4 C 13,3 C 1,6 km/h (1 Bft) 95,83 %
04.04.2016 10:11 13,3 C 75 % 1008,0 hPa 0,0 l/m 0,3 km/h (0 Bft) NO 46 1 min 0,000 mm 1,7 UV-I 485 W/m 9,0 C 13,3 C 1,6 km/h (1 Bft) 100,00 %
04.04.2016 10:12 13,3 C 76 % 1008,0 hPa 0,0 l/m 0,7 km/h (0 Bft) NO 46 1 min 0,000 mm 1,7 UV-I 487 W/m 9,2 C 13,3 C 1,6 km/h (1 Bft) 96,15 %
04.04.2016 10:13 13,4 C 76 % 1008,0 hPa 0,0 l/m 0,7 km/h (0 Bft) NO 46 1 min 0,000 mm 1,8 UV-I 487 W/m 9,3 C 13,4 C 1,6 km/h (1 Bft) 100,00 %
04.04.2016 10:14 13,4 C 75 % 1008,0 hPa 0,0 l/m 0,3 km/h (0 Bft) NO 46 1 min 0,000 mm 1,8 UV-I 486 W/m 9,1 C 13,4 C 1,6 km/h (1 Bft) 95,65 %
04.04.2016 10:15 13,4 C 75 % 1007,9 hPa 0,0 l/m 1,0 km/h (0 Bft) NO 46 1 min 0,000 mm 1,8 UV-I 489 W/m 9,1 C 13,4 C 1,6 km/h (1 Bft) 91,67 %
04.04.2016 10:16 13,4 C 74 % 1007,9 hPa 0,0 l/m 1,2 km/h (1 Bft) NO 46 1 min 0,000 mm 1,8 UV-I 500 W/m 8,9 C 13,4 C 3,2 km/h (1 Bft) 95,65 %
04.04.2016 10:17 13,4 C 74 % 1007,9 hPa 0,0 l/m 0,1 km/h (0 Bft) NO 46 1 min 0,000 mm 1,8 UV-I 508 W/m 8,9 C 13,4 C 1,6 km/h (1 Bft) 100,00 %
04.04.2016 10:18 13,4 C 74 % 1007,9 hPa 0,0 l/m 1,5 km/h (1 Bft) NO 46 1 min 0,000 mm 1,8 UV-I 504 W/m 8,9 C 13,4 C 3,2 km/h (1 Bft) 95,65 %
04.04.2016 10:19 13,4 C 75 % 1007,9 hPa 0,0 l/m 0,3 km/h (0 Bft) NO 46 1 min 0,000 mm 1,8 UV-I 505 W/m 9,1 C 13,4 C 1,6 km/h (1 Bft) 100,00 %
04.04.2016 10:20 13,5 C 76 % 1007,9 hPa 0,0 l/m 0,5 km/h (0 Bft) NO 46 1 min 0,000 mm 1,8 UV-I 494 W/m 9,4 C 13,5 C 1,6 km/h (1 Bft) 95,65 %
04.04.2016 10:21 13,6 C 74 % 1007,9 hPa 0,0 l/m 2,0 km/h (1 Bft) NO 46 1 min 0,000 mm 1,9 UV-I 483 W/m 9,1 C 13,6 C 3,2 km/h (1 Bft) 95,83 %
04.04.2016 10:22 13,6 C 75 % 1007,9 hPa 0,0 l/m 1,7 km/h (1 Bft) NO 46 1 min 0,000 mm 1,9 UV-I 494 W/m 9,3 C 13,6 C 3,2 km/h (1 Bft) 100,00 %
04.04.2016 10:23 13,7 C 77 % 1007,9 hPa 0,0 l/m 1,7 km/h (1 Bft) NO 46 1 min 0,000 mm 1,9 UV-I 502 W/m 9,7 C 13,7 C 3,2 km/h (1 Bft) 95,83 %
04.04.2016 10:24 13,8 C 77 % 1007,9 hPa 0,0 l/m 1,8 km/h (1 Bft) NO 46 1 min 0,000 mm 1,9 UV-I 507 W/m 9,8 C 13,8 C 3,2 km/h (1 Bft) 100,00 %
04.04.2016 10:25 13,9 C 74 % 1007,9 hPa 0,0 l/m 1,1 km/h (1 Bft) NO 46 1 min 0,000 mm 1,9 UV-I 486 W/m 9,3 C 13,9 C 3,2 km/h (1 Bft) 95,83 %
04.04.2016 10:26 13,9 C 73 % 1008,0 hPa 0,0 l/m 2,1 km/h (1 Bft) NO 46 1 min 0,000 mm 1,9 UV-I 485 W/m 9,1 C 13,9 C 3,2 km/h (1 Bft) 100,00 %
04.04.2016 10:27 14,1 C 73 % 1008,0 hPa 0,0 l/m 1,1 km/h (1 Bft) NO 46 1 min 0,000 mm 1,9 UV-I 470 W/m 9,3 C 14,1 C 3,2 km/h (1 Bft) 95,83 %
04.04.2016 10:28 14,1 C 74 % 1008,0 hPa 0,0 l/m 1,1 km/h (1 Bft) NO 46 1 min 0,000 mm 1,8 UV-I 447 W/m 9,5 C 14,1 C 1,6 km/h (1 Bft) 95,65 %
04.04.2016 10:29 14,1 C 74 % 1008,0 hPa 0,0 l/m 0,9 km/h (0 Bft) NO 46 1 min 0,000 mm 1,9 UV-I 474 W/m 9,5 C 14,1 C 1,6 km/h (1 Bft) 100,00 %
04.04.2016 10:30 14,1 C 73 % 1008,0 hPa 0,0 l/m 1,4 km/h (1 Bft) NO 46 1 min 0,000 mm 1,9 UV-I 459 W/m 9,3 C 14,1 C 3,2 km/h (1 Bft) 91,30 %
04.04.2016 10:31 14,1 C 73 % 1008,0 hPa 0,0 l/m 1,9 km/h (1 Bft) NO 46 1 min 0,000 mm 1,9 UV-I 460 W/m 9,3 C 14,1 C 3,2 km/h (1 Bft) 98,24 %
04.04.2016 10:32 14,1 C 73 % 1007,9 hPa 0,0 l/m 3,5 km/h (1 Bft) NO 46 1 min 0,000 mm 1,9 UV-I 475 W/m 9,3 C 14,1 C 4,8 km/h (1 Bft) 97,44 %
04.04.2016 10:33 14,1 C 75 % 1007,9 hPa 0,0 l/m 3,6 km/h (1 Bft) NO 46 1 min 0,000 mm 2,0 UV-I 485 W/m 9,7 C 14,1 C 4,8 km/h (1 Bft) 100,00 %
04.04.2016 10:34 14,2 C 73 % 1007,9 hPa 0,0 l/m 3,3 km/h (1 Bft) NO 46 1 min 0,000 mm 1,9 UV-I 474 W/m 9,4 C 14,2 C 4,8 km/h (1 Bft) 95,83 %
04.04.2016 10:35 14,3 C 73 % 1008,0 hPa 0,0 l/m 2,9 km/h (1 Bft) NO 46 1 min 0,000 mm 1,9 UV-I 457 W/m 9,5 C 14,3 C 3,2 km/h (1 Bft) 91,30 %
04.04.2016 10:36 14,3 C 74 % 1008,0 hPa 0,0 l/m 2,0 km/h (1 Bft) NO 46 1 min 0,000 mm 1,9 UV-I 467 W/m 9,7 C 14,3 C 3,2 km/h (1 Bft) 95,83 %
04.04.2016 10:37 14,3 C 71 % 1008,0 hPa 0,0 l/m 0,6 km/h (0 Bft) NO 46 1 min 0,000 mm 2,0 UV-I 479 W/m 9,1 C 14,3 C 1,6 km/h (1 Bft) 100,00 %
04.04.2016 10:38 14,3 C 72 % 1008,0 hPa 0,0 l/m 0,8 km/h (0 Bft) NO 46 1 min 0,000 mm 2,0 UV-I 484 W/m 9,3 C 14,3 C 3,2 km/h (1 Bft) 95,83 %
04.04.2016 10:39 14,2 C 72 % 1008,0 hPa 0,0 l/m 0,8 km/h (0 Bft) NO 46 1 min 0,000 mm 2,0 UV-I 480 W/m 9,2 C 14,2 C 1,6 km/h (1 Bft) 91,30 %
04.04.2016 10:40 14,2 C 73 % 1008,0 hPa 0,0 l/m 1,4 km/h (1 Bft) NO 46 1 min 0,000 mm 2,1 UV-I 493 W/m 9,4 C 14,2 C 3,2 km/h (1 Bft) 100,00 %
04.04.2016 10:41 14,3 C 77 % 1008,0 hPa 0,0 l/m 1,6 km/h (1 Bft) NO 46 1 min 0,000 mm 2,1 UV-I 509 W/m 10,3 C 14,3 C 3,2 km/h (1 Bft) 88,46 %
04.04.2016 10:42 14,5 C 75 % 1008,0 hPa 0,0 l/m 0,9 km/h (0 Bft) NO 46 1 min 0,000 mm 2,1 UV-I 483 W/m 10,1 C 14,5 C 1,6 km/h (1 Bft) 100,00 %
04.04.2016 10:43 14,6 C 74 % 1008,0 hPa 0,0 l/m 0,9 km/h (0 Bft) NO 46 1 min 0,000 mm 2,2 UV-I 533 W/m 10,0 C 14,6 C 3,2 km/h (1 Bft) 100,00 %
04.04.2016 10:44 14,6 C 73 % 1008,0 hPa 0,0 l/m 1,1 km/h (1 Bft) NO 46 1 min 0,000 mm 2,2 UV-I 547 W/m 9,8 C 14,6 C 3,2 km/h (1 Bft) 100,00 %
04.04.2016 10:45 14,6 C 71 % 1007,9 hPa 0,0 l/m 0,3 km/h (0 Bft) NO 46 1 min 0,000 mm 2,3 UV-I 570 W/m 9,4 C 14,6 C 1,6 km/h (1 Bft) 91,30 %
04.04.2016 10:46 14,7 C 72 % 1008,0 hPa 0,0 l/m 0,7 km/h (0 Bft) NO 46 1 min 0,000 mm 2,3 UV-I 583 W/m 9,7 C 14,7 C 1,6 km/h (1 Bft) 100,00 %
04.04.2016 10:47 14,7 C 72 % 1007,9 hPa 0,0 l/m 1,7 km/h (1 Bft) NO 46 1 min 0,000 mm 2,4 UV-I 591 W/m 9,7 C 14,7 C 3,2 km/h (1 Bft) 100,00 %
04.04.2016 10:48 14,7 C 71 % 1008,0 hPa 0,0 l/m 2,3 km/h (1 Bft) NO 46 1 min 0,000 mm 2,4 UV-I 596 W/m 9,5 C 14,7 C 3,2 km/h (1 Bft) 100,00 %
04.04.2016 10:49 14,6 C 70 % 1008,0 hPa 0,0 l/m 2,9 km/h (1 Bft) NO 46 1 min 0,000 mm 2,4 UV-I 594 W/m 9,2 C 14,6 C 4,8 km/h (1 Bft) 95,65 %
04.04.2016 10:50 14,7 C 72 % 1007,9 hPa 0,0 l/m 2,0 km/h (1 Bft) NO 46 1 min 0,000 mm 2,4 UV-I 585 W/m 9,7 C 14,7 C 4,8 km/h (1 Bft) 95,83 %
04.04.2016 10:51 14,8 C 70 % 1007,9 hPa 0,0 l/m 3,0 km/h (1 Bft) NO 46 1 min 0,000 mm 2,4 UV-I 564 W/m 9,4 C 14,8 C 4,8 km/h (1 Bft) 100,00 %
04.04.2016 10:52 14,8 C 71 % 1007,9 hPa 0,0 l/m 2,0 km/h (1 Bft) NO 46 1 min 0,000 mm 2,4 UV-I 568 W/m 9,6 C 14,8 C 3,2 km/h (1 Bft) 100,00 %
04.04.2016 10:53 14,9 C 70 % 1007,9 hPa 0,0 l/m 1,0 km/h (0 Bft) NO 46 1 min 0,000 mm 2,4 UV-I 581 W/m 9,5 C 14,9 C 3,2 km/h (1 Bft) 100,00 %
04.04.2016 10:54 15,1 C 70 % 1007,9 hPa 0,0 l/m 3,4 km/h (1 Bft) NO 46 1 min 0,000 mm 2,4 UV-I 532 W/m 9,7 C 15,1 C 6,4 km/h (2 Bft) 100,00 %
04.04.2016 10:55 15,1 C 69 % 1007,9 hPa 0,0 l/m 3,2 km/h (1 Bft) NO 42 1 min 0,000 mm 2,5 UV-I 607 W/m 9,5 C 15,1 C 6,4 km/h (2 Bft) 100,00 %
04.04.2016 10:56 15,2 C 68 % 1007,9 hPa 0,0 l/m 5,1 km/h (1 Bft) NO 36 1 min 0,000 mm 2,5 UV-I 612 W/m 9,3 C 15,2 C 6,4 km/h (2 Bft) 95,65 %
04.04.2016 10:57 15,2 C 69 % 1007,9 hPa 0,0 l/m 2,9 km/h (1 Bft) NO 36 1 min 0,000 mm 2,5 UV-I 618 W/m 9,6 C 15,2 C 4,8 km/h (1 Bft) 100,00 %
04.04.2016 10:58 15,3 C 70 % 1007,9 hPa 0,0 l/m 2,6 km/h (1 Bft) NO 36 1 min 0,000 mm 2,5 UV-I 616 W/m 9,9 C 15,3 C 3,2 km/h (1 Bft) 100,00 %
04.04.2016 10:59 15,3 C 70 % 1007,9 hPa 0,0 l/m 3,8 km/h (1 Bft) NO 44 1 min 0,000 mm 2,6 UV-I 627 W/m 9,9 C 15,3 C 4,8 km/h (1 Bft) 100,00 %
04.04.2016 11:00 15,4 C 67 % 1007,9 hPa 0,0 l/m 5,2 km/h (1 Bft) NO 50 1 min 0,000 mm 2,6 UV-I 635 W/m 9,3 C 15,4 C 6,4 km/h (2 Bft) 100,00 %
04.04.2016 11:01 15,5 C 67 % 1008,0 hPa 0,0 l/m 3,4 km/h (1 Bft) NO 50 1 min 0,280 mm 2,5 UV-I 615 W/m 9,4 C 15,5 C 4,8 km/h (1 Bft) 100,00 %
04.04.2016 11:02 15,6 C 69 % 1008,0 hPa 0,0 l/m 2,1 km/h (1 Bft) NO 50 1 min 0,000 mm 2,5 UV-I 610 W/m 9,9 C 15,6 C 3,2 km/h (1 Bft) 100,00 %
04.04.2016 11:03 15,6 C 66 % 1007,9 hPa 0,0 l/m 2,8 km/h (1 Bft) NO 50 1 min 0,000 mm 2,6 UV-I 616 W/m 9,3 C 15,6 C 4,8 km/h (1 Bft) 100,00 %
04.04.2016 11:04 15,6 C 66 % 1007,9 hPa 0,0 l/m 1,4 km/h (1 Bft) NO 50 1 min 0,000 mm 2,5 UV-I 601 W/m 9,3 C 15,6 C 4,8 km/h (1 Bft) 100,00 %
04.04.2016 11:05 15,6 C 67 % 1007,9 hPa 0,0 l/m 3,5 km/h (1 Bft) NO 50 1 min 0,000 mm 2,6 UV-I 599 W/m 9,5 C 15,6 C 4,8 km/h (1 Bft) 100,00 %
04.04.2016 11:06 15,6 C 67 % 1007,9 hPa 0,0 l/m 3,8 km/h (1 Bft) NO 50 1 min 0,000 mm 2,7 UV-I 656 W/m 9,5 C 15,6 C 4,8 km/h (1 Bft) 100,00 %
04.04.2016 11:07 15,6 C 66 % 1007,9 hPa 0,0 l/m 1,8 km/h (1 Bft) NO 50 1 min 0,000 mm 2,8 UV-I 668 W/m 9,3 C 15,6 C 3,2 km/h (1 Bft) 100,00 %
04.04.2016 11:08 15,5 C 65 % 1007,9 hPa 0,0 l/m 1,1 km/h (1 Bft) NO 50 1 min 0,000 mm 2,7 UV-I 662 W/m 8,9 C 15,5 C 3,2 km/h (1 Bft) 100,00 %
04.04.2016 11:09 15,6 C 66 % 1007,9 hPa 0,0 l/m 2,0 km/h (1 Bft) NO 50 1 min 0,000 mm 2,7 UV-I 663 W/m 9,3 C 15,6 C 3,2 km/h (1 Bft) 100,00 %
04.04.2016 11:10 15,7 C 66 % 1007,9 hPa 0,0 l/m 0,7 km/h (0 Bft) NO 44 1 min 0,000 mm 2,7 UV-I 640 W/m 9,4 C 15,7 C 1,6 km/h (1 Bft) 100,00 %
04.04.2016 11:11 15,8 C 70 % 1007,8 hPa 0,0 l/m 1,0 km/h (0 Bft) NO 44 1 min 0,000 mm 2,7 UV-I 652 W/m 10,3 C 15,8 C 3,2 km/h (1 Bft) 100,00 %
04.04.2016 11:12 15,9 C 66 % 1007,9 hPa 0,0 l/m 1,7 km/h (1 Bft) N-NW 346 1 min 0,000 mm 2,8 UV-I 664 W/m 9,6 C 15,9 C 3,2 km/h (1 Bft) 100,00 %
04.04.2016 11:13 16,0 C 66 % 1007,8 hPa 0,0 l/m 1,1 km/h (1 Bft) N-NW 346 1 min 0,000 mm 2,8 UV-I 657 W/m 9,7 C 16,0 C 3,2 km/h (1 Bft) 100,00 %
04.04.2016 11:14 16,0 C 63 % 1007,8 hPa 0,0 l/m 0,8 km/h (0 Bft) N-NW 346 1 min 0,000 mm 2,9 UV-I 694 W/m 9,0 C 16,0 C 1,6 km/h (1 Bft) 100,00 %
04.04.2016 11:15 16,1 C 67 % 1007,8 hPa 0,0 l/m 1,5 km/h (1 Bft) N-NW 334 1 min 0,000 mm 3,0 UV-I 723 W/m 10,0 C 16,1 C 3,2 km/h (1 Bft) 100,00 %
04.04.2016 11:16 16,2 C 64 % 1007,8 hPa 0,0 l/m 2,8 km/h (1 Bft) N-NW 333 1 min 0,000 mm 3,1 UV-I 756 W/m 9,4 C 16,2 C 4,8 km/h (1 Bft) 100,00 %
04.04.2016 11:17 16,2 C 62 % 1007,8 hPa 0,0 l/m 3,0 km/h (1 Bft) NW 323 1 min 0,000 mm 3,1 UV-I 762 W/m 8,9 C 16,2 C 4,8 km/h (1 Bft) 100,00 %
04.04.2016 11:18 16,2 C 63 % 1007,8 hPa 0,0 l/m 1,2 km/h (1 Bft) NW 323 1 min 0,000 mm 3,1 UV-I 744 W/m 9,1 C 16,2 C 1,6 km/h (1 Bft) 100,00 %
04.04.2016 11:19 16,2 C 63 % 1007,8 hPa 0,0 l/m 0,7 km/h (0 Bft) NW 323 1 min 0,000 mm 3,1 UV-I 736 W/m 9,1 C 16,2 C 1,6 km/h (1 Bft) 95,65 %
04.04.2016 11:20 16,2 C 65 % 1007,8 hPa 0,0 l/m 1,1 km/h (1 Bft) NW 323 1 min 0,000 mm 3,1 UV-I 732 W/m 9,6 C 16,2 C 1,6 km/h (1 Bft) 100,00 %
04.04.2016 11:21 16,2 C 64 % 1007,8 hPa 0,0 l/m 1,2 km/h (1 Bft) NW 323 1 min 0,000 mm 2,8 UV-I 729 W/m 9,4 C 16,2 C 3,2 km/h (1 Bft) 100,00 %
04.04.2016 11:22 16,2 C 62 % 1007,7 hPa 0,0 l/m 0,3 km/h (0 Bft) NW 323 1 min 0,000 mm 2,5 UV-I 729 W/m 8,9 C 16,2 C 1,6 km/h (1 Bft) 100,00 %
04.04.2016 11:23 16,2 C 61 % 1007,7 hPa 0,0 l/m 0,6 km/h (0 Bft) NW 323 1 min 0,000 mm 2,5 UV-I 492 W/m 8,7 C 16,2 C 1,6 km/h (1 Bft) 100,00 %
04.04.2016 11:24 16,1 C 61 % 1007,8 hPa 0,0 l/m 1,3 km/h (1 Bft) NW 323 1 min 0,000 mm 2,9 UV-I 533 W/m 8,6 C 16,1 C 3,2 km/h (1 Bft) 100,00 %
04.04.2016 11:25 16,2 C 64 % 1007,8 hPa 0,0 l/m 1,0 km/h (0 Bft) NW 306 1 min 0,000 mm 2,8 UV-I 623 W/m 9,4 C 16,2 C 3,2 km/h (1 Bft) 100,00 %
04.04.2016 11:26 16,2 C 64 % 1007,8 hPa 0,0 l/m 4,4 km/h (1 Bft) W 278 1 min 0,000 mm 2,6 UV-I 633 W/m 9,4 C 16,2 C 4,8 km/h (1 Bft) 100,00 %
04.04.2016 11:27 16,2 C 61 % 1007,8 hPa 0,0 l/m 2,3 km/h (1 Bft) W 278 1 min 0,000 mm 2,2 UV-I 426 W/m 8,7 C 16,2 C 4,8 km/h (1 Bft) 95,65 %
04.04.2016 11:28 16,2 C 63 % 1007,8 hPa 0,0 l/m 3,2 km/h (1 Bft) W 277 0 min 0,000 mm 2,6 UV-I 357 W/m 9,1 C 16,2 C 4,8 km/h (1 Bft) 100,00 %
04.04.2016 11:29 16,3 C 61 % 1007,8 hPa 0,0 l/m 2,9 km/h (1 Bft) W 277 1 min 0,000 mm 3,0 UV-I 413 W/m 8,8 C 16,3 C 4,8 km/h (1 Bft) 100,00 %
04.04.2016 11:30 16,3 C 62 % 1007,7 hPa 0,0 l/m 1,7 km/h (1 Bft) W 277 1 min 0,000 mm 3,2 UV-I 698 W/m 9,0 C 16,3 C 3,2 km/h (1 Bft) 100,00 %
04.04.2016 11:31 16,4 C 62 % 1007,8 hPa 0,0 l/m 1,0 km/h (0 Bft) W 277 1 min 0,000 mm 2,9 UV-I 708 W/m 9,1 C 16,4 C 3,2 km/h (1 Bft) 100,00 %
04.04.2016 11:32 16,5 C 64 % 1007,8 hPa 0,0 l/m 0,2 km/h (0 Bft) W 277 1 min 0,000 mm 2,6 UV-I 708 W/m 9,7 C 16,5 C 1,6 km/h (1 Bft) 100,00 %
04.04.2016 11:33 16,6 C 62 % 1007,7 hPa 0,0 l/m 1,1 km/h (1 Bft) W 275 1 min 0,000 mm 2,5 UV-I 525 W/m 9,3 C 16,6 C 3,2 km/h (1 Bft) 95,83 %
04.04.2016 11:34 16,6 C 61 % 1007,7 hPa 0,0 l/m 1,9 km/h (1 Bft) S 170 1 min 0,000 mm 2,6 UV-I 526 W/m 9,0 C 16,6 C 6,4 km/h (2 Bft) 100,00 %
04.04.2016 11:35 16,6 C 63 % 1007,7 hPa 0,0 l/m 1,7 km/h (1 Bft) S 170 1 min 0,000 mm 2,8 UV-I 558 W/m 9,5 C 16,6 C 3,2 km/h (1 Bft) 95,83 %
04.04.2016 11:36 16,7 C 62 % 1007,7 hPa 0,0 l/m 2,8 km/h (1 Bft) S 177 1 min 0,000 mm 2,6 UV-I 501 W/m 9,4 C 16,7 C 6,4 km/h (2 Bft) 95,65 %
04.04.2016 11:37 16,7 C 62 % 1007,7 hPa 0,0 l/m 1,0 km/h (0 Bft) S 177 1 min 0,000 mm 2,4 UV-I 420 W/m 9,4 C 16,7 C 3,2 km/h (1 Bft) 100,00 %
04.04.2016 11:38 16,7 C 62 % 1007,7 hPa 0,0 l/m 3,2 km/h (1 Bft) S 177 1 min 0,000 mm 2,3 UV-I 396 W/m 9,4 C 16,7 C 4,8 km/h (1 Bft) 91,30 %
04.04.2016 11:39 16,7 C 62 % 1007,7 hPa 0,0 l/m 2,1 km/h (1 Bft) S 177 1 min 0,000 mm 2,5 UV-I 462 W/m 9,4 C 16,7 C 4,8 km/h (1 Bft) 100,00 %
04.04.2016 11:40 16,7 C 61 % 1007,7 hPa 0,0 l/m 1,9 km/h (1 Bft) S 178 1 min 0,000 mm 2,8 UV-I 487 W/m 9,1 C 16,7 C 4,8 km/h (1 Bft) 95,65 %
04.04.2016 11:41 16,7 C 64 % 1007,7 hPa 0,0 l/m 1,0 km/h (0 Bft) S 178 1 min 0,000 mm 2,7 UV-I 563 W/m 9,9 C 16,7 C 1,6 km/h (1 Bft) 100,00 %
04.04.2016 11:42 16,7 C 62 % 1007,7 hPa 0,0 l/m 1,4 km/h (1 Bft) S 178 1 min 0,000 mm 2,8 UV-I 576 W/m 9,4 C 16,7 C 3,2 km/h (1 Bft) 100,00 %
04.04.2016 11:43 16,7 C 61 % 1007,6 hPa 0,0 l/m 3,7 km/h (1 Bft) S 187 1 min 0,000 mm 2,9 UV-I 585 W/m 9,1 C 16,7 C 6,4 km/h (2 Bft) 100,00 %
04.04.2016 11:44 16,8 C 59 % 1007,6 hPa 0,0 l/m 1,3 km/h (1 Bft) S 173 1 min 0,000 mm 2,7 UV-I 518 W/m 8,7 C 16,8 C 3,2 km/h (1 Bft) 95,65 %
04.04.2016 11:45 16,8 C 60 % 1007,6 hPa 0,0 l/m 2,4 km/h (1 Bft) S-SW 195 1 min 0,000 mm 2,6 UV-I 523 W/m 9,0 C 16,8 C 3,2 km/h (1 Bft) 95,83 %
04.04.2016 11:46 16,8 C 61 % 1007,6 hPa 0,0 l/m 4,4 km/h (1 Bft) S-SW 209 1 min 0,000 mm 2,7 UV-I 549 W/m 9,2 C 16,8 C 6,4 km/h (2 Bft) 100,00 %
04.04.2016 11:47 16,9 C 61 % 1007,6 hPa 0,0 l/m 3,5 km/h (1 Bft) S 171 1 min 0,000 mm 2,8 UV-I 570 W/m 9,3 C 16,9 C 6,4 km/h (2 Bft) 100,00 %
04.04.2016 11:48 17,0 C 61 % 1007,6 hPa 0,0 l/m 5,4 km/h (1 Bft) S-SW 194 1 min 0,000 mm 2,8 UV-I 572 W/m 9,4 C 17,0 C 8,0 km/h (2 Bft) 91,30 %
04.04.2016 11:49 17,1 C 59 % 1007,6 hPa 0,0 l/m 5,0 km/h (1 Bft) S 180 1 min 0,000 mm 2,8 UV-I 557 W/m 9,0 C 17,1 C 8,0 km/h (2 Bft) 100,00 %
04.04.2016 11:50 17,1 C 60 % 1007,6 hPa 0,0 l/m 3,8 km/h (1 Bft) W-SW 241 1 min 0,000 mm 2,8 UV-I 559 W/m 9,3 C 17,1 C 6,4 km/h (2 Bft) 100,00 %
04.04.2016 11:51 17,1 C 59 % 1007,6 hPa 0,0 l/m 4,1 km/h (1 Bft) W-SW 248 1 min 0,000 mm 3,0 UV-I 566 W/m 9,0 C 17,1 C 6,4 km/h (2 Bft) 100,00 %
04.04.2016 11:52 17,2 C 61 % 1007,5 hPa 0,0 l/m 3,7 km/h (1 Bft) W-SW 247 1 min 0,000 mm 3,1 UV-I 695 W/m 9,6 C 17,2 C 6,4 km/h (2 Bft) 100,00 %
04.04.2016 11:53 17,2 C 61 % 1007,5 hPa 0,0 l/m 3,1 km/h (1 Bft) S-SW 200 1 min 0,000 mm 3,3 UV-I 727 W/m 9,6 C 17,2 C 6,4 km/h (2 Bft) 100,00 %
04.04.2016 11:54 17,2 C 60 % 1007,5 hPa 0,0 l/m 0,9 km/h (0 Bft) S-SW 200 1 min 0,000 mm 3,3 UV-I 736 W/m 9,4 C 17,2 C 3,2 km/h (1 Bft) 100,00 %
04.04.2016 11:55 17,3 C 61 % 1007,4 hPa 0,0 l/m 2,9 km/h (1 Bft) S-SW 197 1 min 0,000 mm 3,1 UV-I 737 W/m 9,7 C 17,3 C 6,4 km/h (2 Bft) 100,00 %
04.04.2016 11:56 17,3 C 63 % 1007,4 hPa 0,0 l/m 2,2 km/h (1 Bft) S-SW 197 1 min 0,000 mm 2,9 UV-I 737 W/m 10,2 C 17,3 C 4,8 km/h (1 Bft) 95,83 %
04.04.2016 11:57 17,5 C 62 % 1007,4 hPa 0,0 l/m 0,5 km/h (0 Bft) S-SW 196 1 min 0,000 mm 3,2 UV-I 707 W/m 10,1 C 17,5 C 1,6 km/h (1 Bft) 92,31 %
04.04.2016 11:58 17,6 C 61 % 1007,5 hPa 0,0 l/m 2,7 km/h (1 Bft) O 82 1 min 0,000 mm 3,2 UV-I 714 W/m 10,0 C 17,6 C 4,8 km/h (1 Bft) 100,00 %
04.04.2016 11:59 17,8 C 65 % 1007,5 hPa 0,0 l/m 5,0 km/h (1 Bft) NO 50 1 min 0,000 mm 3,2 UV-I 697 W/m 11,1 C 17,8 C 6,4 km/h (2 Bft) 100,00 %
04.04.2016 12:00 17,9 C 63 % 1007,5 hPa 0,0 l/m 4,6 km/h (1 Bft) O-NO 76 1 min 0,000 mm 3,2 UV-I 677 W/m 10,8 C 17,9 C 6,4 km/h (2 Bft) 100,00 %
04.04.2016 12:01 17,9 C 61 % 1007,5 hPa 0,0 l/m 2,1 km/h (1 Bft) O-NO 74 1 min 0,330 mm 3,1 UV-I 635 W/m 10,3 C 17,9 C 4,8 km/h (1 Bft) 100,00 %
04.04.2016 12:02 17,8 C 62 % 1007,5 hPa 0,0 l/m 3,3 km/h (1 Bft) O-NO 71 1 min 0,000 mm 2,9 UV-I 598 W/m 10,4 C 17,8 C 4,8 km/h (1 Bft) 95,83 %
04.04.2016 12:03 17,8 C 63 % 1007,4 hPa 0,0 l/m 3,0 km/h (1 Bft) O-NO 71 1 min 0,000 mm 2,8 UV-I 528 W/m 10,7 C 17,8 C 4,8 km/h (1 Bft) 100,00 %
04.04.2016 12:04 17,8 C 64 % 1007,4 hPa 0,0 l/m 3,6 km/h (1 Bft) O-NO 70 1 min 0,000 mm 2,8 UV-I 550 W/m 10,9 C 17,8 C 4,8 km/h (1 Bft) 95,83 %
04.04.2016 12:05 17,8 C 63 % 1007,5 hPa 0,0 l/m 2,6 km/h (1 Bft) O-NO 70 1 min 0,000 mm 2,7 UV-I 530 W/m 10,7 C 17,8 C 4,8 km/h (1 Bft) 95,65 %
04.04.2016 12:06 17,8 C 64 % 1007,5 hPa 0,0 l/m 2,3 km/h (1 Bft) O-NO 70 1 min 0,000 mm 2,8 UV-I 528 W/m 10,9 C 17,8 C 4,8 km/h (1 Bft) 100,00 %
04.04.2016 12:07 17,9 C 60 % 1007,5 hPa 0,0 l/m 1,2 km/h (1 Bft) O 83 1 min 0,000 mm 2,8 UV-I 551 W/m 10,0 C 17,9 C 3,2 km/h (1 Bft) 95,65 %
04.04.2016 12:08 17,9 C 59 % 1007,5 hPa 0,0 l/m 1,5 km/h (1 Bft) O 88 1 min 0,000 mm 3,0 UV-I 593 W/m 9,8 C 17,9 C 3,2 km/h (1 Bft) 100,00 %
04.04.2016 12:09 17,9 C 59 % 1007,5 hPa 0,0 l/m 3,7 km/h (1 Bft) SW 222 1 min 0,000 mm 3,1 UV-I 668 W/m 9,8 C 17,9 C 8,0 km/h (2 Bft) 95,65 %
04.04.2016 12:10 17,9 C 58 % 1007,5 hPa 0,0 l/m 5,3 km/h (1 Bft) W 259 1 min 0,000 mm 3,3 UV-I 706 W/m 9,5 C 17,9 C 9,7 km/h (2 Bft) 100,00 %
04.04.2016 12:11 18,0 C 58 % 1007,4 hPa 0,0 l/m 6,8 km/h (2 Bft) SW 230 1 min 0,000 mm 3,3 UV-I 700 W/m 9,6 C 17,8 C 8,0 km/h (2 Bft) 96,15 %
04.04.2016 12:12 18,1 C 59 % 1007,4 hPa 0,0 l/m 5,5 km/h (1 Bft) W-SW 244 1 min 0,000 mm 3,3 UV-I 710 W/m 10,0 C 18,1 C 6,4 km/h (2 Bft) 95,83 %
04.04.2016 12:13 18,1 C 57 % 1007,4 hPa 0,0 l/m 3,8 km/h (1 Bft) W-SW 244 1 min 0,000 mm 3,4 UV-I 710 W/m 9,4 C 18,1 C 6,4 km/h (2 Bft) 100,00 %
04.04.2016 12:14 18,1 C 57 % 1007,4 hPa 0,0 l/m 2,5 km/h (1 Bft) W-SW 244 1 min 0,000 mm 3,4 UV-I 727 W/m 9,4 C 18,1 C 4,8 km/h (1 Bft) 95,65 %
04.04.2016 12:15 18,1 C 57 % 1007,4 hPa 0,0 l/m 4,2 km/h (1 Bft) W 278 1 min 0,000 mm 3,5 UV-I 764 W/m 9,4 C 18,1 C 4,8 km/h (1 Bft) 100,00 %
04.04.2016 12:16 18,2 C 57 % 1007,3 hPa 0,0 l/m 4,6 km/h (1 Bft) W-NW 284 1 min 0,000 mm 3,2 UV-I 766 W/m 9,5 C 18,2 C 6,4 km/h (2 Bft) 95,65 %
04.04.2016 12:17 18,2 C 57 % 1007,3 hPa 0,0 l/m 5,4 km/h (1 Bft) W-SW 242 1 min 0,000 mm 2,7 UV-I 641 W/m 9,5 C 18,2 C 8,0 km/h (2 Bft) 100,00 %
04.04.2016 12:18 18,2 C 59 % 1007,3 hPa 0,0 l/m 5,3 km/h (1 Bft) SW 229 1 min 0,000 mm 2,6 UV-I 453 W/m 10,1 C 18,2 C 6,4 km/h (2 Bft) 95,65 %
04.04.2016 12:19 18,3 C 59 % 1007,4 hPa 0,0 l/m 6,0 km/h (2 Bft) S 191 1 min 0,000 mm 2,7 UV-I 504 W/m 10,1 C 18,3 C 8,0 km/h (2 Bft) 100,00 %
04.04.2016 12:20 18,2 C 58 % 1007,3 hPa 0,0 l/m 5,2 km/h (1 Bft) S-SW 208 1 min 0,000 mm 2,7 UV-I 494 W/m 9,8 C 18,2 C 8,0 km/h (2 Bft) 91,30 %
04.04.2016 12:21 18,2 C 58 % 1007,4 hPa 0,0 l/m 4,2 km/h (1 Bft) W 265 0 min 0,000 mm 2,6 UV-I 398 W/m 9,8 C 18,2 C 6,4 km/h (2 Bft) 95,83 %
04.04.2016 12:22 18,2 C 57 % 1007,4 hPa 0,0 l/m 3,5 km/h (1 Bft) W-SW 241 1 min 0,000 mm 2,6 UV-I 424 W/m 9,5 C 18,2 C 6,4 km/h (2 Bft) 100,00 %
04.04.2016 12:23 18,2 C 60 % 1007,4 hPa 0,0 l/m 3,8 km/h (1 Bft) SW 226 1 min 0,000 mm 2,7 UV-I 480 W/m 10,3 C 18,2 C 6,4 km/h (2 Bft) 95,83 %
04.04.2016 12:24 18,3 C 59 % 1007,5 hPa 0,0 l/m 3,5 km/h (1 Bft) W 271 1 min 0,000 mm 2,9 UV-I 522 W/m 10,1 C 18,3 C 4,8 km/h (1 Bft) 100,00 %
04.04.2016 12:25 18,3 C 61 % 1007,4 hPa 0,0 l/m 4,2 km/h (1 Bft) W-NW 283 1 min 0,000 mm 3,0 UV-I 561 W/m 10,6 C 18,3 C 9,7 km/h (2 Bft) 95,83 %
04.04.2016 12:26 18,4 C 59 % 1007,5 hPa 0,0 l/m 5,8 km/h (2 Bft) W 266 1 min 0,000 mm 2,9 UV-I 518 W/m 10,2 C 18,4 C 9,7 km/h (2 Bft) 95,65 %
04.04.2016 12:27 18,4 C 58 % 1007,5 hPa 0,0 l/m 5,3 km/h (1 Bft) W 281 1 min 0,000 mm 2,6 UV-I 467 W/m 10,0 C 18,4 C 9,7 km/h (2 Bft) 95,83 %
04.04.2016 12:28 18,4 C 58 % 1007,5 hPa 0,0 l/m 3,2 km/h (1 Bft) W 263 0 min 0,000 mm 2,4 UV-I 396 W/m 10,0 C 18,4 C 4,8 km/h (1 Bft) 96,15 %
04.04.2016 12:29 18,3 C 57 % 1007,5 hPa 0,0 l/m 3,2 km/h (1 Bft) W 263 0 min 0,000 mm 2,3 UV-I 360 W/m 9,6 C 18,3 C 4,8 km/h (1 Bft) 100,00 %
04.04.2016 12:30 18,3 C 57 % 1007,5 hPa 0,0 l/m 2,7 km/h (1 Bft) W 273 0 min 0,000 mm 2,3 UV-I 327 W/m 9,6 C 18,3 C 4,8 km/h (1 Bft) 96,30 %
04.04.2016 12:31 18,3 C 57 % 1007,5 hPa 0,0 l/m 2,2 km/h (1 Bft) W 273 0 min 0,000 mm 2,1 UV-I 296 W/m 9,6 C 18,3 C 4,8 km/h (1 Bft) 100,00 %
04.04.2016 12:32 18,3 C 57 % 1007,5 hPa 0,0 l/m 3,4 km/h (1 Bft) W 272 0 min 0,000 mm 2,1 UV-I 292 W/m 9,6 C 18,3 C 4,8 km/h (1 Bft) 95,83 %
04.04.2016 12:33 18,2 C 57 % 1007,4 hPa 0,0 l/m 2,0 km/h (1 Bft) W 272 0 min 0,000 mm 2,2 UV-I 306 W/m 9,5 C 18,2 C 3,2 km/h (1 Bft) 100,00 %
04.04.2016 12:34 18,2 C 56 % 1007,4 hPa 0,0 l/m 0,5 km/h (0 Bft) W 272 0 min 0,000 mm 2,3 UV-I 348 W/m 9,3 C 18,2 C 1,6 km/h (1 Bft) 95,83 %
04.04.2016 12:35 18,2 C 58 % 1007,4 hPa 0,0 l/m 0,1 km/h (0 Bft) W 272 1 min 0,000 mm 2,4 UV-I 410 W/m 9,8 C 18,2 C 1,6 km/h (1 Bft) 91,30 %
04.04.2016 12:36 18,2 C 56 % 1007,4 hPa 0,0 l/m 0,1 km/h (0 Bft) W 272 1 min 0,000 mm 2,8 UV-I 511 W/m 9,3 C 18,2 C 1,6 km/h (1 Bft) 100,00 %
04.04.2016 12:37 18,2 C 54 % 1007,4 hPa 0,0 l/m 0,9 km/h (0 Bft) W 272 1 min 0,000 mm 3,1 UV-I 579 W/m 8,7 C 18,2 C 1,6 km/h (1 Bft) 95,65 %
04.04.2016 12:38 18,3 C 54 % 1007,4 hPa 0,0 l/m 0,1 km/h (0 Bft) W 272 1 min 0,000 mm 3,4 UV-I 592 W/m 8,8 C 18,3 C 1,6 km/h (1 Bft) 95,83 %
04.04.2016 12:39 18,4 C 55 % 1007,4 hPa 0,0 l/m 0,6 km/h (0 Bft) W 272 1 min 0,000 mm 3,5 UV-I 768 W/m 9,2 C 18,4 C 1,6 km/h (1 Bft) 91,30 %
04.04.2016 12:40 18,6 C 57 % 1007,4 hPa 0,0 l/m 1,2 km/h (1 Bft) W 273 1 min 0,000 mm 3,4 UV-I 738 W/m 9,9 C 18,6 C 3,2 km/h (1 Bft) 100,00 %
04.04.2016 12:41 18,8 C 58 % 1007,4 hPa 0,0 l/m 0,4 km/h (0 Bft) W 273 1 min 0,000 mm 3,5 UV-I 705 W/m 10,4 C 18,8 C 1,6 km/h (1 Bft) 100,00 %
04.04.2016 12:42 18,9 C 58 % 1007,3 hPa 0,0 l/m 0,3 km/h (0 Bft) W 274 1 min 0,000 mm 3,6 UV-I 712 W/m 10,5 C 18,9 C 3,2 km/h (1 Bft) 100,00 %
04.04.2016 12:43 18,9 C 55 % 1007,3 hPa 0,0 l/m 1,3 km/h (1 Bft) W 274 1 min 0,000 mm 3,4 UV-I 650 W/m 9,7 C 18,9 C 3,2 km/h (1 Bft) 100,00 %
04.04.2016 12:44 19,0 C 53 % 1007,3 hPa 0,0 l/m 1,4 km/h (1 Bft) W 274 1 min 0,000 mm 3,4 UV-I 639 W/m 9,2 C 19,0 C 3,2 km/h (1 Bft) 100,00 %
04.04.2016 12:45 18,9 C 54 % 1007,3 hPa 0,0 l/m 0,7 km/h (0 Bft) W 274 1 min 0,000 mm 3,2 UV-I 595 W/m 9,4 C 18,9 C 1,6 km/h (1 Bft) 100,00 %
04.04.2016 12:46 19,0 C 55 % 1007,3 hPa 0,0 l/m 3,2 km/h (1 Bft) N 360 1 min 0,000 mm 3,1 UV-I 540 W/m 9,8 C 19,0 C 4,8 km/h (1 Bft) 100,00 %
04.04.2016 12:47 18,9 C 54 % 1007,3 hPa 0,0 l/m 1,4 km/h (1 Bft) N 360 1 min 0,000 mm 3,1 UV-I 586 W/m 9,4 C 18,9 C 3,2 km/h (1 Bft) 95,65 %
04.04.2016 12:48 19,0 C 53 % 1007,3 hPa 0,0 l/m 1,2 km/h (1 Bft) S-SO 150 1 min 0,000 mm 3,3 UV-I 625 W/m 9,2 C 19,0 C 3,2 km/h (1 Bft) 100,00 %
04.04.2016 12:49 18,9 C 53 % 1007,3 hPa 0,0 l/m 2,5 km/h (1 Bft) S-SO 155 1 min 0,000 mm 3,1 UV-I 617 W/m 9,1 C 18,9 C 6,4 km/h (2 Bft) 95,83 %
04.04.2016 12:50 18,9 C 52 % 1007,3 hPa 0,0 l/m 2,3 km/h (1 Bft) S-SO 165 1 min 0,000 mm 3,1 UV-I 548 W/m 8,8 C 18,9 C 6,4 km/h (2 Bft) 95,65 %
04.04.2016 12:51 18,8 C 50 % 1007,3 hPa 0,0 l/m 5,4 km/h (1 Bft) S-SW 203 1 min 0,000 mm 3,2 UV-I 561 W/m 8,2 C 18,8 C 8,0 km/h (2 Bft) 100,00 %
04.04.2016 12:52 18,8 C 52 % 1007,2 hPa 0,0 l/m 3,3 km/h (1 Bft) S 177 1 min 0,000 mm 3,5 UV-I 670 W/m 8,7 C 18,8 C 8,0 km/h (2 Bft) 100,00 %
04.04.2016 12:53 18,8 C 50 % 1007,3 hPa 0,0 l/m 1,7 km/h (1 Bft) S 178 1 min 0,000 mm 3,7 UV-I 745 W/m 8,2 C 18,8 C 3,2 km/h (1 Bft) 100,00 %
04.04.2016 12:54 18,9 C 52 % 1007,3 hPa 0,0 l/m 0,8 km/h (0 Bft) S 180 1 min 0,000 mm 3,7 UV-I 727 W/m 8,8 C 18,9 C 3,2 km/h (1 Bft) 100,00 %
04.04.2016 12:55 19,0 C 53 % 1007,3 hPa 0,0 l/m 3,8 km/h (1 Bft) W-SW 251 1 min 0,000 mm 3,7 UV-I 722 W/m 9,2 C 19,0 C 6,4 km/h (2 Bft) 100,00 %
04.04.2016 12:56 19,1 C 52 % 1007,3 hPa 0,0 l/m 4,4 km/h (1 Bft) SW 236 1 min 0,000 mm 3,7 UV-I 722 W/m 9,0 C 19,1 C 6,4 km/h (2 Bft) 95,65 %
04.04.2016 12:57 19,2 C 52 % 1007,2 hPa 0,0 l/m 4,1 km/h (1 Bft) W-SW 242 1 min 0,000 mm 3,6 UV-I 691 W/m 9,1 C 19,2 C 6,4 km/h (2 Bft) 100,00 %
04.04.2016 12:58 19,3 C 52 % 1007,3 hPa 0,0 l/m 4,8 km/h (1 Bft) W-SW 252 1 min 0,000 mm 3,7 UV-I 725 W/m 9,2 C 19,3 C 6,4 km/h (2 Bft) 100,00 %
04.04.2016 12:59 19,3 C 51 % 1007,2 hPa 0,0 l/m 5,0 km/h (1 Bft) W-SW 238 1 min 0,000 mm 3,5 UV-I 666 W/m 8,9 C 19,3 C 6,4 km/h (2 Bft) 100,00 %
04.04.2016 13:00 19,3 C 52 % 1007,2 hPa 0,0 l/m 5,6 km/h (1 Bft) SW 227 1 min 0,330 mm 3,4 UV-I 652 W/m 9,2 C 19,3 C 8,0 km/h (2 Bft) 100,00 %
04.04.2016 13:01 19,4 C 51 % 1007,2 hPa 0,0 l/m 3,5 km/h (1 Bft) W-SW 244 1 min 0,000 mm 3,4 UV-I 676 W/m 9,0 C 19,4 C 4,8 km/h (1 Bft) 100,00 %
04.04.2016 13:02 19,4 C 50 % 1007,2 hPa 0,0 l/m 2,7 km/h (1 Bft) SW 223 1 min 0,000 mm 3,4 UV-I 632 W/m 8,7 C 19,4 C 3,2 km/h (1 Bft) 100,00 %
04.04.2016 13:03 19,4 C 50 % 1007,2 hPa 0,0 l/m 0,8 km/h (0 Bft) SW 223 1 min 0,000 mm 3,3 UV-I 604 W/m 8,7 C 19,4 C 3,2 km/h (1 Bft) 100,00 %
04.04.2016 13:04 19,3 C 50 % 1007,2 hPa 0,0 l/m 1,3 km/h (1 Bft) SW 225 1 min 0,000 mm 3,1 UV-I 563 W/m 8,6 C 19,3 C 3,2 km/h (1 Bft) 95,65 %
04.04.2016 13:05 19,4 C 52 % 1007,2 hPa 0,0 l/m 4,4 km/h (1 Bft) W 264 1 min 0,000 mm 3,1 UV-I 531 W/m 9,3 C 19,4 C 6,4 km/h (2 Bft) 100,00 %
04.04.2016 13:06 19,4 C 50 % 1007,2 hPa 0,0 l/m 1,9 km/h (1 Bft) W-SW 239 1 min 0,000 mm 3,0 UV-I 500 W/m 8,7 C 19,4 C 3,2 km/h (1 Bft) 100,00 %
04.04.2016 13:07 19,4 C 50 % 1007,2 hPa 0,0 l/m 1,5 km/h (1 Bft) SW 234 1 min 0,000 mm 3,0 UV-I 516 W/m 8,7 C 19,4 C 3,2 km/h (1 Bft) 100,00 %
04.04.2016 13:08 19,4 C 52 % 1007,2 hPa 0,0 l/m 3,1 km/h (1 Bft) W 263 1 min 0,000 mm 3,0 UV-I 536 W/m 9,3 C 19,4 C 4,8 km/h (1 Bft) 95,65 %
04.04.2016 13:09 19,4 C 50 % 1007,2 hPa 0,0 l/m 1,6 km/h (1 Bft) W 263 1 min 0,000 mm 3,1 UV-I 560 W/m 8,7 C 19,4 C 3,2 km/h (1 Bft) 100,00 %
04.04.2016 13:10 19,4 C 51 % 1007,2 hPa 0,0 l/m 3,5 km/h (1 Bft) W 263 1 min 0,000 mm 3,1 UV-I 564 W/m 9,0 C 19,4 C 6,4 km/h (2 Bft) 100,00 %
04.04.2016 13:11 19,5 C 51 % 1007,2 hPa 0,0 l/m 5,0 km/h (1 Bft) W 264 1 min 0,000 mm 3,1 UV-I 575 W/m 9,1 C 19,5 C 6,4 km/h (2 Bft) 100,00 %
04.04.2016 13:12 19,6 C 50 % 1007,2 hPa 0,0 l/m 4,2 km/h (1 Bft) W 265 1 min 0,000 mm 3,1 UV-I 579 W/m 8,9 C 19,6 C 6,4 km/h (2 Bft) 86,96 %
04.04.2016 13:13 19,6 C 49 % 1007,2 hPa 0,0 l/m 0,4 km/h (0 Bft) W 265 1 min 0,000 mm 3,1 UV-I 559 W/m 8,6 C 19,6 C 1,6 km/h (1 Bft) 95,83 %
04.04.2016 13:14 19,6 C 50 % 1007,2 hPa 0,0 l/m 1,4 km/h (1 Bft) W 265 1 min 0,000 mm 3,1 UV-I 551 W/m 8,9 C 19,6 C 3,2 km/h (1 Bft) 100,00 %
04.04.2016 13:15 19,6 C 55 % 1007,2 hPa 0,0 l/m 1,7 km/h (1 Bft) W 265 1 min 0,000 mm 3,1 UV-I 557 W/m 10,3 C 19,6 C 3,2 km/h (1 Bft) 100,00 %
04.04.2016 13:16 19,7 C 50 % 1007,2 hPa 0,0 l/m 3,0 km/h (1 Bft) W 266 1 min 0,000 mm 3,1 UV-I 562 W/m 9,0 C 19,7 C 6,4 km/h (2 Bft) 100,00 %
04.04.2016 13:17 19,7 C 51 % 1007,2 hPa 0,0 l/m 2,6 km/h (1 Bft) W 266 1 min 0,000 mm 3,1 UV-I 556 W/m 9,3 C 19,7 C 4,8 km/h (1 Bft) 100,00 %
04.04.2016 13:18 19,7 C 53 % 1007,2 hPa 0,0 l/m 5,0 km/h (1 Bft) W-SW 242 1 min 0,000 mm 3,1 UV-I 559 W/m 9,8 C 19,7 C 6,4 km/h (2 Bft) 100,00 %
04.04.2016 13:19 19,8 C 52 % 1007,2 hPa 0,0 l/m 2,5 km/h (1 Bft) SW 234 1 min 0,000 mm 3,1 UV-I 575 W/m 9,7 C 19,8 C 3,2 km/h (1 Bft) 95,65 %
04.04.2016 13:20 19,7 C 51 % 1007,2 hPa 0,0 l/m 0,6 km/h (0 Bft) SW 234 1 min 0,000 mm 3,0 UV-I 531 W/m 9,3 C 19,7 C 1,6 km/h (1 Bft) 100,00 %
04.04.2016 13:21 19,7 C 51 % 1007,2 hPa 0,0 l/m 0,1 km/h (0 Bft) SW 234 1 min 0,000 mm 2,8 UV-I 456 W/m 9,3 C 19,7 C 1,6 km/h (1 Bft) 100,00 %
04.04.2016 13:22 19,8 C 52 % 1007,2 hPa 0,0 l/m 1,0 km/h (0 Bft) SW 234 1 min 0,000 mm 2,6 UV-I 408 W/m 9,7 C 19,8 C 3,2 km/h (1 Bft) 100,00 %
04.04.2016 13:23 19,8 C 53 % 1007,1 hPa 0,0 l/m 1,0 km/h (0 Bft) SW 234 0 min 0,000 mm 2,5 UV-I 397 W/m 9,9 C 19,8 C 1,6 km/h (1 Bft) 95,65 %
04.04.2016 13:24 19,8 C 53 % 1007,1 hPa 0,0 l/m 0,4 km/h (0 Bft) SW 234 1 min 0,000 mm 2,5 UV-I 408 W/m 9,9 C 19,8 C 1,6 km/h (1 Bft) 100,00 %
04.04.2016 13:25 19,8 C 54 % 1007,1 hPa 0,0 l/m 1,5 km/h (1 Bft) N 355 0 min 0,000 mm 2,4 UV-I 356 W/m 10,2 C 19,8 C 3,2 km/h (1 Bft) 95,65 %
04.04.2016 13:26 19,7 C 51 % 1007,1 hPa 0,0 l/m 3,0 km/h (1 Bft) N 355 0 min 0,000 mm 2,3 UV-I 342 W/m 9,3 C 19,7 C 4,8 km/h (1 Bft) 100,00 %
04.04.2016 13:27 19,7 C 51 % 1007,1 hPa 0,0 l/m 1,1 km/h (1 Bft) N-NW 342 0 min 0,000 mm 2,4 UV-I 372 W/m 9,3 C 19,7 C 1,6 km/h (1 Bft) 100,00 %
04.04.2016 13:28 19,7 C 53 % 1007,1 hPa 0,0 l/m 1,0 km/h (0 Bft) N-NW 342 1 min 0,000 mm 2,5 UV-I 434 W/m 9,8 C 19,7 C 3,2 km/h (1 Bft) 100,00 %
04.04.2016 13:29 19,7 C 56 % 1007,1 hPa 0,0 l/m 2,6 km/h (1 Bft) NW 322 1 min 0,000 mm 2,9 UV-I 530 W/m 10,7 C 19,7 C 4,8 km/h (1 Bft) 100,00 %
04.04.2016 13:30 19,7 C 51 % 1007,1 hPa 0,0 l/m 0,5 km/h (0 Bft) NW 322 1 min 0,000 mm 3,0 UV-I 544 W/m 9,3 C 19,7 C 1,6 km/h (1 Bft) 100,00 %
04.04.2016 13:31 19,7 C 53 % 1007,1 hPa 0,0 l/m 1,9 km/h (1 Bft) NW 322 1 min 0,000 mm 3,2 UV-I 615 W/m 9,8 C 19,7 C 3,2 km/h (1 Bft) 100,00 %
04.04.2016 13:32 19,7 C 53 % 1007,1 hPa 0,0 l/m 2,7 km/h (1 Bft) NW 322 1 min 0,000 mm 3,5 UV-I 700 W/m 9,8 C 19,7 C 3,2 km/h (1 Bft) 95,65 %
04.04.2016 13:33 19,8 C 57 % 1007,1 hPa 0,0 l/m 2,2 km/h (1 Bft) NW 322 1 min 0,000 mm 3,5 UV-I 688 W/m 11,0 C 19,8 C 3,2 km/h (1 Bft) 100,00 %
04.04.2016 13:34 19,9 C 54 % 1007,1 hPa 0,0 l/m 0,7 km/h (0 Bft) NW 322 1 min 0,000 mm 3,5 UV-I 705 W/m 10,3 C 19,9 C 1,6 km/h (1 Bft) 100,00 %
04.04.2016 13:35 20,0 C 57 % 1007,1 hPa 0,0 l/m 0,8 km/h (0 Bft) NW 322 1 min 0,000 mm 3,4 UV-I 705 W/m 11,2 C 20,0 C 3,2 km/h (1 Bft) 100,00 %
04.04.2016 13:36 20,1 C 54 % 1007,1 hPa 0,0 l/m 0,6 km/h (0 Bft) NW 322 1 min 0,000 mm 3,6 UV-I 721 W/m 10,5 C 20,1 C 1,6 km/h (1 Bft) 100,00 %
04.04.2016 13:37 20,1 C 59 % 1007,1 hPa 0,0 l/m 2,5 km/h (1 Bft) NW 322 1 min 0,000 mm 3,7 UV-I 735 W/m 11,8 C 20,1 C 3,2 km/h (1 Bft) 100,00 %
04.04.2016 13:38 20,2 C 52 % 1007,0 hPa 0,0 l/m 2,3 km/h (1 Bft) N-NW 347 1 min 0,000 mm 3,7 UV-I 747 W/m 10,0 C 20,2 C 3,2 km/h (1 Bft) 100,00 %
04.04.2016 13:39 20,2 C 56 % 1007,0 hPa 0,0 l/m 0,6 km/h (0 Bft) N-NW 347 1 min 0,000 mm 3,7 UV-I 740 W/m 11,1 C 20,2 C 1,6 km/h (1 Bft) 100,00 %
04.04.2016 13:40 20,3 C 54 % 1007,0 hPa 0,0 l/m 2,8 km/h (1 Bft) N-NW 333 1 min 0,000 mm 3,7 UV-I 735 W/m 10,7 C 20,3 C 4,8 km/h (1 Bft) 100,00 %
04.04.2016 13:41 20,3 C 52 % 1007,0 hPa 0,0 l/m 2,7 km/h (1 Bft) NW 319 1 min 0,000 mm 3,7 UV-I 745 W/m 10,1 C 20,3 C 3,2 km/h (1 Bft) 100,00 %
04.04.2016 13:42 20,3 C 51 % 1007,0 hPa 0,0 l/m 2,6 km/h (1 Bft) NW 319 1 min 0,000 mm 3,8 UV-I 758 W/m 9,8 C 20,3 C 3,2 km/h (1 Bft) 100,00 %
04.04.2016 13:43 20,3 C 52 % 1007,0 hPa 0,0 l/m 1,1 km/h (1 Bft) NW 323 1 min 0,000 mm 3,8 UV-I 758 W/m 10,1 C 20,3 C 3,2 km/h (1 Bft) 100,00 %
04.04.2016 13:44 20,4 C 55 % 1006,9 hPa 0,0 l/m 1,8 km/h (1 Bft) N 9 1 min 0,000 mm 3,6 UV-I 742 W/m 11,1 C 20,4 C 4,8 km/h (1 Bft) 100,00 %
04.04.2016 13:45 20,5 C 54 % 1006,9 hPa 0,0 l/m 1,5 km/h (1 Bft) NW 326 1 min 0,000 mm 3,7 UV-I 705 W/m 10,9 C 20,5 C 3,2 km/h (1 Bft) 100,00 %
04.04.2016 13:46 20,7 C 53 % 1006,9 hPa 0,0 l/m 1,3 km/h (1 Bft) N 5 1 min 0,000 mm 3,6 UV-I 702 W/m 10,8 C 20,7 C 3,2 km/h (1 Bft) 100,00 %
04.04.2016 13:47 20,8 C 54 % 1006,8 hPa 0,0 l/m 2,7 km/h (1 Bft) NW 306 1 min 0,000 mm 3,6 UV-I 704 W/m 11,1 C 20,8 C 6,4 km/h (2 Bft) 100,00 %
04.04.2016 13:48 20,9 C 53 % 1006,8 hPa 0,0 l/m 4,3 km/h (1 Bft) NW 317 1 min 0,000 mm 3,7 UV-I 728 W/m 11,0 C 20,9 C 8,0 km/h (2 Bft) 100,00 %
04.04.2016 13:49 20,9 C 49 % 1006,8 hPa 0,0 l/m 4,3 km/h (1 Bft) W-NW 302 1 min 0,000 mm 3,7 UV-I 735 W/m 9,8 C 20,9 C 6,4 km/h (2 Bft) 100,00 %
04.04.2016 13:50 21,0 C 48 % 1006,8 hPa 0,0 l/m 5,4 km/h (1 Bft) N-NW 348 1 min 0,000 mm 3,6 UV-I 716 W/m 9,6 C 21,0 C 8,0 km/h (2 Bft) 95,83 %
04.04.2016 13:51 21,0 C 52 % 1006,9 hPa 0,0 l/m 1,5 km/h (1 Bft) N 355 1 min 0,000 mm 3,6 UV-I 725 W/m 10,8 C 21,0 C 3,2 km/h (1 Bft) 100,00 %
04.04.2016 13:52 20,9 C 52 % 1006,8 hPa 0,0 l/m 4,2 km/h (1 Bft) NW 323 1 min 0,000 mm 3,7 UV-I 732 W/m 10,7 C 20,9 C 6,4 km/h (2 Bft) 100,00 %
04.04.2016 13:53 20,9 C 47 % 1006,8 hPa 0,0 l/m 2,0 km/h (1 Bft) N-NW 327 1 min 0,000 mm 3,7 UV-I 736 W/m 9,2 C 20,9 C 3,2 km/h (1 Bft) 100,00 %
04.04.2016 13:54 20,9 C 49 % 1006,8 hPa 0,0 l/m 1,2 km/h (1 Bft) N-NW 327 1 min 0,000 mm 3,7 UV-I 738 W/m 9,8 C 20,9 C 3,2 km/h (1 Bft) 100,00 %
04.04.2016 13:55 20,9 C 51 % 1006,8 hPa 0,0 l/m 0,9 km/h (0 Bft) N-NW 327 1 min 0,000 mm 3,6 UV-I 731 W/m 10,4 C 20,9 C 1,6 km/h (1 Bft) 100,00 %
04.04.2016 13:56 21,1 C 50 % 1006,8 hPa 0,0 l/m 2,6 km/h (1 Bft) NW 321 1 min 0,000 mm 3,6 UV-I 730 W/m 10,3 C 21,1 C 4,8 km/h (1 Bft) 100,00 %
04.04.2016 13:57 21,1 C 52 % 1006,8 hPa 0,0 l/m 1,3 km/h (1 Bft) NW 323 1 min 0,000 mm 3,6 UV-I 726 W/m 10,9 C 21,1 C 3,2 km/h (1 Bft) 100,00 %
04.04.2016 13:58 21,1 C 50 % 1006,8 hPa 0,0 l/m 1,3 km/h (1 Bft) NW 323 1 min 0,000 mm 3,6 UV-I 726 W/m 10,3 C 21,1 C 3,2 km/h (1 Bft) 96,30 %
04.04.2016 13:59 21,1 C 49 % 1006,8 hPa 0,0 l/m 1,5 km/h (1 Bft) NW 323 1 min 0,000 mm 3,5 UV-I 718 W/m 10,0 C 21,1 C 4,8 km/h (1 Bft) 100,00 %
04.04.2016 14:00 21,1 C 49 % 1006,8 hPa 0,0 l/m 0,7 km/h (0 Bft) NW 323 1 min 0,000 mm 3,5 UV-I 712 W/m 10,0 C 21,1 C 3,2 km/h (1 Bft) 95,83 %
04.04.2016 14:01 21,1 C 47 % 1006,8 hPa 0,0 l/m 2,5 km/h (1 Bft) NW 322 1 min 0,381 mm 3,5 UV-I 713 W/m 9,3 C 21,1 C 3,2 km/h (1 Bft) 100,00 %
04.04.2016 14:02 21,1 C 47 % 1006,8 hPa 0,0 l/m 1,7 km/h (1 Bft) NW 322 1 min 0,000 mm 3,5 UV-I 703 W/m 9,3 C 21,1 C 3,2 km/h (1 Bft) 91,67 %
04.04.2016 14:03 21,2 C 49 % 1006,8 hPa 0,0 l/m 1,7 km/h (1 Bft) N 360 1 min 0,000 mm 3,5 UV-I 708 W/m 10,1 C 21,2 C 3,2 km/h (1 Bft) 95,65 %
04.04.2016 14:04 21,3 C 53 % 1006,8 hPa 0,0 l/m 1,4 km/h (1 Bft) N 349 1 min 0,000 mm 3,5 UV-I 706 W/m 11,3 C 21,3 C 3,2 km/h (1 Bft) 91,67 %
04.04.2016 14:05 21,3 C 45 % 1006,8 hPa 0,0 l/m 2,7 km/h (1 Bft) N-NW 333 1 min 0,000 mm 3,5 UV-I 704 W/m 8,9 C 21,3 C 4,8 km/h (1 Bft) 91,30 %
04.04.2016 14:06 21,2 C 45 % 1006,8 hPa 0,0 l/m 2,3 km/h (1 Bft) NW 317 1 min 0,000 mm 3,4 UV-I 700 W/m 8,8 C 21,2 C 4,8 km/h (1 Bft) 100,00 %
04.04.2016 14:07 21,2 C 45 % 1006,8 hPa 0,0 l/m 1,7 km/h (1 Bft) N 5 1 min 0,000 mm 3,4 UV-I 701 W/m 8,8 C 21,2 C 3,2 km/h (1 Bft) 95,65 %
04.04.2016 14:08 21,3 C 47 % 1006,8 hPa 0,0 l/m 0,6 km/h (0 Bft) N 5 1 min 0,000 mm 3,4 UV-I 700 W/m 9,5 C 21,3 C 1,6 km/h (1 Bft) 100,00 %
04.04.2016 14:09 21,3 C 46 % 1006,8 hPa 0,0 l/m 3,0 km/h (1 Bft) N 9 1 min 0,000 mm 3,4 UV-I 698 W/m 9,2 C 21,3 C 6,4 km/h (2 Bft) 95,65 %
04.04.2016 14:10 21,4 C 51 % 1006,7 hPa 0,0 l/m 2,7 km/h (1 Bft) N 355 1 min 0,000 mm 3,4 UV-I 695 W/m 10,8 C 21,4 C 4,8 km/h (1 Bft) 100,00 %
04.04.2016 14:11 21,4 C 44 % 1006,8 hPa 0,0 l/m 1,7 km/h (1 Bft) N 355 1 min 0,000 mm 3,4 UV-I 694 W/m 8,6 C 21,4 C 3,2 km/h (1 Bft) 86,96 %
04.04.2016 14:12 21,4 C 44 % 1006,8 hPa 0,0 l/m 2,0 km/h (1 Bft) N 355 1 min 0,000 mm 3,4 UV-I 694 W/m 8,6 C 21,4 C 3,2 km/h (1 Bft) 95,83 %
04.04.2016 14:13 21,3 C 42 % 1006,8 hPa 0,0 l/m 2,3 km/h (1 Bft) N 355 1 min 0,000 mm 3,4 UV-I 691 W/m 7,9 C 21,3 C 3,2 km/h (1 Bft) 100,00 %
04.04.2016 14:14 21,3 C 42 % 1006,8 hPa 0,0 l/m 2,6 km/h (1 Bft) N 355 1 min 0,000 mm 3,3 UV-I 691 W/m 7,9 C 21,3 C 3,2 km/h (1 Bft) 91,30 %
04.04.2016 14:15 21,4 C 45 % 1006,8 hPa 0,0 l/m 0,6 km/h (0 Bft) N 355 1 min 0,000 mm 3,3 UV-I 689 W/m 9,0 C 21,4 C 3,2 km/h (1 Bft) 100,00 %
04.04.2016 14:16 21,5 C 44 % 1006,7 hPa 0,0 l/m 1,0 km/h (0 Bft) N 360 1 min 0,000 mm 3,3 UV-I 687 W/m 8,7 C 21,5 C 3,2 km/h (1 Bft) 91,30 %
04.04.2016 14:17 21,5 C 49 % 1006,7 hPa 0,0 l/m 6,7 km/h (2 Bft) N-NO 19 1 min 0,000 mm 3,3 UV-I 683 W/m 10,3 C 21,4 C 9,7 km/h (2 Bft) 100,00 %
04.04.2016 14:18 21,6 C 53 % 1006,7 hPa 0,0 l/m 5,1 km/h (1 Bft) N-NO 14 1 min 0,000 mm 3,3 UV-I 682 W/m 11,6 C 21,6 C 8,0 km/h (2 Bft) 96,15 %
04.04.2016 14:19 21,7 C 51 % 1006,7 hPa 0,0 l/m 5,4 km/h (1 Bft) NO 38 1 min 0,000 mm 3,3 UV-I 680 W/m 11,1 C 21,7 C 8,0 km/h (2 Bft) 100,00 %
04.04.2016 14:20 21,8 C 49 % 1006,7 hPa 0,0 l/m 5,6 km/h (1 Bft) NW 326 1 min 0,000 mm 3,3 UV-I 679 W/m 10,6 C 21,8 C 6,4 km/h (2 Bft) 95,65 %
04.04.2016 14:21 21,8 C 48 % 1006,7 hPa 0,0 l/m 3,5 km/h (1 Bft) N-NW 334 1 min 0,000 mm 3,2 UV-I 677 W/m 10,3 C 21,8 C 4,8 km/h (1 Bft) 95,83 %
04.04.2016 14:22 21,7 C 47 % 1006,7 hPa 0,0 l/m 3,5 km/h (1 Bft) NW 311 1 min 0,000 mm 3,2 UV-I 677 W/m 9,9 C 21,7 C 6,4 km/h (2 Bft) 100,00 %
04.04.2016 14:23 21,7 C 44 % 1006,6 hPa 0,0 l/m 1,5 km/h (1 Bft) NW 311 1 min 0,000 mm 3,2 UV-I 675 W/m 8,9 C 21,7 C 3,2 km/h (1 Bft) 95,83 %
04.04.2016 14:24 21,7 C 47 % 1006,7 hPa 0,0 l/m 2,4 km/h (1 Bft) NW 309 1 min 0,000 mm 3,2 UV-I 673 W/m 9,9 C 21,7 C 4,8 km/h (1 Bft) 100,00 %
04.04.2016 14:25 21,8 C 41 % 1006,6 hPa 0,0 l/m 3,9 km/h (1 Bft) NO 46 1 min 0,000 mm 3,2 UV-I 673 W/m 8,0 C 21,8 C 8,0 km/h (2 Bft) 95,83 %
04.04.2016 14:26 21,8 C 43 % 1006,6 hPa 0,0 l/m 7,6 km/h (2 Bft) NO 53 1 min 0,000 mm 3,2 UV-I 671 W/m 8,7 C 21,4 C 9,7 km/h (2 Bft) 100,00 %
04.04.2016 14:27 21,8 C 40 % 1006,6 hPa 0,0 l/m 4,8 km/h (1 Bft) NO 52 1 min 0,000 mm 3,2 UV-I 670 W/m 7,6 C 21,8 C 8,0 km/h (2 Bft) 96,15 %
04.04.2016 14:28 21,9 C 40 % 1006,5 hPa 0,0 l/m 2,9 km/h (1 Bft) NO 34 1 min 0,000 mm 3,1 UV-I 666 W/m 7,7 C 21,9 C 4,8 km/h (1 Bft) 100,00 %
04.04.2016 14:29 21,9 C 47 % 1006,5 hPa 0,0 l/m 3,8 km/h (1 Bft) N-NW 348 1 min 0,000 mm 3,1 UV-I 662 W/m 10,1 C 21,9 C 8,0 km/h (2 Bft) 92,31 %
04.04.2016 14:30 21,9 C 49 % 1006,5 hPa 0,0 l/m 3,4 km/h (1 Bft) N-NO 24 1 min 0,000 mm 3,1 UV-I 662 W/m 10,7 C 21,9 C 6,4 km/h (2 Bft) 100,00 %
04.04.2016 14:31 21,9 C 43 % 1006,5 hPa 0,0 l/m 1,5 km/h (1 Bft) N 355 1 min 0,000 mm 3,1 UV-I 659 W/m 8,7 C 21,9 C 1,6 km/h (1 Bft) 100,00 %
04.04.2016 14:32 21,9 C 50 % 1006,5 hPa 0,0 l/m 1,4 km/h (1 Bft) N 10 1 min 0,000 mm 3,1 UV-I 658 W/m 11,0 C 21,9 C 3,2 km/h (1 Bft) 100,00 %
04.04.2016 14:33 21,9 C 43 % 1006,5 hPa 0,0 l/m 0,9 km/h (0 Bft) N-NW 331 1 min 0,000 mm 3,0 UV-I 656 W/m 8,7 C 21,9 C 1,6 km/h (1 Bft) 95,65 %
04.04.2016 14:34 21,9 C 44 % 1006,5 hPa 0,0 l/m 3,0 km/h (1 Bft) N-NO 13 1 min 0,000 mm 3,0 UV-I 656 W/m 9,1 C 21,9 C 6,4 km/h (2 Bft) 95,83 %
04.04.2016 14:35 21,9 C 43 % 1006,4 hPa 0,0 l/m 3,8 km/h (1 Bft) W-NW 293 1 min 0,000 mm 3,0 UV-I 654 W/m 8,7 C 21,9 C 4,8 km/h (1 Bft) 100,00 %
04.04.2016 14:36 21,9 C 43 % 1006,5 hPa 0,0 l/m 4,0 km/h (1 Bft) NW 321 1 min 0,000 mm 3,0 UV-I 652 W/m 8,7 C 21,9 C 6,4 km/h (2 Bft) 100,00 %
04.04.2016 14:37 22,0 C 41 % 1006,4 hPa 0,0 l/m 5,9 km/h (2 Bft) N-NW 347 1 min 0,000 mm 3,0 UV-I 650 W/m 8,1 C 22,0 C 8,0 km/h (2 Bft) 95,65 %
04.04.2016 14:38 22,1 C 40 % 1006,4 hPa 0,0 l/m 1,8 km/h (1 Bft) N-NW 327 1 min 0,000 mm 3,0 UV-I 652 W/m 7,9 C 22,1 C 3,2 km/h (1 Bft) 100,00 %
04.04.2016 14:39 22,1 C 42 % 1006,4 hPa 0,0 l/m 2,2 km/h (1 Bft) N 5 1 min 0,000 mm 3,0 UV-I 651 W/m 8,6 C 22,1 C 4,8 km/h (1 Bft) 100,00 %
04.04.2016 14:40 22,1 C 44 % 1006,4 hPa 0,0 l/m 2,5 km/h (1 Bft) NW 311 1 min 0,000 mm 3,0 UV-I 650 W/m 9,3 C 22,1 C 4,8 km/h (1 Bft) 100,00 %
04.04.2016 14:41 22,1 C 41 % 1006,3 hPa 0,0 l/m 3,4 km/h (1 Bft) NW 323 1 min 0,000 mm 3,0 UV-I 650 W/m 8,2 C 22,1 C 4,8 km/h (1 Bft) 100,00 %
04.04.2016 14:42 22,1 C 41 % 1006,3 hPa 0,0 l/m 2,6 km/h (1 Bft) NW 306 1 min 0,000 mm 3,0 UV-I 650 W/m 8,2 C 22,1 C 4,8 km/h (1 Bft) 95,83 %
04.04.2016 14:43 22,1 C 41 % 1006,3 hPa 0,0 l/m 1,0 km/h (0 Bft) NW 306 1 min 0,000 mm 3,0 UV-I 650 W/m 8,2 C 22,1 C 1,6 km/h (1 Bft) 100,00 %
04.04.2016 14:44 22,1 C 42 % 1006,3 hPa 0,0 l/m 1,3 km/h (1 Bft) N-NO 12 1 min 0,000 mm 2,9 UV-I 648 W/m 8,6 C 22,1 C 4,8 km/h (1 Bft) 100,00 %
04.04.2016 14:45 22,1 C 48 % 1006,3 hPa 0,0 l/m 1,5 km/h (1 Bft) NW 315 1 min 0,000 mm 2,9 UV-I 646 W/m 10,6 C 22,1 C 4,8 km/h (1 Bft) 100,00 %
04.04.2016 14:46 22,1 C 47 % 1006,3 hPa 0,0 l/m 2,1 km/h (1 Bft) NW 319 1 min 0,000 mm 2,9 UV-I 644 W/m 10,3 C 22,1 C 3,2 km/h (1 Bft) 100,00 %
04.04.2016 14:47 22,1 C 46 % 1006,3 hPa 0,0 l/m 3,7 km/h (1 Bft) W-NW 294 1 min 0,000 mm 2,9 UV-I 642 W/m 9,9 C 22,1 C 6,4 km/h (2 Bft) 100,00 %
04.04.2016 14:48 22,1 C 40 % 1006,3 hPa 0,0 l/m 4,4 km/h (1 Bft) NW 305 1 min 0,000 mm 2,9 UV-I 642 W/m 7,9 C 22,1 C 8,0 km/h (2 Bft) 100,00 %
04.04.2016 14:49 22,1 C 41 % 1006,3 hPa 0,0 l/m 5,6 km/h (1 Bft) W-NW 299 1 min 0,000 mm 2,9 UV-I 639 W/m 8,2 C 22,1 C 6,4 km/h (2 Bft) 100,00 %
04.04.2016 14:50 22,2 C 41 % 1006,2 hPa 0,0 l/m 3,8 km/h (1 Bft) N-NW 342 1 min 0,000 mm 2,9 UV-I 638 W/m 8,3 C 22,2 C 6,4 km/h (2 Bft) 100,00 %
04.04.2016 14:51 22,3 C 40 % 1006,2 hPa 0,0 l/m 3,4 km/h (1 Bft) W-NW 302 1 min 0,000 mm 2,8 UV-I 637 W/m 8,0 C 22,3 C 4,8 km/h (1 Bft) 95,83 %
04.04.2016 14:52 22,3 C 38 % 1006,2 hPa 0,0 l/m 2,1 km/h (1 Bft) NW 306 1 min 0,000 mm 2,8 UV-I 636 W/m 7,3 C 22,3 C 3,2 km/h (1 Bft) 100,00 %
04.04.2016 14:53 22,2 C 41 % 1006,2 hPa 0,0 l/m 3,7 km/h (1 Bft) W 280 1 min 0,000 mm 2,8 UV-I 638 W/m 8,3 C 22,2 C 6,4 km/h (2 Bft) 100,00 %
04.04.2016 14:54 22,3 C 40 % 1006,2 hPa 0,0 l/m 0,7 km/h (0 Bft) W 280 1 min 0,000 mm 2,8 UV-I 641 W/m 8,0 C 22,3 C 1,6 km/h (1 Bft) 100,00 %
04.04.2016 14:55 22,3 C 46 % 1006,2 hPa 0,0 l/m 1,5 km/h (1 Bft) N 5 1 min 0,000 mm 2,8 UV-I 639 W/m 10,1 C 22,3 C 4,8 km/h (1 Bft) 100,00 %
04.04.2016 14:56 22,3 C 43 % 1006,2 hPa 0,0 l/m 1,8 km/h (1 Bft) N-NO 13 1 min 0,000 mm 2,8 UV-I 638 W/m 9,1 C 22,3 C 3,2 km/h (1 Bft) 100,00 %
04.04.2016 14:57 22,4 C 49 % 1006,1 hPa 0,0 l/m 3,2 km/h (1 Bft) N-NO 19 1 min 0,000 mm 2,8 UV-I 637 W/m 11,2 C 22,4 C 6,4 km/h (2 Bft) 100,00 %
04.04.2016 14:58 22,4 C 44 % 1006,2 hPa 0,0 l/m 3,1 km/h (1 Bft) W-NW 293 1 min 0,000 mm 2,8 UV-I 636 W/m 9,5 C 22,4 C 4,8 km/h (1 Bft) 95,65 %
04.04.2016 14:59 22,4 C 43 % 1006,1 hPa 0,0 l/m 5,2 km/h (1 Bft) W 275 1 min 0,000 mm 2,7 UV-I 635 W/m 9,2 C 22,4 C 6,4 km/h (2 Bft) 100,00 %
04.04.2016 15:00 22,3 C 40 % 1006,1 hPa 0,0 l/m 0,9 km/h (0 Bft) W 275 1 min 0,432 mm 2,7 UV-I 631 W/m 8,0 C 22,3 C 1,6 km/h (1 Bft) 100,00 %
04.04.2016 15:01 22,2 C 40 % 1006,1 hPa 0,0 l/m 0,4 km/h (0 Bft) W 275 1 min 0,000 mm 2,7 UV-I 631 W/m 8,0 C 22,2 C 1,6 km/h (1 Bft) 100,00 %
04.04.2016 15:02 22,3 C 42 % 1006,1 hPa 0,0 l/m 0,8 km/h (0 Bft) W 275 1 min 0,000 mm 2,7 UV-I 632 W/m 8,8 C 22,3 C 3,2 km/h (1 Bft) 91,30 %
04.04.2016 15:03 22,4 C 48 % 1006,1 hPa 0,0 l/m 1,6 km/h (1 Bft) W-NW 284 1 min 0,000 mm 2,7 UV-I 635 W/m 10,8 C 22,4 C 3,2 km/h (1 Bft) 100,00 %
04.04.2016 15:04 22,4 C 44 % 1006,1 hPa 0,0 l/m 2,3 km/h (1 Bft) W-NW 286 1 min 0,000 mm 2,7 UV-I 638 W/m 9,5 C 22,4 C 3,2 km/h (1 Bft) 95,65 %
04.04.2016 15:05 22,6 C 50 % 1006,0 hPa 0,0 l/m 0,6 km/h (0 Bft) W-NW 293 1 min 0,000 mm 2,7 UV-I 636 W/m 11,6 C 22,6 C 1,6 km/h (1 Bft) 100,00 %
04.04.2016 15:06 22,6 C 46 % 1006,1 hPa 0,0 l/m 2,2 km/h (1 Bft) NW 315 1 min 0,000 mm 2,7 UV-I 636 W/m 10,4 C 22,6 C 4,8 km/h (1 Bft) 100,00 %
04.04.2016 15:07 22,7 C 44 % 1006,1 hPa 0,0 l/m 3,5 km/h (1 Bft) NW 317 1 min 0,000 mm 2,6 UV-I 634 W/m 9,8 C 22,7 C 4,8 km/h (1 Bft) 100,00 %
04.04.2016 15:08 22,7 C 43 % 1006,0 hPa 0,0 l/m 1,8 km/h (1 Bft) NW 319 1 min 0,000 mm 2,6 UV-I 633 W/m 9,5 C 22,7 C 3,2 km/h (1 Bft) 100,00 %
04.04.2016 15:09 22,7 C 45 % 1006,1 hPa 0,0 l/m 3,2 km/h (1 Bft) NW 313 1 min 0,000 mm 2,6 UV-I 632 W/m 10,1 C 22,7 C 6,4 km/h (2 Bft) 100,00 %
04.04.2016 15:10 22,7 C 45 % 1006,0 hPa 0,0 l/m 2,1 km/h (1 Bft) NW 317 1 min 0,000 mm 2,6 UV-I 631 W/m 10,1 C 22,7 C 3,2 km/h (1 Bft) 100,00 %
04.04.2016 15:11 22,6 C 43 % 1006,0 hPa 0,0 l/m 1,4 km/h (1 Bft) NW 317 1 min 0,000 mm 2,6 UV-I 629 W/m 9,4 C 22,6 C 3,2 km/h (1 Bft) 93,33 %
04.04.2016 15:12 22,6 C 42 % 1006,0 hPa 0,0 l/m 2,2 km/h (1 Bft) NW 319 1 min 0,000 mm 2,6 UV-I 627 W/m 9,0 C 22,6 C 3,2 km/h (1 Bft) 100,00 %
04.04.2016 15:13 22,6 C 42 % 1006,0 hPa 0,0 l/m 3,8 km/h (1 Bft) W-NW 300 1 min 0,000 mm 2,5 UV-I 625 W/m 9,0 C 22,6 C 6,4 km/h (2 Bft) 100,00 %
04.04.2016 15:14 22,6 C 42 % 1006,0 hPa 0,0 l/m 3,5 km/h (1 Bft) W-NW 303 1 min 0,000 mm 2,5 UV-I 625 W/m 9,0 C 22,6 C 4,8 km/h (1 Bft) 100,00 %
04.04.2016 15:15 22,6 C 39 % 1006,0 hPa 0,0 l/m 1,9 km/h (1 Bft) NW 304 1 min 0,000 mm 2,5 UV-I 623 W/m 7,9 C 22,6 C 3,2 km/h (1 Bft) 95,65 %
04.04.2016 15:16 22,6 C 41 % 1006,0 hPa 0,0 l/m 4,6 km/h (1 Bft) NW 306 1 min 0,000 mm 2,5 UV-I 620 W/m 8,7 C 22,6 C 9,7 km/h (2 Bft) 100,00 %
04.04.2016 15:17 22,7 C 47 % 1006,0 hPa 0,0 l/m 4,2 km/h (1 Bft) W-NW 294 1 min 0,000 mm 2,5 UV-I 613 W/m 10,8 C 22,7 C 6,4 km/h (2 Bft) 100,00 %
04.04.2016 15:18 22,7 C 40 % 1006,0 hPa 0,0 l/m 5,2 km/h (1 Bft) W-NW 290 1 min 0,000 mm 2,4 UV-I 612 W/m 8,4 C 22,7 C 8,0 km/h (2 Bft) 100,00 %
04.04.2016 15:19 22,7 C 40 % 1006,0 hPa 0,0 l/m 4,2 km/h (1 Bft) W-NW 294 1 min 0,000 mm 2,4 UV-I 611 W/m 8,4 C 22,7 C 6,4 km/h (2 Bft) 100,00 %
04.04.2016 15:20 22,7 C 39 % 1006,0 hPa 0,0 l/m 3,0 km/h (1 Bft) NW 306 1 min 0,000 mm 2,4 UV-I 607 W/m 8,0 C 22,7 C 4,8 km/h (1 Bft) 100,00 %
04.04.2016 15:21 22,8 C 47 % 1006,0 hPa 0,0 l/m 2,2 km/h (1 Bft) NW 308 1 min 0,000 mm 2,4 UV-I 601 W/m 10,9 C 22,8 C 3,2 km/h (1 Bft) 100,00 %
04.04.2016 15:22 22,9 C 42 % 1006,0 hPa 0,0 l/m 1,0 km/h (0 Bft) NW 306 1 min 0,000 mm 2,4 UV-I 599 W/m 9,3 C 22,9 C 3,2 km/h (1 Bft) 100,00 %
04.04.2016 15:23 22,9 C 42 % 1005,9 hPa 0,0 l/m 0,5 km/h (0 Bft) NW 306 1 min 0,000 mm 2,4 UV-I 598 W/m 9,3 C 22,9 C 1,6 km/h (1 Bft) 98,30 %
04.04.2016 15:26 22,8 C 42 % 1005,9 hPa 0,0 l/m 2,0 km/h (1 Bft) NW 323 3 min 0,000 mm 2,3 UV-I 590 W/m 9,2 C 22,8 C 4,8 km/h (1 Bft) 98,89 %
04.04.2016 15:27 22,8 C 40 % 1005,9 hPa 0,0 l/m 1,8 km/h (1 Bft) NW 321 1 min 0,000 mm 2,3 UV-I 585 W/m 8,5 C 22,8 C 3,2 km/h (1 Bft) 100,00 %
04.04.2016 15:28 22,8 C 42 % 1005,9 hPa 0,0 l/m 1,5 km/h (1 Bft) NW 321 1 min 0,000 mm 2,2 UV-I 581 W/m 9,2 C 22,8 C 3,2 km/h (1 Bft) 95,65 %
04.04.2016 15:30 22,8 C 40 % 1005,8 hPa 0,0 l/m 1,6 km/h (1 Bft) NW 315 2 min 0,000 mm 2,2 UV-I 580 W/m 8,5 C 22,8 C 4,8 km/h (1 Bft) 100,00 %
04.04.2016 15:36 22,9 C 42 % 1005,8 hPa 0,0 l/m 2,7 km/h (1 Bft) O-NO 69 6 min 0,000 mm 2,0 UV-I 565 W/m 9,3 C 22,9 C 4,8 km/h (1 Bft) 96,79 %
04.04.2016 15:37 22,8 C 39 % 1005,8 hPa 0,0 l/m 1,5 km/h (1 Bft) O-NO 66 1 min 0,000 mm 2,1 UV-I 556 W/m 8,1 C 22,8 C 4,8 km/h (1 Bft) 100,00 %
04.04.2016 15:38 22,8 C 40 % 1005,8 hPa 0,0 l/m 3,0 km/h (1 Bft) NO 48 1 min 0,000 mm 2,1 UV-I 560 W/m 8,5 C 22,8 C 4,8 km/h (1 Bft) 100,00 %
04.04.2016 15:39 22,8 C 45 % 1005,8 hPa 0,0 l/m 2,7 km/h (1 Bft) NO 48 1 min 0,000 mm 2,1 UV-I 560 W/m 10,2 C 22,8 C 3,2 km/h (1 Bft) 100,00 %
04.04.2016 15:40 22,8 C 43 % 1005,8 hPa 0,0 l/m 1,6 km/h (1 Bft) NO 36 1 min 0,000 mm 2,1 UV-I 557 W/m 9,6 C 22,8 C 3,2 km/h (1 Bft) 100,00 %
04.04.2016 15:41 22,9 C 45 % 1005,7 hPa 0,0 l/m 5,3 km/h (1 Bft) NO 44 1 min 0,000 mm 2,1 UV-I 558 W/m 10,3 C 22,9 C 9,7 km/h (2 Bft) 100,00 %
04.04.2016 15:42 22,9 C 43 % 1005,7 hPa 0,0 l/m 6,4 km/h (2 Bft) NO 52 1 min 0,000 mm 2,0 UV-I 554 W/m 9,6 C 22,9 C 8,0 km/h (2 Bft) 100,00 %
04.04.2016 15:43 22,9 C 43 % 1005,7 hPa 0,0 l/m 7,0 km/h (2 Bft) NO 48 1 min 0,000 mm 2,0 UV-I 550 W/m 9,6 C 22,7 C 9,7 km/h (2 Bft) 100,00 %
04.04.2016 15:44 22,9 C 47 % 1005,7 hPa 0,0 l/m 7,1 km/h (2 Bft) N-NW 327 1 min 0,000 mm 2,0 UV-I 546 W/m 11,0 C 22,7 C 8,0 km/h (2 Bft) 100,00 %
04.04.2016 15:45 22,9 C 49 % 1005,6 hPa 0,0 l/m 2,8 km/h (1 Bft) N-NO 19 1 min 0,000 mm 2,0 UV-I 547 W/m 11,6 C 22,9 C 4,8 km/h (1 Bft) 100,00 %
04.04.2016 15:46 22,8 C 49 % 1005,6 hPa 0,0 l/m 10,2 km/h (2 Bft) NO 40 1 min 0,000 mm 2,0 UV-I 548 W/m 11,5 C 21,7 C 14,5 km/h (3 Bft) 100,00 %
04.04.2016 15:47 22,8 C 45 % 1005,6 hPa 0,0 l/m 9,0 km/h (2 Bft) N 5 1 min 0,000 mm 2,0 UV-I 545 W/m 10,2 C 22,0 C 12,9 km/h (3 Bft) 96,30 %
04.04.2016 15:48 22,8 C 46 % 1005,6 hPa 0,0 l/m 7,0 km/h (2 Bft) O-NO 58 1 min 0,000 mm 1,9 UV-I 538 W/m 10,6 C 22,6 C 12,9 km/h (3 Bft) 95,65 %
04.04.2016 15:49 22,8 C 40 % 1005,5 hPa 0,0 l/m 9,8 km/h (2 Bft) NO 55 1 min 0,000 mm 1,9 UV-I 531 W/m 8,5 C 21,8 C 12,9 km/h (3 Bft) 100,00 %
04.04.2016 15:50 22,8 C 40 % 1005,5 hPa 0,0 l/m 9,1 km/h (2 Bft) O-NO 60 1 min 0,000 mm 1,9 UV-I 528 W/m 8,5 C 22,0 C 12,9 km/h (3 Bft) 100,00 %
04.04.2016 15:51 22,8 C 41 % 1005,5 hPa 0,0 l/m 7,2 km/h (2 Bft) O-NO 65 1 min 0,000 mm 1,9 UV-I 525 W/m 8,9 C 22,5 C 12,9 km/h (3 Bft) 100,00 %
04.04.2016 15:52 22,7 C 39 % 1005,5 hPa 0,0 l/m 7,2 km/h (2 Bft) O-NO 76 1 min 0,000 mm 1,8 UV-I 517 W/m 8,0 C 22,4 C 11,3 km/h (2 Bft) 100,00 %
04.04.2016 15:53 22,7 C 41 % 1005,5 hPa 0,0 l/m 7,5 km/h (2 Bft) O-NO 76 1 min 0,000 mm 1,6 UV-I 492 W/m 8,8 C 22,3 C 12,9 km/h (3 Bft) 95,83 %
04.04.2016 15:54 22,7 C 40 % 1005,5 hPa 0,0 l/m 5,0 km/h (1 Bft) NO 43 1 min 0,000 mm 1,3 UV-I 492 W/m 8,4 C 22,7 C 8,0 km/h (2 Bft) 95,65 %
04.04.2016 15:55 22,6 C 42 % 1005,5 hPa 0,0 l/m 5,5 km/h (1 Bft) N-NO 24 1 min 0,000 mm 1,3 UV-I 492 W/m 9,0 C 22,6 C 6,4 km/h (2 Bft) 93,33 %
04.04.2016 15:56 22,6 C 42 % 1005,4 hPa 0,0 l/m 3,7 km/h (1 Bft) O-NO 61 1 min 0,000 mm 1,5 UV-I 492 W/m 9,0 C 22,6 C 4,8 km/h (1 Bft) 100,00 %
04.04.2016 15:57 22,6 C 43 % 1005,5 hPa 0,0 l/m 3,6 km/h (1 Bft) O-NO 62 1 min 0,000 mm 1,7 UV-I 520 W/m 9,4 C 22,6 C 6,4 km/h (2 Bft) 96,15 %
04.04.2016 15:58 22,7 C 41 % 1005,5 hPa 0,0 l/m 3,1 km/h (1 Bft) NO 49 1 min 0,000 mm 1,7 UV-I 527 W/m 8,8 C 22,7 C 6,4 km/h (2 Bft) 96,55 %
04.04.2016 15:59 22,7 C 44 % 1005,4 hPa 0,0 l/m 3,5 km/h (1 Bft) N 5 1 min 0,000 mm 1,7 UV-I 529 W/m 9,8 C 22,7 C 4,8 km/h (1 Bft) 100,00 %
04.04.2016 16:00 22,7 C 46 % 1005,4 hPa 0,0 l/m 1,9 km/h (1 Bft) N 360 1 min 0,000 mm 1,7 UV-I 532 W/m 10,5 C 22,7 C 3,2 km/h (1 Bft) 92,59 %
04.04.2016 16:01 22,7 C 42 % 1005,4 hPa 0,0 l/m 1,0 km/h (0 Bft) N 360 1 min 0,381 mm 1,7 UV-I 543 W/m 9,1 C 22,7 C 3,2 km/h (1 Bft) 100,00 %
04.04.2016 16:02 22,6 C 41 % 1005,5 hPa 0,0 l/m 2,6 km/h (1 Bft) N-NO 30 1 min 0,000 mm 1,7 UV-I 546 W/m 8,7 C 22,6 C 4,8 km/h (1 Bft) 95,83 %
04.04.2016 16:03 22,6 C 42 % 1005,4 hPa 0,0 l/m 3,5 km/h (1 Bft) NO 54 1 min 0,000 mm 1,7 UV-I 529 W/m 9,0 C 22,6 C 4,8 km/h (1 Bft) 100,00 %
04.04.2016 16:04 22,6 C 41 % 1005,4 hPa 0,0 l/m 4,8 km/h (1 Bft) O 84 1 min 0,000 mm 1,7 UV-I 519 W/m 8,7 C 22,6 C 6,4 km/h (2 Bft) 95,83 %
04.04.2016 16:05 22,6 C 40 % 1005,4 hPa 0,0 l/m 2,9 km/h (1 Bft) NO 45 1 min 0,000 mm 1,7 UV-I 506 W/m 8,3 C 22,6 C 4,8 km/h (1 Bft) 95,65 %
04.04.2016 16:06 22,6 C 41 % 1005,4 hPa 0,0 l/m 4,6 km/h (1 Bft) NO 45 1 min 0,000 mm 1,6 UV-I 493 W/m 8,7 C 22,6 C 6,4 km/h (2 Bft) 100,00 %
04.04.2016 16:07 22,7 C 44 % 1005,4 hPa 0,0 l/m 4,8 km/h (1 Bft) N-NO 26 1 min 0,000 mm 1,6 UV-I 488 W/m 9,8 C 22,7 C 6,4 km/h (2 Bft) 100,00 %
04.04.2016 16:08 22,7 C 43 % 1005,4 hPa 0,0 l/m 2,1 km/h (1 Bft) N-NO 22 1 min 0,000 mm 1,6 UV-I 488 W/m 9,5 C 22,7 C 3,2 km/h (1 Bft) 96,97 %
04.04.2016 16:09 22,7 C 41 % 1005,4 hPa 0,0 l/m 0,6 km/h (0 Bft) N-NO 22 1 min 0,000 mm 1,6 UV-I 489 W/m 8,8 C 22,7 C 1,6 km/h (1 Bft) 95,65 %
04.04.2016 16:10 22,6 C 42 % 1005,4 hPa 0,0 l/m 0,8 km/h (0 Bft) N-NO 22 1 min 0,000 mm 1,6 UV-I 484 W/m 9,0 C 22,6 C 1,6 km/h (1 Bft) 100,00 %
04.04.2016 16:11 22,7 C 44 % 1005,4 hPa 0,0 l/m 0,3 km/h (0 Bft) N-NO 22 1 min 0,000 mm 1,6 UV-I 479 W/m 9,8 C 22,7 C 1,6 km/h (1 Bft) 91,67 %
04.04.2016 16:12 22,7 C 42 % 1005,4 hPa 0,0 l/m 2,2 km/h (1 Bft) N-NO 22 1 min 0,000 mm 1,6 UV-I 479 W/m 9,1 C 22,7 C 4,8 km/h (1 Bft) 100,00 %
04.04.2016 16:13 22,6 C 42 % 1005,4 hPa 0,0 l/m 2,2 km/h (1 Bft) N-NO 20 1 min 0,000 mm 1,5 UV-I 482 W/m 9,0 C 22,6 C 4,8 km/h (1 Bft) 95,65 %
04.04.2016 16:14 22,6 C 45 % 1005,4 hPa 0,0 l/m 2,8 km/h (1 Bft) N-NO 20 1 min 0,000 mm 1,5 UV-I 480 W/m 10,1 C 22,6 C 6,4 km/h (2 Bft) 96,30 %
04.04.2016 16:15 22,7 C 44 % 1005,4 hPa 0,0 l/m 6,3 km/h (2 Bft) N-NO 15 1 min 0,000 mm 1,5 UV-I 478 W/m 9,8 C 22,7 C 9,7 km/h (2 Bft) 100,00 %
04.04.2016 16:16 22,6 C 46 % 1005,4 hPa 0,0 l/m 2,6 km/h (1 Bft) N-NO 15 1 min 0,000 mm 1,5 UV-I 474 W/m 10,4 C 22,6 C 4,8 km/h (1 Bft) 95,83 %
04.04.2016 16:17 22,6 C 43 % 1005,4 hPa 0,0 l/m 1,6 km/h (1 Bft) N-NO 15 1 min 0,000 mm 1,5 UV-I 471 W/m 9,4 C 22,6 C 3,2 km/h (1 Bft) 100,00 %
04.04.2016 16:18 22,7 C 46 % 1005,4 hPa 0,0 l/m 2,6 km/h (1 Bft) N-NO 15 1 min 0,000 mm 1,5 UV-I 469 W/m 10,5 C 22,7 C 4,8 km/h (1 Bft) 96,15 %
04.04.2016 16:19 22,6 C 43 % 1005,3 hPa 0,0 l/m 2,3 km/h (1 Bft) NO 38 1 min 0,000 mm 1,5 UV-I 464 W/m 9,4 C 22,6 C 8,0 km/h (2 Bft) 100,00 %
04.04.2016 16:20 22,7 C 48 % 1005,3 hPa 0,0 l/m 5,9 km/h (2 Bft) NO 35 1 min 0,000 mm 1,4 UV-I 461 W/m 11,1 C 22,7 C 8,0 km/h (2 Bft) 92,31 %
04.04.2016 16:21 22,7 C 47 % 1005,3 hPa 0,0 l/m 7,2 km/h (2 Bft) NO 38 1 min 0,000 mm 1,4 UV-I 459 W/m 10,8 C 22,4 C 9,7 km/h (2 Bft) 100,00 %
04.04.2016 16:22 22,7 C 45 % 1005,3 hPa 0,0 l/m 6,3 km/h (2 Bft) O-NO 66 1 min 0,000 mm 1,4 UV-I 457 W/m 10,1 C 22,7 C 8,0 km/h (2 Bft) 95,65 %
04.04.2016 16:23 22,8 C 42 % 1005,4 hPa 0,0 l/m 3,4 km/h (1 Bft) N-NO 30 1 min 0,000 mm 1,4 UV-I 454 W/m 9,2 C 22,8 C 4,8 km/h (1 Bft) 95,83 %
04.04.2016 16:24 22,9 C 46 % 1005,3 hPa 0,0 l/m 6,0 km/h (2 Bft) NO 40 1 min 0,000 mm 1,4 UV-I 450 W/m 10,7 C 22,9 C 9,7 km/h (2 Bft) 100,00 %
04.04.2016 16:25 22,9 C 42 % 1005,3 hPa 0,0 l/m 7,4 km/h (2 Bft) NO 36 1 min 0,000 mm 1,4 UV-I 447 W/m 9,3 C 22,6 C 9,7 km/h (2 Bft) 100,00 %
04.04.2016 16:26 22,9 C 42 % 1005,4 hPa 0,0 l/m 4,6 km/h (1 Bft) NO 34 1 min 0,000 mm 1,3 UV-I 443 W/m 9,3 C 22,9 C 6,4 km/h (2 Bft) 100,00 %
04.04.2016 16:27 22,8 C 43 % 1005,3 hPa 0,0 l/m 2,7 km/h (1 Bft) NO 34 1 min 0,000 mm 1,3 UV-I 439 W/m 9,6 C 22,8 C 3,2 km/h (1 Bft) 100,00 %
04.04.2016 16:28 22,8 C 39 % 1005,4 hPa 0,0 l/m 2,9 km/h (1 Bft) NO 50 1 min 0,000 mm 1,3 UV-I 438 W/m 8,1 C 22,8 C 4,8 km/h (1 Bft) 96,15 %
04.04.2016 16:29 22,8 C 40 % 1005,4 hPa 0,0 l/m 2,2 km/h (1 Bft) NO 50 1 min 0,000 mm 1,3 UV-I 435 W/m 8,5 C 22,8 C 3,2 km/h (1 Bft) 100,00 %
04.04.2016 16:30 22,8 C 39 % 1005,4 hPa 0,0 l/m 0,2 km/h (0 Bft) NO 50 1 min 0,000 mm 1,3 UV-I 433 W/m 8,1 C 22,8 C 1,6 km/h (1 Bft) 96,15 %
04.04.2016 16:31 22,8 C 40 % 1005,4 hPa 0,0 l/m 0,3 km/h (0 Bft) NO 50 1 min 0,000 mm 1,3 UV-I 431 W/m 8,5 C 22,8 C 1,6 km/h (1 Bft) 95,83 %
04.04.2016 16:32 22,8 C 40 % 1005,4 hPa 0,0 l/m 0,3 km/h (0 Bft) NO 50 1 min 0,000 mm 1,3 UV-I 426 W/m 8,5 C 22,8 C 1,6 km/h (1 Bft) 100,00 %
04.04.2016 16:33 22,7 C 41 % 1005,4 hPa 0,0 l/m 0,1 km/h (0 Bft) NO 50 1 min 0,000 mm 1,3 UV-I 424 W/m 8,8 C 22,7 C 1,6 km/h (1 Bft) 100,00 %
04.04.2016 16:34 22,7 C 41 % 1005,4 hPa 0,0 l/m 2,9 km/h (1 Bft) O 96 1 min 0,000 mm 1,2 UV-I 421 W/m 8,8 C 22,7 C 4,8 km/h (1 Bft) 96,15 %
04.04.2016 16:35 22,7 C 40 % 1005,4 hPa 0,0 l/m 3,9 km/h (1 Bft) O-SO 103 1 min 0,000 mm 1,2 UV-I 418 W/m 8,4 C 22,7 C 4,8 km/h (1 Bft) 100,00 %
04.04.2016 16:36 22,7 C 41 % 1005,4 hPa 0,0 l/m 3,5 km/h (1 Bft) O-SO 105 1 min 0,000 mm 1,2 UV-I 416 W/m 8,8 C 22,7 C 4,8 km/h (1 Bft) 100,00 %
04.04.2016 16:37 22,7 C 43 % 1005,4 hPa 0,0 l/m 5,9 km/h (2 Bft) O 93 1 min 0,000 mm 1,2 UV-I 413 W/m 9,5 C 22,7 C 6,4 km/h (2 Bft) 100,00 %
04.04.2016 16:38 22,7 C 41 % 1005,3 hPa 0,0 l/m 4,5 km/h (1 Bft) O-NO 78 1 min 0,000 mm 1,2 UV-I 411 W/m 8,8 C 22,7 C 6,4 km/h (2 Bft) 100,00 %
04.04.2016 16:39 22,7 C 41 % 1005,2 hPa 0,0 l/m 4,2 km/h (1 Bft) O-NO 69 1 min 0,000 mm 1,2 UV-I 410 W/m 8,8 C 22,7 C 6,4 km/h (2 Bft) 100,00 %
04.04.2016 16:40 22,7 C 40 % 1005,2 hPa 0,0 l/m 2,7 km/h (1 Bft) O-NO 78 1 min 0,000 mm 1,2 UV-I 405 W/m 8,4 C 22,7 C 4,8 km/h (1 Bft) 100,00 %
04.04.2016 16:41 22,7 C 39 % 1005,2 hPa 0,0 l/m 0,3 km/h (0 Bft) O-NO 78 1 min 0,000 mm 1,1 UV-I 403 W/m 8,0 C 22,7 C 1,6 km/h (1 Bft) 96,15 %
04.04.2016 16:42 22,7 C 39 % 1005,2 hPa 0,0 l/m 1,2 km/h (1 Bft) O-NO 78 1 min 0,000 mm 1,1 UV-I 400 W/m 8,0 C 22,7 C 1,6 km/h (1 Bft) 100,00 %
04.04.2016 16:43 22,7 C 40 % 1005,2 hPa 0,0 l/m 1,8 km/h (1 Bft) N 355 1 min 0,000 mm 1,1 UV-I 399 W/m 8,4 C 22,7 C 3,2 km/h (1 Bft) 100,00 %
04.04.2016 16:44 22,7 C 40 % 1005,2 hPa 0,0 l/m 1,1 km/h (1 Bft) N 355 1 min 0,000 mm 1,1 UV-I 399 W/m 8,4 C 22,7 C 1,6 km/h (1 Bft) 96,67 %
04.04.2016 16:45 22,7 C 41 % 1005,2 hPa 0,0 l/m 2,2 km/h (1 Bft) O 84 1 min 0,000 mm 1,1 UV-I 399 W/m 8,8 C 22,7 C 4,8 km/h (1 Bft) 100,00 %
04.04.2016 16:46 22,7 C 41 % 1005,2 hPa 0,0 l/m 0,9 km/h (0 Bft) O 84 1 min 0,000 mm 1,1 UV-I 394 W/m 8,8 C 22,7 C 3,2 km/h (1 Bft) 100,00 %
04.04.2016 16:47 22,8 C 40 % 1005,2 hPa 0,0 l/m 2,9 km/h (1 Bft) O 86 1 min 0,000 mm 1,1 UV-I 389 W/m 8,5 C 22,8 C 4,8 km/h (1 Bft) 95,65 %
04.04.2016 16:48 22,8 C 44 % 1005,2 hPa 0,0 l/m 2,1 km/h (1 Bft) O 86 1 min 0,000 mm 1,1 UV-I 387 W/m 9,9 C 22,8 C 4,8 km/h (1 Bft) 100,00 %
04.04.2016 16:49 22,8 C 42 % 1005,2 hPa 0,0 l/m 1,0 km/h (0 Bft) O 86 1 min 0,000 mm 1,0 UV-I 384 W/m 9,2 C 22,8 C 1,6 km/h (1 Bft) 100,00 %
04.04.2016 16:50 22,8 C 41 % 1005,1 hPa 0,0 l/m 0,3 km/h (0 Bft) O 86 1 min 0,000 mm 1,0 UV-I 377 W/m 8,9 C 22,8 C 1,6 km/h (1 Bft) 100,00 %
04.04.2016 16:51 22,8 C 42 % 1005,1 hPa 0,0 l/m 1,4 km/h (1 Bft) O 86 1 min 0,000 mm 1,0 UV-I 378 W/m 9,2 C 22,8 C 3,2 km/h (1 Bft) 100,00 %
04.04.2016 16:52 22,8 C 44 % 1005,1 hPa 0,0 l/m 0,5 km/h (0 Bft) O 86 1 min 0,000 mm 1,0 UV-I 377 W/m 9,9 C 22,8 C 1,6 km/h (1 Bft) 100,00 %
04.04.2016 16:53 22,9 C 44 % 1005,1 hPa 0,0 l/m 3,9 km/h (1 Bft) NO 39 1 min 0,000 mm 1,0 UV-I 375 W/m 10,0 C 22,9 C 6,4 km/h (2 Bft) 100,00 %
04.04.2016 16:54 22,9 C 42 % 1005,1 hPa 0,0 l/m 5,8 km/h (2 Bft) O-NO 57 1 min 0,000 mm 1,0 UV-I 373 W/m 9,3 C 22,9 C 8,0 km/h (2 Bft) 100,00 %
04.04.2016 16:55 22,9 C 44 % 1005,1 hPa 0,0 l/m 6,4 km/h (2 Bft) NO 49 1 min 0,000 mm 1,0 UV-I 372 W/m 10,0 C 22,9 C 8,0 km/h (2 Bft) 100,00 %
04.04.2016 16:56 22,9 C 41 % 1005,1 hPa 0,0 l/m 8,0 km/h (2 Bft) NO 42 1 min 0,000 mm 1,0 UV-I 369 W/m 8,9 C 22,4 C 9,7 km/h (2 Bft) 100,00 %
04.04.2016 16:57 22,9 C 43 % 1005,1 hPa 0,0 l/m 6,7 km/h (2 Bft) NO 42 1 min 0,000 mm 0,9 UV-I 366 W/m 9,6 C 22,8 C 8,0 km/h (2 Bft) 95,83 %
04.04.2016 16:58 22,9 C 41 % 1005,1 hPa 0,0 l/m 4,9 km/h (1 Bft) NO 49 1 min 0,000 mm 0,9 UV-I 364 W/m 8,9 C 22,9 C 6,4 km/h (2 Bft) 100,00 %
04.04.2016 16:59 22,9 C 42 % 1005,1 hPa 0,0 l/m 3,6 km/h (1 Bft) NO 46 1 min 0,000 mm 0,9 UV-I 361 W/m 9,3 C 22,9 C 6,4 km/h (2 Bft) 100,00 %
04.04.2016 17:00 22,9 C 43 % 1005,1 hPa 0,0 l/m 7,2 km/h (2 Bft) NO 45 1 min 0,305 mm 0,9 UV-I 358 W/m 9,6 C 22,6 C 8,0 km/h (2 Bft) 100,00 %
04.04.2016 17:01 22,9 C 43 % 1005,1 hPa 0,0 l/m 6,0 km/h (2 Bft) NO 45 1 min 0,000 mm 0,9 UV-I 355 W/m 9,6 C 22,9 C 8,0 km/h (2 Bft) 100,00 %
04.04.2016 17:02 22,9 C 44 % 1005,1 hPa 0,0 l/m 5,6 km/h (1 Bft) NO 36 1 min 0,000 mm 0,9 UV-I 353 W/m 10,0 C 22,9 C 8,0 km/h (2 Bft) 100,00 %
04.04.2016 17:03 22,8 C 41 % 1005,1 hPa 0,0 l/m 2,0 km/h (1 Bft) NO 36 1 min 0,000 mm 0,9 UV-I 352 W/m 8,9 C 22,8 C 4,8 km/h (1 Bft) 100,00 %
04.04.2016 17:04 22,8 C 40 % 1005,1 hPa 0,0 l/m 2,8 km/h (1 Bft) NO 36 1 min 0,000 mm 0,9 UV-I 349 W/m 8,5 C 22,8 C 4,8 km/h (1 Bft) 100,00 %
04.04.2016 17:05 22,8 C 41 % 1005,1 hPa 0,0 l/m 1,8 km/h (1 Bft) NO 36 1 min 0,000 mm 0,9 UV-I 346 W/m 8,9 C 22,8 C 3,2 km/h (1 Bft) 100,00 %
04.04.2016 17:06 22,8 C 41 % 1005,1 hPa 0,0 l/m 2,1 km/h (1 Bft) NO 42 1 min 0,000 mm 0,8 UV-I 344 W/m 8,9 C 22,8 C 3,2 km/h (1 Bft) 100,00 %
04.04.2016 17:07 22,9 C 42 % 1005,1 hPa 0,0 l/m 4,0 km/h (1 Bft) NO 36 1 min 0,000 mm 0,8 UV-I 341 W/m 9,3 C 22,9 C 4,8 km/h (1 Bft) 100,00 %
04.04.2016 17:08 22,8 C 45 % 1005,1 hPa 0,0 l/m 4,6 km/h (1 Bft) N-NO 29 1 min 0,000 mm 0,8 UV-I 339 W/m 10,2 C 22,8 C 8,0 km/h (2 Bft) 100,00 %
04.04.2016 17:09 22,8 C 42 % 1005,0 hPa 0,0 l/m 2,6 km/h (1 Bft) N-NO 29 1 min 0,000 mm 0,8 UV-I 338 W/m 9,2 C 22,8 C 3,2 km/h (1 Bft) 100,00 %
04.04.2016 17:10 22,8 C 39 % 1005,0 hPa 0,0 l/m 3,1 km/h (1 Bft) NO 36 1 min 0,000 mm 0,8 UV-I 334 W/m 8,1 C 22,8 C 4,8 km/h (1 Bft) 100,00 %
04.04.2016 17:11 22,9 C 39 % 1005,0 hPa 0,0 l/m 4,3 km/h (1 Bft) NO 45 1 min 0,000 mm 0,8 UV-I 330 W/m 8,2 C 22,9 C 6,4 km/h (2 Bft) 100,00 %
04.04.2016 17:12 22,9 C 42 % 1004,9 hPa 0,0 l/m 5,2 km/h (1 Bft) NO 45 1 min 0,000 mm 0,8 UV-I 328 W/m 9,3 C 22,9 C 6,4 km/h (2 Bft) 100,00 %
04.04.2016 17:13 22,9 C 44 % 1005,0 hPa 0,0 l/m 4,7 km/h (1 Bft) NO 36 1 min 0,000 mm 0,8 UV-I 325 W/m 10,0 C 22,9 C 6,4 km/h (2 Bft) 100,00 %
04.04.2016 17:14 22,9 C 42 % 1004,9 hPa 0,0 l/m 5,8 km/h (2 Bft) N-NO 31 1 min 0,000 mm 0,8 UV-I 322 W/m 9,3 C 22,9 C 8,0 km/h (2 Bft) 92,31 %
04.04.2016 17:15 22,8 C 45 % 1004,9 hPa 0,0 l/m 2,7 km/h (1 Bft) N-NO 30 1 min 0,000 mm 0,7 UV-I 320 W/m 10,2 C 22,8 C 4,8 km/h (1 Bft) 100,00 %
04.04.2016 17:16 22,7 C 42 % 1004,9 hPa 0,0 l/m 4,3 km/h (1 Bft) N-NO 19 1 min 0,000 mm 0,7 UV-I 318 W/m 9,1 C 22,7 C 6,4 km/h (2 Bft) 91,67 %
04.04.2016 17:17 22,7 C 45 % 1004,9 hPa 0,0 l/m 2,3 km/h (1 Bft) N-NO 19 1 min 0,000 mm 0,7 UV-I 314 W/m 10,1 C 22,7 C 4,8 km/h (1 Bft) 100,00 %
04.04.2016 17:18 22,6 C 45 % 1004,8 hPa 0,0 l/m 3,0 km/h (1 Bft) NO 34 1 min 0,000 mm 0,7 UV-I 311 W/m 10,1 C 22,6 C 6,4 km/h (2 Bft) 100,00 %
04.04.2016 17:19 22,5 C 45 % 1004,8 hPa 0,0 l/m 4,8 km/h (1 Bft) N 5 1 min 0,000 mm 0,7 UV-I 309 W/m 10,0 C 22,5 C 8,0 km/h (2 Bft) 100,00 %
04.04.2016 17:20 22,4 C 45 % 1004,9 hPa 0,0 l/m 3,9 km/h (1 Bft) N-NO 20 1 min 0,000 mm 0,7 UV-I 306 W/m 9,9 C 22,4 C 6,4 km/h (2 Bft) 100,00 %
04.04.2016 17:21 22,4 C 46 % 1004,8 hPa 0,0 l/m 1,4 km/h (1 Bft) N-NO 18 1 min 0,000 mm 0,7 UV-I 304 W/m 10,2 C 22,4 C 3,2 km/h (1 Bft) 95,65 %
04.04.2016 17:22 22,3 C 48 % 1004,9 hPa 0,0 l/m 0,6 km/h (0 Bft) N-NO 18 1 min 0,000 mm 0,7 UV-I 302 W/m 10,8 C 22,3 C 1,6 km/h (1 Bft) 100,00 %
04.04.2016 17:23 22,3 C 46 % 1004,9 hPa 0,0 l/m 0,3 km/h (0 Bft) N-NO 24 1 min 0,000 mm 0,7 UV-I 300 W/m 10,1 C 22,3 C 1,6 km/h (1 Bft) 100,00 %
04.04.2016 17:24 22,3 C 47 % 1004,8 hPa 0,0 l/m 1,6 km/h (1 Bft) N-NO 17 1 min 0,000 mm 0,6 UV-I 298 W/m 10,4 C 22,3 C 3,2 km/h (1 Bft) 96,30 %
04.04.2016 17:25 22,4 C 43 % 1004,8 hPa 0,0 l/m 4,7 km/h (1 Bft) O-NO 61 1 min 0,000 mm 0,6 UV-I 294 W/m 9,2 C 22,4 C 6,4 km/h (2 Bft) 100,00 %
04.04.2016 17:26 22,6 C 43 % 1004,8 hPa 0,0 l/m 3,0 km/h (1 Bft) O-NO 61 1 min 0,000 mm 0,6 UV-I 290 W/m 9,4 C 22,6 C 4,8 km/h (1 Bft) 100,00 %
04.04.2016 17:27 22,6 C 43 % 1004,8 hPa 0,0 l/m 4,7 km/h (1 Bft) O-NO 63 1 min 0,000 mm 0,6 UV-I 287 W/m 9,4 C 22,6 C 8,0 km/h (2 Bft) 100,00 %
04.04.2016 17:28 22,7 C 43 % 1004,8 hPa 0,0 l/m 4,6 km/h (1 Bft) O-NO 69 1 min 0,000 mm 0,6 UV-I 284 W/m 9,5 C 22,7 C 6,4 km/h (2 Bft) 100,00 %
04.04.2016 17:29 22,7 C 44 % 1004,8 hPa 0,0 l/m 2,2 km/h (1 Bft) O-NO 69 1 min 0,000 mm 0,6 UV-I 280 W/m 9,8 C 22,7 C 3,2 km/h (1 Bft) 100,00 %
04.04.2016 17:30 22,7 C 42 % 1004,8 hPa 0,0 l/m 4,5 km/h (1 Bft) O-NO 59 1 min 0,000 mm 0,6 UV-I 277 W/m 9,1 C 22,7 C 8,0 km/h (2 Bft) 100,00 %
04.04.2016 17:31 22,7 C 43 % 1004,7 hPa 0,0 l/m 5,4 km/h (1 Bft) O-NO 59 1 min 0,000 mm 0,6 UV-I 272 W/m 9,5 C 22,7 C 8,0 km/h (2 Bft) 100,00 %
04.04.2016 17:32 22,7 C 41 % 1004,8 hPa 0,0 l/m 6,1 km/h (2 Bft) NO 55 1 min 0,000 mm 0,6 UV-I 269 W/m 8,8 C 22,7 C 8,0 km/h (2 Bft) 100,00 %
04.04.2016 17:33 22,8 C 40 % 1004,7 hPa 0,0 l/m 4,5 km/h (1 Bft) O-NO 62 1 min 0,000 mm 0,6 UV-I 266 W/m 8,5 C 22,8 C 6,4 km/h (2 Bft) 100,00 %
04.04.2016 17:34 22,8 C 42 % 1004,7 hPa 0,0 l/m 5,8 km/h (2 Bft) O-NO 68 1 min 0,000 mm 0,5 UV-I 263 W/m 9,2 C 22,8 C 8,0 km/h (2 Bft) 100,00 %
04.04.2016 17:35 22,8 C 40 % 1004,7 hPa 0,0 l/m 4,6 km/h (1 Bft) O-NO 72 1 min 0,000 mm 0,5 UV-I 260 W/m 8,5 C 22,8 C 6,4 km/h (2 Bft) 100,00 %
04.04.2016 17:36 22,8 C 40 % 1004,7 hPa 0,0 l/m 5,5 km/h (1 Bft) O-NO 76 1 min 0,000 mm 0,5 UV-I 257 W/m 8,5 C 22,8 C 6,4 km/h (2 Bft) 100,00 %
04.04.2016 17:37 22,8 C 40 % 1004,7 hPa 0,0 l/m 4,8 km/h (1 Bft) O-NO 71 1 min 0,000 mm 0,5 UV-I 253 W/m 8,5 C 22,8 C 6,4 km/h (2 Bft) 100,00 %
04.04.2016 17:38 22,8 C 43 % 1004,7 hPa 0,0 l/m 4,7 km/h (1 Bft) O-NO 71 1 min 0,000 mm 0,5 UV-I 251 W/m 9,6 C 22,8 C 6,4 km/h (2 Bft) 100,00 %
04.04.2016 17:39 22,7 C 43 % 1004,7 hPa 0,0 l/m 4,4 km/h (1 Bft) O-NO 69 1 min 0,000 mm 0,5 UV-I 249 W/m 9,5 C 22,7 C 6,4 km/h (2 Bft) 100,00 %
04.04.2016 17:40 22,7 C 44 % 1004,7 hPa 0,0 l/m 3,6 km/h (1 Bft) O-NO 71 1 min 0,000 mm 0,5 UV-I 246 W/m 9,8 C 22,7 C 4,8 km/h (1 Bft) 100,00 %
04.04.2016 17:41 22,7 C 42 % 1004,7 hPa 0,0 l/m 2,2 km/h (1 Bft) O-NO 71 1 min 0,000 mm 0,5 UV-I 243 W/m 9,1 C 22,7 C 4,8 km/h (1 Bft) 100,00 %
04.04.2016 17:42 22,7 C 45 % 1004,7 hPa 0,0 l/m 2,4 km/h (1 Bft) O-NO 70 1 min 0,000 mm 0,5 UV-I 240 W/m 10,1 C 22,7 C 4,8 km/h (1 Bft) 100,00 %
04.04.2016 17:43 22,6 C 46 % 1004,8 hPa 0,0 l/m 0,7 km/h (0 Bft) O-NO 70 1 min 0,000 mm 0,5 UV-I 237 W/m 10,4 C 22,6 C 3,2 km/h (1 Bft) 95,83 %
04.04.2016 17:44 22,7 C 42 % 1004,7 hPa 0,0 l/m 1,9 km/h (1 Bft) O-NO 72 1 min 0,000 mm 0,0 UV-I 236 W/m 9,1 C 22,7 C 4,8 km/h (1 Bft) 100,00 %
04.04.2016 17:45 22,7 C 42 % 1004,7 hPa 0,0 l/m 3,2 km/h (1 Bft) O-NO 72 1 min 0,000 mm 0,0 UV-I 233 W/m 9,1 C 22,7 C 4,8 km/h (1 Bft) 100,00 %
04.04.2016 17:46 22,7 C 43 % 1004,7 hPa 0,0 l/m 3,3 km/h (1 Bft) O-NO 72 1 min 0,000 mm 0,0 UV-I 231 W/m 9,5 C 22,7 C 4,8 km/h (1 Bft) 98,36 %
04.04.2016 17:47 22,6 C 43 % 1004,7 hPa 0,0 l/m 4,3 km/h (1 Bft) O-NO 69 1 min 0,000 mm 0,0 UV-I 228 W/m 9,4 C 22,6 C 6,4 km/h (2 Bft) 100,00 %
04.04.2016 17:48 22,6 C 46 % 1004,7 hPa 0,0 l/m 4,4 km/h (1 Bft) O-NO 67 1 min 0,000 mm 0,0 UV-I 226 W/m 10,4 C 22,6 C 6,4 km/h (2 Bft) 93,10 %
04.04.2016 17:49 22,6 C 43 % 1004,8 hPa 0,0 l/m 4,2 km/h (1 Bft) O-NO 65 1 min 0,000 mm 0,0 UV-I 221 W/m 9,4 C 22,6 C 6,4 km/h (2 Bft) 95,83 %
04.04.2016 17:50 22,6 C 44 % 1004,7 hPa 0,0 l/m 3,2 km/h (1 Bft) NO 36 1 min 0,000 mm 0,0 UV-I 219 W/m 9,7 C 22,6 C 4,8 km/h (1 Bft) 100,00 %
04.04.2016 17:51 22,6 C 43 % 1004,8 hPa 0,0 l/m 2,7 km/h (1 Bft) NO 36 1 min 0,000 mm 0,0 UV-I 215 W/m 9,4 C 22,6 C 4,8 km/h (1 Bft) 100,00 %
04.04.2016 17:52 22,5 C 45 % 1004,8 hPa 0,0 l/m 4,3 km/h (1 Bft) NO 36 1 min 0,000 mm 0,0 UV-I 213 W/m 10,0 C 22,5 C 4,8 km/h (1 Bft) 95,83 %
04.04.2016 17:53 22,5 C 42 % 1004,7 hPa 0,0 l/m 5,9 km/h (2 Bft) NO 44 1 min 0,000 mm 0,0 UV-I 211 W/m 8,9 C 22,5 C 8,0 km/h (2 Bft) 96,55 %
04.04.2016 17:54 22,4 C 43 % 1004,8 hPa 0,0 l/m 7,5 km/h (2 Bft) NO 38 1 min 0,000 mm 0,0 UV-I 205 W/m 9,2 C 22,0 C 8,0 km/h (2 Bft) 100,00 %
04.04.2016 17:55 22,4 C 42 % 1004,7 hPa 0,0 l/m 6,2 km/h (2 Bft) NO 41 1 min 0,000 mm 0,0 UV-I 202 W/m 8,9 C 22,4 C 8,0 km/h (2 Bft) 96,15 %
04.04.2016 17:56 22,4 C 40 % 1004,7 hPa 0,0 l/m 5,8 km/h (2 Bft) NO 52 1 min 0,000 mm 0,0 UV-I 198 W/m 8,1 C 22,4 C 8,0 km/h (2 Bft) 100,00 %
04.04.2016 17:57 22,5 C 39 % 1004,8 hPa 0,0 l/m 4,5 km/h (1 Bft) NO 53 1 min 0,000 mm 0,0 UV-I 196 W/m 7,8 C 22,5 C 6,4 km/h (2 Bft) 86,96 %
04.04.2016 17:58 22,6 C 40 % 1004,7 hPa 0,0 l/m 3,5 km/h (1 Bft) NO 53 1 min 0,000 mm 0,0 UV-I 191 W/m 8,3 C 22,6 C 4,8 km/h (1 Bft) 100,00 %
04.04.2016 17:59 22,6 C 39 % 1004,8 hPa 0,0 l/m 2,1 km/h (1 Bft) NO 53 1 min 0,000 mm 0,0 UV-I 189 W/m 7,9 C 22,6 C 4,8 km/h (1 Bft) 95,65 %
04.04.2016 18:00 22,6 C 41 % 1004,8 hPa 0,0 l/m 3,4 km/h (1 Bft) NO 53 1 min 0,000 mm 0,0 UV-I 186 W/m 8,7 C 22,6 C 4,8 km/h (1 Bft) 96,30 %
04.04.2016 18:01 22,5 C 42 % 1004,8 hPa 0,0 l/m 3,4 km/h (1 Bft) NO 53 1 min 0,203 mm 0,0 UV-I 182 W/m 8,9 C 22,5 C 4,8 km/h (1 Bft) 100,00 %
04.04.2016 18:02 22,5 C 41 % 1004,8 hPa 0,0 l/m 3,7 km/h (1 Bft) NO 53 1 min 0,000 mm 0,0 UV-I 179 W/m 8,6 C 22,5 C 4,8 km/h (1 Bft) 95,83 %
04.04.2016 18:03 22,5 C 39 % 1004,8 hPa 0,0 l/m 2,4 km/h (1 Bft) NO 53 1 min 0,000 mm 0,0 UV-I 176 W/m 7,8 C 22,5 C 3,2 km/h (1 Bft) 100,00 %
04.04.2016 18:04 22,6 C 38 % 1004,8 hPa 0,0 l/m 3,1 km/h (1 Bft) NO 53 1 min 0,000 mm 0,0 UV-I 173 W/m 7,6 C 22,6 C 4,8 km/h (1 Bft) 95,83 %
04.04.2016 18:05 22,6 C 39 % 1004,8 hPa 0,0 l/m 2,9 km/h (1 Bft) NO 53 1 min 0,000 mm 0,0 UV-I 170 W/m 7,9 C 22,6 C 4,8 km/h (1 Bft) 100,00 %
04.04.2016 18:06 22,6 C 40 % 1004,8 hPa 0,0 l/m 3,2 km/h (1 Bft) NO 53 1 min 0,000 mm 0,0 UV-I 167 W/m 8,3 C 22,6 C 3,2 km/h (1 Bft) 96,30 %
04.04.2016 18:07 22,6 C 40 % 1004,8 hPa 0,0 l/m 2,9 km/h (1 Bft) NO 53 1 min 0,000 mm 0,0 UV-I 165 W/m 8,3 C 22,6 C 4,8 km/h (1 Bft) 95,65 %
04.04.2016 18:08 22,6 C 40 % 1004,8 hPa 0,0 l/m 2,5 km/h (1 Bft) NO 53 1 min 0,000 mm 0,0 UV-I 162 W/m 8,3 C 22,6 C 3,2 km/h (1 Bft) 100,00 %
04.04.2016 18:09 22,5 C 45 % 1004,8 hPa 0,0 l/m 3,1 km/h (1 Bft) NO 53 1 min 0,000 mm 0,0 UV-I 159 W/m 10,0 C 22,5 C 4,8 km/h (1 Bft) 92,86 %
04.04.2016 18:10 22,5 C 40 % 1004,8 hPa 0,0 l/m 2,9 km/h (1 Bft) NO 53 1 min 0,000 mm 0,0 UV-I 156 W/m 8,2 C 22,5 C 4,8 km/h (1 Bft) 100,00 %
04.04.2016 18:11 22,4 C 45 % 1004,8 hPa 0,0 l/m 2,2 km/h (1 Bft) NO 53 1 min 0,000 mm 0,0 UV-I 155 W/m 9,9 C 22,4 C 3,2 km/h (1 Bft) 95,83 %
04.04.2016 18:12 22,3 C 44 % 1004,8 hPa 0,0 l/m 2,5 km/h (1 Bft) NO 53 1 min 0,000 mm 0,0 UV-I 152 W/m 9,5 C 22,3 C 3,2 km/h (1 Bft) 100,00 %
04.04.2016 18:13 22,3 C 45 % 1004,8 hPa 0,0 l/m 2,3 km/h (1 Bft) NO 53 1 min 0,000 mm 0,0 UV-I 149 W/m 9,8 C 22,3 C 3,2 km/h (1 Bft) 96,15 %
04.04.2016 18:14 22,3 C 46 % 1004,8 hPa 0,0 l/m 2,6 km/h (1 Bft) NO 53 1 min 0,000 mm 0,0 UV-I 145 W/m 10,1 C 22,3 C 3,2 km/h (1 Bft) 95,83 %
04.04.2016 18:15 22,2 C 45 % 1004,8 hPa 0,0 l/m 2,5 km/h (1 Bft) NO 53 1 min 0,000 mm 0,0 UV-I 143 W/m 9,7 C 22,2 C 3,2 km/h (1 Bft) 100,00 %
04.04.2016 18:16 22,1 C 44 % 1004,8 hPa 0,0 l/m 1,7 km/h (1 Bft) NO 53 1 min 0,000 mm 0,0 UV-I 142 W/m 9,3 C 22,1 C 3,2 km/h (1 Bft) 100,00 %
04.04.2016 18:17 22,1 C 43 % 1004,8 hPa 0,0 l/m 1,3 km/h (1 Bft) NO 53 1 min 0,000 mm 0,0 UV-I 140 W/m 8,9 C 22,1 C 3,2 km/h (1 Bft) 96,30 %
04.04.2016 18:18 22,1 C 41 % 1004,8 hPa 0,0 l/m 2,3 km/h (1 Bft) NO 53 1 min 0,000 mm 0,0 UV-I 137 W/m 8,2 C 22,1 C 3,2 km/h (1 Bft) 95,65 %
04.04.2016 18:19 22,2 C 41 % 1004,9 hPa 0,0 l/m 1,6 km/h (1 Bft) NO 53 1 min 0,000 mm 0,0 UV-I 134 W/m 8,3 C 22,2 C 3,2 km/h (1 Bft) 96,30 %
04.04.2016 18:20 22,2 C 42 % 1004,9 hPa 0,0 l/m 1,4 km/h (1 Bft) NO 53 1 min 0,000 mm 0,0 UV-I 131 W/m 8,7 C 22,2 C 3,2 km/h (1 Bft) 100,00 %
04.04.2016 18:21 22,2 C 40 % 1004,9 hPa 0,0 l/m 1,7 km/h (1 Bft) NO 53 1 min 0,000 mm 0,0 UV-I 129 W/m 8,0 C 22,2 C 3,2 km/h (1 Bft) 100,00 %
04.04.2016 18:22 22,2 C 43 % 1004,9 hPa 0,0 l/m 2,3 km/h (1 Bft) NO 53 1 min 0,000 mm 0,0 UV-I 126 W/m 9,0 C 22,2 C 4,8 km/h (1 Bft) 100,00 %
04.04.2016 18:23 22,2 C 43 % 1004,9 hPa 0,0 l/m 2,1 km/h (1 Bft) NO 53 1 min 0,000 mm 0,0 UV-I 123 W/m 9,0 C 22,2 C 3,2 km/h (1 Bft) 100,00 %
04.04.2016 18:24 22,2 C 44 % 1004,9 hPa 0,0 l/m 2,5 km/h (1 Bft) NO 53 1 min 0,000 mm 0,0 UV-I 120 W/m 9,4 C 22,2 C 3,2 km/h (1 Bft) 100,00 %
04.04.2016 18:25 22,2 C 41 % 1004,8 hPa 0,0 l/m 2,7 km/h (1 Bft) NO 53 1 min 0,000 mm 0,0 UV-I 117 W/m 8,3 C 22,2 C 3,2 km/h (1 Bft) 100,00 %
04.04.2016 18:26 22,2 C 42 % 1004,8 hPa 0,0 l/m 3,5 km/h (1 Bft) NO 53 1 min 0,000 mm 0,0 UV-I 114 W/m 8,7 C 22,2 C 4,8 km/h (1 Bft) 100,00 %
04.04.2016 18:27 22,2 C 41 % 1004,9 hPa 0,0 l/m 3,6 km/h (1 Bft) NO 53 1 min 0,000 mm 0,0 UV-I 112 W/m 8,3 C 22,2 C 4,8 km/h (1 Bft) 96,30 %
04.04.2016 18:28 22,2 C 41 % 1004,8 hPa 0,0 l/m 3,1 km/h (1 Bft) NO 53 1 min 0,000 mm 0,0 UV-I 110 W/m 8,3 C 22,2 C 4,8 km/h (1 Bft) 100,00 %
04.04.2016 18:29 22,3 C 40 % 1004,8 hPa 0,0 l/m 2,8 km/h (1 Bft) NO 53 1 min 0,000 mm 0,0 UV-I 105 W/m 8,0 C 22,3 C 4,8 km/h (1 Bft) 100,00 %
04.04.2016 18:30 22,3 C 41 % 1004,8 hPa 0,0 l/m 3,1 km/h (1 Bft) NO 53 1 min 0,000 mm 0,0 UV-I 104 W/m 8,4 C 22,3 C 4,8 km/h (1 Bft) 100,00 %
04.04.2016 18:31 22,3 C 41 % 1004,9 hPa 0,0 l/m 1,8 km/h (1 Bft) NO 53 1 min 0,000 mm 0,0 UV-I 100 W/m 8,4 C 22,3 C 3,2 km/h (1 Bft) 95,65 %
04.04.2016 18:32 22,2 C 42 % 1004,9 hPa 0,0 l/m 2,3 km/h (1 Bft) NO 53 0 min 0,000 mm 0,0 UV-I 97 W/m 8,7 C 22,2 C 3,2 km/h (1 Bft) 100,00 %
04.04.2016 18:33 22,2 C 43 % 1004,8 hPa 0,0 l/m 3,3 km/h (1 Bft) O-NO 64 0 min 0,000 mm 0,0 UV-I 88 W/m 9,0 C 22,2 C 4,8 km/h (1 Bft) 95,65 %
04.04.2016 18:34 22,2 C 41 % 1004,8 hPa 0,0 l/m 2,5 km/h (1 Bft) O-NO 64 0 min 0,000 mm 0,0 UV-I 73 W/m 8,3 C 22,2 C 3,2 km/h (1 Bft) 100,00 %
04.04.2016 18:35 22,2 C 42 % 1004,7 hPa 0,0 l/m 1,2 km/h (1 Bft) O-NO 77 0 min 0,000 mm 0,0 UV-I 73 W/m 8,7 C 22,2 C 3,2 km/h (1 Bft) 100,00 %
04.04.2016 18:36 22,1 C 43 % 1004,8 hPa 0,0 l/m 2,5 km/h (1 Bft) O-NO 77 0 min 0,000 mm 0,0 UV-I 83 W/m 8,9 C 22,1 C 3,2 km/h (1 Bft) 100,00 %
04.04.2016 18:37 22,0 C 43 % 1004,7 hPa 0,0 l/m 3,7 km/h (1 Bft) O-NO 77 0 min 0,000 mm 0,0 UV-I 84 W/m 8,8 C 22,0 C 4,8 km/h (1 Bft) 100,00 %
04.04.2016 18:38 21,9 C 46 % 1004,8 hPa 0,0 l/m 4,0 km/h (1 Bft) O-NO 77 0 min 0,000 mm 0,0 UV-I 82 W/m 9,7 C 21,9 C 4,8 km/h (1 Bft) 100,00 %
04.04.2016 18:39 21,8 C 44 % 1004,8 hPa 0,0 l/m 3,4 km/h (1 Bft) O-NO 77 0 min 0,000 mm 0,0 UV-I 78 W/m 9,0 C 21,8 C 4,8 km/h (1 Bft) 100,00 %
04.04.2016 18:40 21,7 C 46 % 1004,8 hPa 0,0 l/m 3,1 km/h (1 Bft) O-NO 77 0 min 0,000 mm 0,0 UV-I 72 W/m 9,6 C 21,7 C 3,2 km/h (1 Bft) 100,00 %
04.04.2016 18:41 21,7 C 44 % 1004,8 hPa 0,0 l/m 3,1 km/h (1 Bft) O-NO 77 0 min 0,000 mm 0,0 UV-I 64 W/m 8,9 C 21,7 C 4,8 km/h (1 Bft) 96,15 %
04.04.2016 18:42 21,5 C 48 % 1004,8 hPa 0,0 l/m 3,4 km/h (1 Bft) O-NO 77 0 min 0,000 mm 0,0 UV-I 61 W/m 10,0 C 21,5 C 4,8 km/h (1 Bft) 100,00 %
04.04.2016 18:43 21,3 C 46 % 1004,8 hPa 0,0 l/m 3,1 km/h (1 Bft) O-NO 77 0 min 0,000 mm 0,0 UV-I 52 W/m 9,2 C 21,3 C 4,8 km/h (1 Bft) 100,00 %
04.04.2016 18:44 21,3 C 47 % 1004,8 hPa 0,0 l/m 3,4 km/h (1 Bft) O-NO 77 0 min 0,000 mm 0,0 UV-I 47 W/m 9,5 C 21,3 C 4,8 km/h (1 Bft) 100,00 %
04.04.2016 18:45 21,2 C 48 % 1004,8 hPa 0,0 l/m 3,7 km/h (1 Bft) O 80 0 min 0,000 mm 0,0 UV-I 49 W/m 9,7 C 21,2 C 4,8 km/h (1 Bft) 100,00 %
04.04.2016 18:46 21,1 C 48 % 1004,9 hPa 0,0 l/m 3,7 km/h (1 Bft) O 80 0 min 0,000 mm 0,0 UV-I 52 W/m 9,7 C 21,1 C 4,8 km/h (1 Bft) 100,00 %
04.04.2016 18:47 21,0 C 48 % 1004,8 hPa 0,0 l/m 3,4 km/h (1 Bft) O 80 0 min 0,000 mm 0,0 UV-I 51 W/m 9,6 C 21,0 C 4,8 km/h (1 Bft) 95,65 %
04.04.2016 18:48 20,9 C 50 % 1004,9 hPa 0,0 l/m 3,0 km/h (1 Bft) O 80 0 min 0,000 mm 0,0 UV-I 51 W/m 10,1 C 20,9 C 3,2 km/h (1 Bft) 93,33 %
04.04.2016 18:49 20,8 C 50 % 1004,9 hPa 0,0 l/m 3,2 km/h (1 Bft) O 87 0 min 0,000 mm 0,0 UV-I 48 W/m 10,0 C 20,8 C 4,8 km/h (1 Bft) 100,00 %
04.04.2016 18:50 20,8 C 51 % 1004,9 hPa 0,0 l/m 2,7 km/h (1 Bft) O 89 0 min 0,000 mm 0,0 UV-I 40 W/m 10,3 C 20,8 C 3,2 km/h (1 Bft) 100,00 %
04.04.2016 18:51 20,7 C 50 % 1004,9 hPa 0,0 l/m 2,1 km/h (1 Bft) O 89 0 min 0,000 mm 0,0 UV-I 40 W/m 9,9 C 20,7 C 3,2 km/h (1 Bft) 100,00 %
04.04.2016 18:52 20,7 C 51 % 1004,9 hPa 0,0 l/m 3,1 km/h (1 Bft) O 90 0 min 0,000 mm 0,0 UV-I 41 W/m 10,2 C 20,7 C 3,2 km/h (1 Bft) 100,00 %
04.04.2016 18:53 20,6 C 51 % 1004,9 hPa 0,0 l/m 3,4 km/h (1 Bft) O 96 0 min 0,000 mm 0,0 UV-I 39 W/m 10,1 C 20,6 C 4,8 km/h (1 Bft) 100,00 %
04.04.2016 18:54 20,5 C 52 % 1004,9 hPa 0,0 l/m 2,6 km/h (1 Bft) O-SO 108 0 min 0,000 mm 0,0 UV-I 33 W/m 10,3 C 20,5 C 4,8 km/h (1 Bft) 100,00 %
04.04.2016 18:55 20,4 C 51 % 1004,9 hPa 0,0 l/m 3,7 km/h (1 Bft) O-SO 108 0 min 0,000 mm 0,0 UV-I 31 W/m 9,9 C 20,4 C 4,8 km/h (1 Bft) 100,00 %
04.04.2016 18:56 20,3 C 54 % 1004,9 hPa 0,0 l/m 3,4 km/h (1 Bft) O-SO 108 0 min 0,000 mm 0,0 UV-I 31 W/m 10,7 C 20,3 C 4,8 km/h (1 Bft) 100,00 %
04.04.2016 18:57 20,1 C 52 % 1004,9 hPa 0,0 l/m 3,6 km/h (1 Bft) O-SO 108 0 min 0,000 mm 0,0 UV-I 33 W/m 9,9 C 20,1 C 4,8 km/h (1 Bft) 100,00 %
04.04.2016 18:58 20,1 C 53 % 1004,9 hPa 0,0 l/m 3,6 km/h (1 Bft) O-SO 108 0 min 0,000 mm 0,0 UV-I 32 W/m 10,2 C 20,1 C 4,8 km/h (1 Bft) 100,00 %
04.04.2016 18:59 19,9 C 54 % 1004,9 hPa 0,0 l/m 3,9 km/h (1 Bft) O-SO 108 0 min 0,000 mm 0,0 UV-I 30 W/m 10,3 C 19,9 C 4,8 km/h (1 Bft) 100,00 %
04.04.2016 19:00 19,8 C 52 % 1004,9 hPa 0,0 l/m 3,6 km/h (1 Bft) O-SO 108 0 min 0,000 mm 0,0 UV-I 28 W/m 9,7 C 19,8 C 4,8 km/h (1 Bft) 100,00 %
04.04.2016 19:01 19,8 C 55 % 1004,9 hPa 0,0 l/m 3,0 km/h (1 Bft) O-SO 108 0 min 0,102 mm 0,0 UV-I 30 W/m 10,5 C 19,8 C 3,2 km/h (1 Bft) 95,83 %
04.04.2016 19:02 19,7 C 54 % 1004,9 hPa 0,0 l/m 3,2 km/h (1 Bft) O-SO 108 0 min 0,000 mm 0,0 UV-I 30 W/m 10,1 C 19,7 C 3,2 km/h (1 Bft) 100,00 %
04.04.2016 19:03 19,6 C 53 % 1004,9 hPa 0,0 l/m 3,4 km/h (1 Bft) O-SO 108 0 min 0,000 mm 0,0 UV-I 30 W/m 9,8 C 19,6 C 4,8 km/h (1 Bft) 100,00 %
04.04.2016 19:04 19,6 C 53 % 1004,9 hPa 0,0 l/m 3,4 km/h (1 Bft) O-SO 108 0 min 0,000 mm 0,0 UV-I 30 W/m 9,8 C 19,6 C 4,8 km/h (1 Bft) 100,00 %
04.04.2016 19:05 19,5 C 53 % 1004,9 hPa 0,0 l/m 3,6 km/h (1 Bft) O-SO 108 0 min 0,000 mm 0,0 UV-I 28 W/m 9,7 C 19,5 C 4,8 km/h (1 Bft) 100,00 %
04.04.2016 19:06 19,4 C 53 % 1004,9 hPa 0,0 l/m 2,9 km/h (1 Bft) O-SO 108 0 min 0,000 mm 0,0 UV-I 28 W/m 9,6 C 19,4 C 4,8 km/h (1 Bft) 100,00 %
04.04.2016 19:07 19,4 C 54 % 1004,9 hPa 0,0 l/m 2,9 km/h (1 Bft) O-SO 108 0 min 0,000 mm 0,0 UV-I 28 W/m 9,8 C 19,4 C 3,2 km/h (1 Bft) 95,65 %
04.04.2016 19:08 19,3 C 54 % 1004,9 hPa 0,0 l/m 2,9 km/h (1 Bft) O-SO 108 0 min 0,000 mm 0,0 UV-I 27 W/m 9,8 C 19,3 C 3,2 km/h (1 Bft) 100,00 %
04.04.2016 19:09 19,3 C 54 % 1004,9 hPa 0,0 l/m 3,4 km/h (1 Bft) O-SO 108 0 min 0,000 mm 0,0 UV-I 26 W/m 9,8 C 19,3 C 4,8 km/h (1 Bft) 95,83 %
04.04.2016 19:10 19,2 C 54 % 1004,9 hPa 0,0 l/m 3,1 km/h (1 Bft) O-SO 108 0 min 0,000 mm 0,0 UV-I 26 W/m 9,7 C 19,2 C 3,2 km/h (1 Bft) 100,00 %
04.04.2016 19:11 19,2 C 53 % 1004,9 hPa 0,0 l/m 3,2 km/h (1 Bft) O-SO 108 0 min 0,000 mm 0,0 UV-I 25 W/m 9,4 C 19,2 C 4,8 km/h (1 Bft) 100,00 %
04.04.2016 19:12 19,2 C 53 % 1004,9 hPa 0,0 l/m 2,9 km/h (1 Bft) O-SO 108 0 min 0,000 mm 0,0 UV-I 24 W/m 9,4 C 19,2 C 3,2 km/h (1 Bft) 100,00 %
04.04.2016 19:13 19,1 C 54 % 1004,9 hPa 0,0 l/m 1,9 km/h (1 Bft) O-SO 108 0 min 0,000 mm 0,0 UV-I 23 W/m 9,6 C 19,1 C 3,2 km/h (1 Bft) 97,56 %
04.04.2016 19:14 19,1 C 54 % 1004,9 hPa 0,0 l/m 3,0 km/h (1 Bft) O-SO 108 0 min 0,000 mm 0,0 UV-I 23 W/m 9,6 C 19,1 C 4,8 km/h (1 Bft) 100,00 %
04.04.2016 19:15 19,1 C 56 % 1004,9 hPa 0,0 l/m 2,0 km/h (1 Bft) O-SO 109 0 min 0,000 mm 0,0 UV-I 23 W/m 10,1 C 19,1 C 3,2 km/h (1 Bft) 100,00 %
04.04.2016 19:16 19,0 C 57 % 1005,0 hPa 0,0 l/m 1,8 km/h (1 Bft) O-SO 108 0 min 0,000 mm 0,0 UV-I 21 W/m 10,3 C 19,0 C 3,2 km/h (1 Bft) 100,00 %
04.04.2016 19:17 19,1 C 55 % 1005,0 hPa 0,0 l/m 1,6 km/h (1 Bft) O-SO 108 0 min 0,000 mm 0,0 UV-I 21 W/m 9,8 C 19,1 C 3,2 km/h (1 Bft) 100,00 %
04.04.2016 19:18 19,1 C 54 % 1005,0 hPa 0,0 l/m 1,3 km/h (1 Bft) O-SO 108 0 min 0,000 mm 0,0 UV-I 20 W/m 9,6 C 19,1 C 1,6 km/h (1 Bft) 100,00 %
04.04.2016 19:19 19,1 C 54 % 1005,0 hPa 0,0 l/m 0,7 km/h (0 Bft) O-SO 108 0 min 0,000 mm 0,0 UV-I 19 W/m 9,6 C 19,1 C 1,6 km/h (1 Bft) 95,65 %
04.04.2016 19:20 19,2 C 55 % 1005,0 hPa 0,0 l/m 0,5 km/h (0 Bft) O-SO 108 0 min 0,000 mm 0,0 UV-I 18 W/m 9,9 C 19,2 C 1,6 km/h (1 Bft) 100,00 %
04.04.2016 19:21 19,2 C 54 % 1005,0 hPa 0,0 l/m 0,6 km/h (0 Bft) O-SO 108 0 min 0,000 mm 0,0 UV-I 18 W/m 9,7 C 19,2 C 1,6 km/h (1 Bft) 100,00 %
04.04.2016 19:22 19,2 C 55 % 1005,0 hPa 0,0 l/m 0,3 km/h (0 Bft) O-SO 108 0 min 0,000 mm 0,0 UV-I 16 W/m 9,9 C 19,2 C 1,6 km/h (1 Bft) 100,00 %
04.04.2016 19:23 19,1 C 56 % 1005,0 hPa 0,0 l/m 0,1 km/h (0 Bft) O-SO 108 0 min 0,000 mm 0,0 UV-I 14 W/m 10,1 C 19,1 C 1,6 km/h (1 Bft) 92,86 %
04.04.2016 19:24 19,0 C 58 % 1005,0 hPa 0,0 l/m 0,7 km/h (0 Bft) O-SO 108 0 min 0,000 mm 0,0 UV-I 14 W/m 10,5 C 19,0 C 1,6 km/h (1 Bft) 100,00 %
04.04.2016 19:25 18,8 C 60 % 1005,0 hPa 0,0 l/m 1,5 km/h (1 Bft) O-SO 108 0 min 0,000 mm 0,0 UV-I 12 W/m 10,9 C 18,8 C 1,6 km/h (1 Bft) 100,00 %
04.04.2016 19:26 18,7 C 61 % 1005,0 hPa 0,0 l/m 1,4 km/h (1 Bft) O-SO 108 1 min 0,000 mm 0,0 UV-I 12 W/m 11,0 C 18,7 C 1,6 km/h (1 Bft) 100,00 %
04.04.2016 19:27 18,6 C 59 % 1005,0 hPa 0,0 l/m 0,9 km/h (0 Bft) O-SO 108 1 min 0,000 mm 0,0 UV-I 11 W/m 10,4 C 18,6 C 1,6 km/h (1 Bft) 100,00 %
04.04.2016 19:28 18,5 C 60 % 1005,0 hPa 0,0 l/m 1,5 km/h (1 Bft) O-SO 108 1 min 0,000 mm 0,0 UV-I 11 W/m 10,6 C 18,5 C 1,6 km/h (1 Bft) 100,00 %
04.04.2016 19:29 18,4 C 60 % 1005,1 hPa 0,0 l/m 1,4 km/h (1 Bft) O-SO 108 0 min 0,000 mm 0,0 UV-I 9 W/m 10,5 C 18,4 C 1,6 km/h (1 Bft) 95,65 %
04.04.2016 19:30 18,4 C 60 % 1005,0 hPa 0,0 l/m 1,5 km/h (1 Bft) O-SO 108 0 min 0,000 mm 0,0 UV-I 9 W/m 10,5 C 18,4 C 1,6 km/h (1 Bft) 100,00 %
04.04.2016 19:31 18,3 C 60 % 1005,0 hPa 0,0 l/m 0,9 km/h (0 Bft) O-SO 108 0 min 0,000 mm 0,0 UV-I 8 W/m 10,4 C 18,3 C 1,6 km/h (1 Bft) 100,00 %
04.04.2016 19:32 18,3 C 60 % 1005,0 hPa 0,0 l/m 0,0 km/h (0 Bft) O-SO 108 0 min 0,000 mm 0,0 UV-I 7 W/m 10,4 C 18,3 C 0,0 km/h (0 Bft) 100,00 %
04.04.2016 19:33 18,3 C 56 % 1005,0 hPa 0,0 l/m 0,3 km/h (0 Bft) O-SO 108 0 min 0,000 mm 0,0 UV-I 6 W/m 9,4 C 18,3 C 1,6 km/h (1 Bft) 100,00 %
04.04.2016 19:34 18,4 C 54 % 1005,0 hPa 0,0 l/m 0,5 km/h (0 Bft) O-SO 108 0 min 0,000 mm 0,0 UV-I 5 W/m 8,9 C 18,4 C 1,6 km/h (1 Bft) 100,00 %
04.04.2016 19:35 18,6 C 54 % 1005,0 hPa 0,0 l/m 1,0 km/h (0 Bft) O-SO 108 0 min 0,000 mm 0,0 UV-I 5 W/m 9,1 C 18,6 C 1,6 km/h (1 Bft) 100,00 %
04.04.2016 19:36 18,6 C 54 % 1005,0 hPa 0,0 l/m 3,2 km/h (1 Bft) O-SO 108 0 min 0,000 mm 0,0 UV-I 5 W/m 9,1 C 18,6 C 3,2 km/h (1 Bft) 100,00 %
04.04.2016 19:37 18,6 C 54 % 1005,0 hPa 0,0 l/m 3,1 km/h (1 Bft) O-SO 109 0 min 0,000 mm 0,0 UV-I 5 W/m 9,1 C 18,6 C 3,2 km/h (1 Bft) 100,00 %
04.04.2016 19:38 18,4 C 57 % 1005,0 hPa 0,0 l/m 3,1 km/h (1 Bft) O-SO 108 0 min 0,000 mm 0,0 UV-I 2 W/m 9,7 C 18,4 C 3,2 km/h (1 Bft) 92,31 %
04.04.2016 19:39 18,3 C 57 % 1005,0 hPa 0,0 l/m 3,2 km/h (1 Bft) O-SO 109 0 min 0,000 mm 0,0 UV-I 0 W/m 9,6 C 18,3 C 4,8 km/h (1 Bft) 100,00 %
04.04.2016 19:40 18,1 C 57 % 1005,0 hPa 0,0 l/m 3,9 km/h (1 Bft) O-SO 109 0 min 0,000 mm 0,0 UV-I 0 W/m 9,4 C 18,1 C 4,8 km/h (1 Bft) 100,00 %
04.04.2016 19:41 17,9 C 58 % 1005,0 hPa 0,0 l/m 4,1 km/h (1 Bft) O-SO 108 0 min 0,000 mm 0,0 UV-I 0 W/m 9,5 C 17,9 C 4,8 km/h (1 Bft) 100,00 %
04.04.2016 19:42 17,7 C 59 % 1005,1 hPa 0,0 l/m 4,7 km/h (1 Bft) O-SO 108 0 min 0,000 mm 0,0 UV-I 0 W/m 9,6 C 17,7 C 4,8 km/h (1 Bft) 100,00 %
04.04.2016 19:43 17,6 C 58 % 1005,0 hPa 0,0 l/m 4,4 km/h (1 Bft) O-SO 109 0 min 0,000 mm 0,0 UV-I 0 W/m 9,2 C 17,6 C 4,8 km/h (1 Bft) 100,00 %
04.04.2016 19:44 17,6 C 57 % 1005,1 hPa 0,0 l/m 4,4 km/h (1 Bft) O-SO 109 0 min 0,000 mm 0,0 UV-I 0 W/m 9,0 C 17,6 C 6,4 km/h (2 Bft) 100,00 %
04.04.2016 19:45 17,5 C 57 % 1005,0 hPa 0,0 l/m 4,1 km/h (1 Bft) O-SO 108 0 min 0,000 mm 0,0 UV-I 0 W/m 8,9 C 17,5 C 6,4 km/h (2 Bft) 100,00 %
04.04.2016 19:46 17,4 C 57 % 1005,1 hPa 0,0 l/m 4,6 km/h (1 Bft) O-SO 109 0 min 0,000 mm 0,0 UV-I 0 W/m 8,8 C 17,4 C 6,4 km/h (2 Bft) 100,00 %
04.04.2016 19:47 17,3 C 58 % 1005,1 hPa 0,0 l/m 4,5 km/h (1 Bft) O-SO 108 0 min 0,000 mm 0,0 UV-I 0 W/m 9,0 C 17,3 C 4,8 km/h (1 Bft) 100,00 %
04.04.2016 19:48 17,3 C 58 % 1005,1 hPa 0,0 l/m 4,2 km/h (1 Bft) O-SO 109 0 min 0,000 mm 0,0 UV-I 0 W/m 9,0 C 17,3 C 4,8 km/h (1 Bft) 95,83 %
04.04.2016 19:49 17,2 C 58 % 1005,1 hPa 0,0 l/m 4,7 km/h (1 Bft) O-SO 110 0 min 0,000 mm 0,0 UV-I 0 W/m 8,9 C 17,2 C 4,8 km/h (1 Bft) 96,15 %
04.04.2016 19:50 17,2 C 58 % 1005,1 hPa 0,0 l/m 4,2 km/h (1 Bft) O-SO 110 0 min 0,000 mm 0,0 UV-I 0 W/m 8,9 C 17,2 C 4,8 km/h (1 Bft) 95,83 %
04.04.2016 19:51 17,2 C 58 % 1005,1 hPa 0,0 l/m 4,0 km/h (1 Bft) O-SO 110 0 min 0,000 mm 0,0 UV-I 0 W/m 8,9 C 17,2 C 4,8 km/h (1 Bft) 96,15 %
04.04.2016 19:52 17,1 C 59 % 1005,1 hPa 0,0 l/m 3,6 km/h (1 Bft) O-SO 110 0 min 0,000 mm 0,0 UV-I 0 W/m 9,0 C 17,1 C 4,8 km/h (1 Bft) 100,00 %
04.04.2016 19:53 17,0 C 58 % 1005,1 hPa 0,0 l/m 4,3 km/h (1 Bft) O-SO 115 0 min 0,000 mm 0,0 UV-I 0 W/m 8,7 C 17,0 C 4,8 km/h (1 Bft) 92,86 %
04.04.2016 19:54 17,0 C 59 % 1005,1 hPa 0,0 l/m 2,7 km/h (1 Bft) O-SO 123 0 min 0,000 mm 0,0 UV-I 0 W/m 8,9 C 17,0 C 4,8 km/h (1 Bft) 100,00 %
04.04.2016 19:55 17,1 C 58 % 1005,1 hPa 0,0 l/m 4,3 km/h (1 Bft) SO 124 0 min 0,000 mm 0,0 UV-I 0 W/m 8,8 C 17,1 C 6,4 km/h (2 Bft) 91,30 %
04.04.2016 19:56 17,1 C 58 % 1005,1 hPa 0,0 l/m 3,2 km/h (1 Bft) SO 125 0 min 0,000 mm 0,0 UV-I 0 W/m 8,8 C 17,1 C 4,8 km/h (1 Bft) 100,00 %
04.04.2016 19:57 17,2 C 58 % 1005,1 hPa 0,0 l/m 4,4 km/h (1 Bft) SO 126 0 min 0,000 mm 0,0 UV-I 0 W/m 8,9 C 17,2 C 6,4 km/h (2 Bft) 96,15 %
04.04.2016 19:58 17,2 C 58 % 1005,2 hPa 0,0 l/m 3,9 km/h (1 Bft) SO 139 0 min 0,000 mm 0,0 UV-I 0 W/m 8,9 C 17,2 C 6,4 km/h (2 Bft) 96,30 %
04.04.2016 19:59 17,3 C 59 % 1005,2 hPa 0,0 l/m 4,7 km/h (1 Bft) SO 139 0 min 0,000 mm 0,0 UV-I 0 W/m 9,2 C 17,3 C 6,4 km/h (2 Bft) 100,00 %
04.04.2016 20:00 17,3 C 58 % 1005,1 hPa 0,0 l/m 3,2 km/h (1 Bft) SO 140 0 min 0,000 mm 0,0 UV-I 0 W/m 9,0 C 17,3 C 4,8 km/h (1 Bft) 100,00 %
04.04.2016 20:01 17,3 C 58 % 1005,2 hPa 0,0 l/m 2,1 km/h (1 Bft) SO 140 0 min 0,025 mm 0,0 UV-I 0 W/m 9,0 C 17,3 C 4,8 km/h (1 Bft) 91,30 %
04.04.2016 20:02 17,2 C 59 % 1005,2 hPa 0,0 l/m 2,8 km/h (1 Bft) SO 140 0 min 0,000 mm 0,0 UV-I 0 W/m 9,1 C 17,2 C 4,8 km/h (1 Bft) 96,30 %
04.04.2016 20:03 17,2 C 59 % 1005,2 hPa 0,0 l/m 4,3 km/h (1 Bft) SO 125 0 min 0,000 mm 0,0 UV-I 0 W/m 9,1 C 17,2 C 4,8 km/h (1 Bft) 100,00 %
04.04.2016 20:04 17,1 C 60 % 1005,2 hPa 0,0 l/m 4,2 km/h (1 Bft) SO 143 0 min 0,000 mm 0,0 UV-I 0 W/m 9,3 C 17,1 C 8,0 km/h (2 Bft) 95,83 %
04.04.2016 20:05 17,0 C 60 % 1005,2 hPa 0,0 l/m 4,7 km/h (1 Bft) SO 132 0 min 0,000 mm 0,0 UV-I 0 W/m 9,2 C 17,0 C 8,0 km/h (2 Bft) 100,00 %
04.04.2016 20:06 16,9 C 59 % 1005,2 hPa 0,0 l/m 4,0 km/h (1 Bft) SO 136 0 min 0,000 mm 0,0 UV-I 0 W/m 8,8 C 16,9 C 6,4 km/h (2 Bft) 91,67 %
04.04.2016 20:07 16,9 C 61 % 1005,2 hPa 0,0 l/m 4,7 km/h (1 Bft) SO 132 0 min 0,000 mm 0,0 UV-I 0 W/m 9,3 C 16,9 C 6,4 km/h (2 Bft) 100,00 %
04.04.2016 20:08 16,7 C 60 % 1005,2 hPa 0,0 l/m 5,5 km/h (1 Bft) O-SO 119 0 min 0,000 mm 0,0 UV-I 0 W/m 8,9 C 16,7 C 9,7 km/h (2 Bft) 95,65 %
04.04.2016 20:09 16,6 C 61 % 1005,2 hPa 0,0 l/m 5,5 km/h (1 Bft) O-SO 121 0 min 0,000 mm 0,0 UV-I 0 W/m 9,0 C 16,6 C 8,0 km/h (2 Bft) 96,30 %
04.04.2016 20:10 16,5 C 60 % 1005,2 hPa 0,0 l/m 5,1 km/h (1 Bft) O-SO 121 0 min 0,000 mm 0,0 UV-I 0 W/m 8,7 C 16,5 C 6,4 km/h (2 Bft) 100,00 %
04.04.2016 20:11 16,5 C 61 % 1005,3 hPa 0,0 l/m 4,1 km/h (1 Bft) SO 139 0 min 0,000 mm 0,0 UV-I 0 W/m 9,0 C 16,5 C 9,7 km/h (2 Bft) 91,67 %
04.04.2016 20:12 16,6 C 61 % 1005,2 hPa 0,0 l/m 5,7 km/h (1 Bft) SO 134 0 min 0,000 mm 0,0 UV-I 0 W/m 9,0 C 16,6 C 8,0 km/h (2 Bft) 100,00 %
04.04.2016 20:13 16,6 C 59 % 1005,2 hPa 0,0 l/m 4,6 km/h (1 Bft) SO 129 0 min 0,000 mm 0,0 UV-I 0 W/m 8,6 C 16,6 C 6,4 km/h (2 Bft) 96,30 %
04.04.2016 20:14 16,7 C 60 % 1005,2 hPa 0,0 l/m 3,9 km/h (1 Bft) SO 134 0 min 0,000 mm 0,0 UV-I 0 W/m 8,9 C 16,7 C 6,4 km/h (2 Bft) 100,00 %
04.04.2016 20:15 16,8 C 59 % 1005,3 hPa 0,0 l/m 4,0 km/h (1 Bft) SO 134 0 min 0,000 mm 0,0 UV-I 0 W/m 8,7 C 16,8 C 6,4 km/h (2 Bft) 95,83 %
04.04.2016 20:16 16,9 C 57 % 1005,2 hPa 0,0 l/m 4,4 km/h (1 Bft) SO 133 0 min 0,000 mm 0,0 UV-I 0 W/m 8,3 C 16,9 C 6,4 km/h (2 Bft) 96,15 %
04.04.2016 20:17 17,0 C 58 % 1005,2 hPa 0,0 l/m 5,0 km/h (1 Bft) SO 127 0 min 0,000 mm 0,0 UV-I 0 W/m 8,7 C 17,0 C 8,0 km/h (2 Bft) 100,00 %
04.04.2016 20:18 17,1 C 58 % 1005,3 hPa 0,0 l/m 4,7 km/h (1 Bft) SO 134 0 min 0,000 mm 0,0 UV-I 0 W/m 8,8 C 17,1 C 6,4 km/h (2 Bft) 100,00 %
04.04.2016 20:19 17,1 C 58 % 1005,3 hPa 0,0 l/m 4,7 km/h (1 Bft) SO 132 0 min 0,000 mm 0,0 UV-I 0 W/m 8,8 C 17,1 C 6,4 km/h (2 Bft) 96,67 %
04.04.2016 20:20 17,1 C 58 % 1005,2 hPa 0,0 l/m 4,7 km/h (1 Bft) SO 132 0 min 0,000 mm 0,0 UV-I 0 W/m 8,8 C 17,1 C 6,4 km/h (2 Bft) 95,65 %
04.04.2016 20:21 17,1 C 58 % 1005,3 hPa 0,0 l/m 4,0 km/h (1 Bft) SO 132 0 min 0,000 mm 0,0 UV-I 0 W/m 8,8 C 17,1 C 6,4 km/h (2 Bft) 100,00 %
04.04.2016 20:22 17,0 C 58 % 1005,2 hPa 0,0 l/m 4,1 km/h (1 Bft) O-SO 111 0 min 0,000 mm 0,0 UV-I 0 W/m 8,7 C 17,0 C 4,8 km/h (1 Bft) 95,65 %
04.04.2016 20:23 17,0 C 58 % 1005,3 hPa 0,0 l/m 3,9 km/h (1 Bft) O-SO 111 0 min 0,000 mm 0,0 UV-I 0 W/m 8,7 C 17,0 C 4,8 km/h (1 Bft) 100,00 %
04.04.2016 20:24 17,0 C 58 % 1005,2 hPa 0,0 l/m 4,8 km/h (1 Bft) O-SO 111 0 min 0,000 mm 0,0 UV-I 0 W/m 8,7 C 17,0 C 6,4 km/h (2 Bft) 95,65 %
04.04.2016 20:25 16,9 C 58 % 1005,2 hPa 0,0 l/m 3,6 km/h (1 Bft) O-SO 111 0 min 0,000 mm 0,0 UV-I 0 W/m 8,6 C 16,9 C 4,8 km/h (1 Bft) 100,00 %
04.04.2016 20:26 16,9 C 58 % 1005,2 hPa 0,0 l/m 4,7 km/h (1 Bft) O-SO 111 0 min 0,000 mm 0,0 UV-I 0 W/m 8,6 C 16,9 C 6,4 km/h (2 Bft) 100,00 %
04.04.2016 20:27 16,9 C 57 % 1005,2 hPa 0,0 l/m 4,5 km/h (1 Bft) O-SO 111 0 min 0,000 mm 0,0 UV-I 0 W/m 8,3 C 16,9 C 4,8 km/h (1 Bft) 100,00 %
04.04.2016 20:28 16,8 C 58 % 1005,2 hPa 0,0 l/m 3,8 km/h (1 Bft) O-SO 113 0 min 0,000 mm 0,0 UV-I 0 W/m 8,5 C 16,8 C 4,8 km/h (1 Bft) 100,00 %
04.04.2016 20:29 16,8 C 57 % 1005,2 hPa 0,0 l/m 4,2 km/h (1 Bft) O-SO 113 0 min 0,000 mm 0,0 UV-I 0 W/m 8,2 C 16,8 C 6,4 km/h (2 Bft) 100,00 %
04.04.2016 20:30 16,8 C 57 % 1005,2 hPa 0,0 l/m 3,7 km/h (1 Bft) O-SO 113 0 min 0,000 mm 0,0 UV-I 0 W/m 8,2 C 16,8 C 4,8 km/h (1 Bft) 100,00 %
04.04.2016 20:31 16,8 C 57 % 1005,2 hPa 0,0 l/m 3,2 km/h (1 Bft) O-SO 113 0 min 0,000 mm 0,0 UV-I 0 W/m 8,2 C 16,8 C 4,8 km/h (1 Bft) 100,00 %
04.04.2016 20:32 16,8 C 58 % 1005,3 hPa 0,0 l/m 3,8 km/h (1 Bft) O-SO 113 0 min 0,000 mm 0,0 UV-I 0 W/m 8,5 C 16,8 C 6,4 km/h (2 Bft) 100,00 %
04.04.2016 20:33 16,8 C 57 % 1005,2 hPa 0,0 l/m 3,1 km/h (1 Bft) O-SO 116 0 min 0,000 mm 0,0 UV-I 0 W/m 8,2 C 16,8 C 4,8 km/h (1 Bft) 95,65 %
04.04.2016 20:34 16,8 C 58 % 1005,3 hPa 0,0 l/m 3,8 km/h (1 Bft) O-SO 108 0 min 0,000 mm 0,0 UV-I 0 W/m 8,5 C 16,8 C 4,8 km/h (1 Bft) 100,00 %
04.04.2016 20:35 16,8 C 57 % 1005,3 hPa 0,0 l/m 3,1 km/h (1 Bft) O-SO 111 0 min 0,000 mm 0,0 UV-I 0 W/m 8,2 C 16,8 C 4,8 km/h (1 Bft) 100,00 %
04.04.2016 20:36 16,8 C 58 % 1005,3 hPa 0,0 l/m 2,5 km/h (1 Bft) O-SO 111 0 min 0,000 mm 0,0 UV-I 0 W/m 8,5 C 16,8 C 4,8 km/h (1 Bft) 100,00 %
04.04.2016 20:37 16,8 C 57 % 1005,3 hPa 0,0 l/m 2,5 km/h (1 Bft) O-SO 111 0 min 0,000 mm 0,0 UV-I 0 W/m 8,2 C 16,8 C 3,2 km/h (1 Bft) 100,00 %
04.04.2016 20:38 16,7 C 58 % 1005,3 hPa 0,0 l/m 3,4 km/h (1 Bft) O-SO 114 0 min 0,000 mm 0,0 UV-I 0 W/m 8,4 C 16,7 C 4,8 km/h (1 Bft) 96,30 %
04.04.2016 20:39 16,7 C 59 % 1005,3 hPa 0,0 l/m 3,2 km/h (1 Bft) O-SO 116 0 min 0,000 mm 0,0 UV-I 0 W/m 8,6 C 16,7 C 6,4 km/h (2 Bft) 100,00 %
04.04.2016 20:40 16,7 C 58 % 1005,4 hPa 0,0 l/m 3,1 km/h (1 Bft) O-SO 121 0 min 0,000 mm 0,0 UV-I 0 W/m 8,4 C 16,7 C 3,2 km/h (1 Bft) 100,00 %
04.04.2016 20:41 16,7 C 59 % 1005,3 hPa 0,0 l/m 2,1 km/h (1 Bft) O-SO 122 0 min 0,000 mm 0,0 UV-I 0 W/m 8,6 C 16,7 C 3,2 km/h (1 Bft) 100,00 %
04.04.2016 20:42 16,6 C 60 % 1005,4 hPa 0,0 l/m 2,7 km/h (1 Bft) O-SO 122 0 min 0,000 mm 0,0 UV-I 0 W/m 8,8 C 16,6 C 4,8 km/h (1 Bft) 100,00 %
04.04.2016 20:43 16,4 C 60 % 1005,4 hPa 0,0 l/m 2,7 km/h (1 Bft) O-SO 122 0 min 0,000 mm 0,0 UV-I 0 W/m 8,6 C 16,4 C 4,8 km/h (1 Bft) 100,00 %
04.04.2016 20:44 16,3 C 61 % 1005,4 hPa 0,0 l/m 2,2 km/h (1 Bft) O-SO 122 0 min 0,000 mm 0,0 UV-I 0 W/m 8,8 C 16,3 C 4,8 km/h (1 Bft) 100,00 %
04.04.2016 20:45 16,3 C 61 % 1005,4 hPa 0,0 l/m 1,6 km/h (1 Bft) O-SO 122 0 min 0,000 mm 0,0 UV-I 0 W/m 8,8 C 16,3 C 3,2 km/h (1 Bft) 100,00 %
04.04.2016 20:46 16,2 C 62 % 1005,4 hPa 0,0 l/m 1,6 km/h (1 Bft) O-SO 122 0 min 0,000 mm 0,0 UV-I 0 W/m 8,9 C 16,2 C 3,2 km/h (1 Bft) 100,00 %
04.04.2016 20:47 16,1 C 61 % 1005,4 hPa 0,0 l/m 1,1 km/h (1 Bft) O-SO 122 0 min 0,000 mm 0,0 UV-I 0 W/m 8,6 C 16,1 C 1,6 km/h (1 Bft) 96,15 %
04.04.2016 20:48 16,0 C 62 % 1005,4 hPa 0,0 l/m 0,8 km/h (0 Bft) O-SO 122 0 min 0,000 mm 0,0 UV-I 0 W/m 8,7 C 16,0 C 1,6 km/h (1 Bft) 98,39 %
04.04.2016 20:49 15,9 C 63 % 1005,5 hPa 0,0 l/m 1,3 km/h (1 Bft) O-SO 122 0 min 0,000 mm 0,0 UV-I 0 W/m 8,9 C 15,9 C 1,6 km/h (1 Bft) 100,00 %
04.04.2016 20:50 15,8 C 63 % 1005,4 hPa 0,0 l/m 1,7 km/h (1 Bft) O-SO 122 0 min 0,000 mm 0,0 UV-I 0 W/m 8,8 C 15,8 C 3,2 km/h (1 Bft) 100,00 %
04.04.2016 20:51 15,7 C 64 % 1005,5 hPa 0,0 l/m 1,8 km/h (1 Bft) O-SO 122 0 min 0,000 mm 0,0 UV-I 0 W/m 8,9 C 15,7 C 3,2 km/h (1 Bft) 95,83 %
04.04.2016 20:52 15,7 C 65 % 1005,5 hPa 0,0 l/m 2,5 km/h (1 Bft) O-SO 122 0 min 0,000 mm 0,0 UV-I 0 W/m 9,1 C 15,7 C 3,2 km/h (1 Bft) 100,00 %
04.04.2016 20:53 15,6 C 65 % 1005,5 hPa 0,0 l/m 2,4 km/h (1 Bft) O-SO 122 0 min 0,000 mm 0,0 UV-I 0 W/m 9,0 C 15,6 C 3,2 km/h (1 Bft) 100,00 %
04.04.2016 20:54 15,4 C 66 % 1005,5 hPa 0,0 l/m 2,8 km/h (1 Bft) O-SO 122 0 min 0,000 mm 0,0 UV-I 0 W/m 9,1 C 15,4 C 3,2 km/h (1 Bft) 100,00 %
04.04.2016 20:55 15,4 C 66 % 1005,6 hPa 0,0 l/m 2,5 km/h (1 Bft) O-SO 122 0 min 0,000 mm 0,0 UV-I 0 W/m 9,1 C 15,4 C 3,2 km/h (1 Bft) 100,00 %
04.04.2016 20:56 15,3 C 66 % 1005,6 hPa 0,0 l/m 2,3 km/h (1 Bft) O-SO 122 0 min 0,000 mm 0,0 UV-I 0 W/m 9,0 C 15,3 C 3,2 km/h (1 Bft) 100,00 %
04.04.2016 20:57 15,2 C 66 % 1005,5 hPa 0,0 l/m 2,8 km/h (1 Bft) O-SO 122 0 min 0,000 mm 0,0 UV-I 0 W/m 8,9 C 15,2 C 3,2 km/h (1 Bft) 100,00 %
04.04.2016 20:58 15,1 C 66 % 1005,6 hPa 0,0 l/m 2,5 km/h (1 Bft) O-SO 122 0 min 0,000 mm 0,0 UV-I 0 W/m 8,8 C 15,1 C 3,2 km/h (1 Bft) 100,00 %
04.04.2016 20:59 15,0 C 67 % 1005,6 hPa 0,0 l/m 2,5 km/h (1 Bft) O-SO 122 0 min 0,000 mm 0,0 UV-I 0 W/m 8,9 C 15,0 C 3,2 km/h (1 Bft) 100,00 %
04.04.2016 21:00 14,9 C 66 % 1005,5 hPa 0,0 l/m 2,4 km/h (1 Bft) O-SO 122 0 min 0,000 mm 0,0 UV-I 0 W/m 8,6 C 14,9 C 3,2 km/h (1 Bft) 100,00 %
04.04.2016 21:01 14,9 C 66 % 1005,5 hPa 0,0 l/m 3,3 km/h (1 Bft) O-SO 122 0 min 0,025 mm 0,0 UV-I 0 W/m 8,6 C 14,9 C 4,8 km/h (1 Bft) 100,00 %
04.04.2016 21:02 14,8 C 66 % 1005,6 hPa 0,0 l/m 3,4 km/h (1 Bft) O-SO 122 0 min 0,000 mm 0,0 UV-I 0 W/m 8,5 C 14,8 C 4,8 km/h (1 Bft) 96,15 %
04.04.2016 21:03 14,8 C 66 % 1005,6 hPa 0,0 l/m 3,5 km/h (1 Bft) O-SO 123 0 min 0,000 mm 0,0 UV-I 0 W/m 8,5 C 14,8 C 4,8 km/h (1 Bft) 96,30 %
04.04.2016 21:04 14,8 C 67 % 1005,6 hPa 0,0 l/m 3,4 km/h (1 Bft) O-SO 122 0 min 0,000 mm 0,0 UV-I 0 W/m 8,7 C 14,8 C 4,8 km/h (1 Bft) 100,00 %
04.04.2016 21:05 14,7 C 67 % 1005,6 hPa 0,0 l/m 3,5 km/h (1 Bft) O-SO 123 0 min 0,000 mm 0,0 UV-I 0 W/m 8,6 C 14,7 C 4,8 km/h (1 Bft) 100,00 %
04.04.2016 21:06 14,7 C 67 % 1005,6 hPa 0,0 l/m 4,0 km/h (1 Bft) O-SO 123 0 min 0,000 mm 0,0 UV-I 0 W/m 8,6 C 14,7 C 4,8 km/h (1 Bft) 100,00 %
04.04.2016 21:07 14,7 C 67 % 1005,6 hPa 0,0 l/m 3,6 km/h (1 Bft) O-SO 123 0 min 0,000 mm 0,0 UV-I 0 W/m 8,6 C 14,7 C 4,8 km/h (1 Bft) 91,30 %
04.04.2016 21:08 14,6 C 67 % 1005,6 hPa 0,0 l/m 4,0 km/h (1 Bft) O-SO 123 0 min 0,000 mm 0,0 UV-I 0 W/m 8,5 C 14,6 C 4,8 km/h (1 Bft) 100,00 %
04.04.2016 21:09 14,6 C 67 % 1005,6 hPa 0,0 l/m 3,5 km/h (1 Bft) O-SO 123 0 min 0,000 mm 0,0 UV-I 0 W/m 8,5 C 14,6 C 4,8 km/h (1 Bft) 100,00 %
04.04.2016 21:10 14,7 C 67 % 1005,6 hPa 0,0 l/m 3,7 km/h (1 Bft) O-SO 123 0 min 0,000 mm 0,0 UV-I 0 W/m 8,6 C 14,7 C 4,8 km/h (1 Bft) 95,83 %
04.04.2016 21:11 14,7 C 67 % 1005,6 hPa 0,0 l/m 4,1 km/h (1 Bft) O-SO 123 0 min 0,000 mm 0,0 UV-I 0 W/m 8,6 C 14,7 C 4,8 km/h (1 Bft) 100,00 %
04.04.2016 21:12 14,7 C 67 % 1005,6 hPa 0,0 l/m 3,5 km/h (1 Bft) O-SO 123 0 min 0,000 mm 0,0 UV-I 0 W/m 8,6 C 14,7 C 4,8 km/h (1 Bft) 100,00 %
04.04.2016 21:13 14,7 C 67 % 1005,6 hPa 0,0 l/m 3,1 km/h (1 Bft) O-SO 123 0 min 0,000 mm 0,0 UV-I 0 W/m 8,6 C 14,7 C 3,2 km/h (1 Bft) 100,00 %
04.04.2016 21:14 14,7 C 67 % 1005,6 hPa 0,0 l/m 2,8 km/h (1 Bft) O-SO 123 0 min 0,000 mm 0,0 UV-I 0 W/m 8,6 C 14,7 C 3,2 km/h (1 Bft) 100,00 %
04.04.2016 21:15 14,7 C 67 % 1005,6 hPa 0,0 l/m 2,1 km/h (1 Bft) O-SO 123 0 min 0,000 mm 0,0 UV-I 0 W/m 8,6 C 14,7 C 3,2 km/h (1 Bft) 100,00 %
04.04.2016 21:16 14,7 C 66 % 1005,6 hPa 0,0 l/m 0,7 km/h (0 Bft) O-SO 123 0 min 0,000 mm 0,0 UV-I 0 W/m 8,4 C 14,7 C 3,2 km/h (1 Bft) 100,00 %
04.04.2016 21:17 14,7 C 67 % 1005,6 hPa 0,0 l/m 0,7 km/h (0 Bft) O-SO 123 0 min 0,000 mm 0,0 UV-I 0 W/m 8,6 C 14,7 C 1,6 km/h (1 Bft) 95,65 %
04.04.2016 21:18 14,7 C 66 % 1005,6 hPa 0,0 l/m 0,3 km/h (0 Bft) O-SO 123 0 min 0,000 mm 0,0 UV-I 0 W/m 8,4 C 14,7 C 1,6 km/h (1 Bft) 100,00 %
04.04.2016 21:19 14,7 C 66 % 1005,6 hPa 0,0 l/m 0,3 km/h (0 Bft) O-SO 123 0 min 0,000 mm 0,0 UV-I 0 W/m 8,4 C 14,7 C 1,6 km/h (1 Bft) 95,65 %
04.04.2016 21:20 14,6 C 66 % 1005,6 hPa 0,0 l/m 0,0 km/h (0 Bft) O-SO 123 0 min 0,000 mm 0,0 UV-I 0 W/m 8,3 C 14,6 C 0,0 km/h (0 Bft) 98,40 %
04.04.2016 21:21 14,6 C 67 % 1005,6 hPa 0,0 l/m 0,1 km/h (0 Bft) O-SO 123 0 min 0,000 mm 0,0 UV-I 0 W/m 8,5 C 14,6 C 1,6 km/h (1 Bft) 100,00 %
04.04.2016 21:22 14,6 C 66 % 1005,6 hPa 0,0 l/m 0,8 km/h (0 Bft) O-SO 123 0 min 0,000 mm 0,0 UV-I 0 W/m 8,3 C 14,6 C 1,6 km/h (1 Bft) 100,00 %
04.04.2016 21:23 14,6 C 66 % 1005,6 hPa 0,0 l/m 0,4 km/h (0 Bft) O-SO 123 0 min 0,000 mm 0,0 UV-I 0 W/m 8,3 C 14,6 C 1,6 km/h (1 Bft) 100,00 %
04.04.2016 21:24 14,6 C 67 % 1005,6 hPa 0,0 l/m 0,5 km/h (0 Bft) O-SO 123 0 min 0,000 mm 0,0 UV-I 0 W/m 8,5 C 14,6 C 1,6 km/h (1 Bft) 96,15 %
04.04.2016 21:25 14,6 C 67 % 1005,6 hPa 0,0 l/m 0,9 km/h (0 Bft) O-SO 123 0 min 0,000 mm 0,0 UV-I 0 W/m 8,5 C 14,6 C 1,6 km/h (1 Bft) 100,00 %
04.04.2016 21:26 14,6 C 67 % 1005,6 hPa 0,0 l/m 0,7 km/h (0 Bft) O-SO 123 0 min 0,000 mm 0,0 UV-I 0 W/m 8,5 C 14,6 C 1,6 km/h (1 Bft) 100,00 %
04.04.2016 21:27 14,6 C 66 % 1005,6 hPa 0,0 l/m 0,6 km/h (0 Bft) O-SO 123 0 min 0,000 mm 0,0 UV-I 0 W/m 8,3 C 14,6 C 1,6 km/h (1 Bft) 100,00 %
04.04.2016 21:28 14,7 C 65 % 1005,6 hPa 0,0 l/m 0,7 km/h (0 Bft) O-SO 123 0 min 0,000 mm 0,0 UV-I 0 W/m 8,2 C 14,7 C 1,6 km/h (1 Bft) 100,00 %
04.04.2016 21:29 14,7 C 65 % 1005,6 hPa 0,0 l/m 0,3 km/h (0 Bft) O-SO 123 0 min 0,000 mm 0,0 UV-I 0 W/m 8,2 C 14,7 C 1,6 km/h (1 Bft) 96,15 %
04.04.2016 21:30 14,7 C 65 % 1005,6 hPa 0,0 l/m 0,3 km/h (0 Bft) O-SO 123 0 min 0,000 mm 0,0 UV-I 0 W/m 8,2 C 14,7 C 1,6 km/h (1 Bft) 100,00 %
04.04.2016 21:31 14,8 C 65 % 1005,6 hPa 0,0 l/m 1,4 km/h (1 Bft) O-SO 123 0 min 0,000 mm 0,0 UV-I 0 W/m 8,3 C 14,8 C 3,2 km/h (1 Bft) 100,00 %
04.04.2016 21:32 14,7 C 65 % 1005,6 hPa 0,0 l/m 3,6 km/h (1 Bft) S 176 0 min 0,000 mm 0,0 UV-I 0 W/m 8,2 C 14,7 C 6,4 km/h (2 Bft) 100,00 %
04.04.2016 21:33 14,7 C 65 % 1005,6 hPa 0,0 l/m 4,6 km/h (1 Bft) S-SW 213 0 min 0,000 mm 0,0 UV-I 0 W/m 8,2 C 14,7 C 6,4 km/h (2 Bft) 100,00 %
04.04.2016 21:34 14,6 C 66 % 1005,6 hPa 0,0 l/m 5,6 km/h (1 Bft) SW 223 0 min 0,000 mm 0,0 UV-I 0 W/m 8,3 C 14,6 C 6,4 km/h (2 Bft) 100,00 %
04.04.2016 21:35 14,4 C 66 % 1005,6 hPa 0,0 l/m 5,7 km/h (1 Bft) SW 223 0 min 0,000 mm 0,0 UV-I 0 W/m 8,1 C 14,4 C 6,4 km/h (2 Bft) 100,00 %
04.04.2016 21:36 14,3 C 68 % 1005,6 hPa 0,0 l/m 6,2 km/h (2 Bft) S-SW 210 0 min 0,000 mm 0,0 UV-I 0 W/m 8,5 C 14,3 C 8,0 km/h (2 Bft) 92,31 %
04.04.2016 21:37 14,3 C 69 % 1005,6 hPa 0,0 l/m 5,2 km/h (1 Bft) S-SW 212 0 min 0,000 mm 0,0 UV-I 0 W/m 8,7 C 14,3 C 6,4 km/h (2 Bft) 100,00 %
04.04.2016 21:38 14,1 C 68 % 1005,6 hPa 0,0 l/m 5,8 km/h (2 Bft) S-SW 213 0 min 0,000 mm 0,0 UV-I 0 W/m 8,3 C 14,1 C 6,4 km/h (2 Bft) 100,00 %
04.04.2016 21:39 14,1 C 68 % 1005,6 hPa 0,0 l/m 6,0 km/h (2 Bft) S-SW 213 0 min 0,000 mm 0,0 UV-I 0 W/m 8,3 C 14,1 C 6,4 km/h (2 Bft) 100,00 %
04.04.2016 21:40 14,0 C 68 % 1005,6 hPa 0,0 l/m 5,3 km/h (1 Bft) S-SW 196 0 min 0,000 mm 0,0 UV-I 0 W/m 8,2 C 14,0 C 6,4 km/h (2 Bft) 96,55 %
04.04.2016 21:41 14,1 C 68 % 1005,6 hPa 0,0 l/m 4,9 km/h (1 Bft) S-SW 196 0 min 0,000 mm 0,0 UV-I 0 W/m 8,3 C 14,1 C 6,4 km/h (2 Bft) 100,00 %
04.04.2016 21:42 14,1 C 68 % 1005,6 hPa 0,0 l/m 4,4 km/h (1 Bft) S-SW 196 0 min 0,000 mm 0,0 UV-I 0 W/m 8,3 C 14,1 C 4,8 km/h (1 Bft) 95,65 %
04.04.2016 21:43 14,2 C 68 % 1005,5 hPa 0,0 l/m 2,1 km/h (1 Bft) S-SW 195 0 min 0,000 mm 0,0 UV-I 0 W/m 8,4 C 14,2 C 3,2 km/h (1 Bft) 100,00 %
04.04.2016 21:44 14,2 C 68 % 1005,5 hPa 0,0 l/m 1,4 km/h (1 Bft) S-SW 195 0 min 0,000 mm 0,0 UV-I 0 W/m 8,4 C 14,2 C 1,6 km/h (1 Bft) 100,00 %
04.04.2016 21:45 14,2 C 68 % 1005,5 hPa 0,0 l/m 1,1 km/h (1 Bft) S-SW 195 0 min 0,000 mm 0,0 UV-I 0 W/m 8,4 C 14,2 C 1,6 km/h (1 Bft) 100,00 %
04.04.2016 21:46 14,2 C 67 % 1005,5 hPa 0,0 l/m 1,3 km/h (1 Bft) S-SW 195 0 min 0,000 mm 0,0 UV-I 0 W/m 8,2 C 14,2 C 1,6 km/h (1 Bft) 100,00 %
04.04.2016 21:47 14,2 C 67 % 1005,5 hPa 0,0 l/m 1,3 km/h (1 Bft) S-SW 195 0 min 0,000 mm 0,0 UV-I 0 W/m 8,2 C 14,2 C 3,2 km/h (1 Bft) 100,00 %
04.04.2016 21:48 14,2 C 66 % 1005,5 hPa 0,0 l/m 0,3 km/h (0 Bft) S-SW 195 0 min 0,000 mm 0,0 UV-I 0 W/m 7,9 C 14,2 C 1,6 km/h (1 Bft) 100,00 %
04.04.2016 21:49 14,2 C 66 % 1005,5 hPa 0,0 l/m 0,2 km/h (0 Bft) S-SW 195 0 min 0,000 mm 0,0 UV-I 0 W/m 7,9 C 14,2 C 1,6 km/h (1 Bft) 96,15 %
04.04.2016 21:50 14,3 C 66 % 1005,4 hPa 0,0 l/m 0,2 km/h (0 Bft) S-SW 194 0 min 0,000 mm 0,0 UV-I 0 W/m 8,0 C 14,3 C 1,6 km/h (1 Bft) 100,00 %
04.04.2016 21:51 14,3 C 65 % 1005,4 hPa 0,0 l/m 0,6 km/h (0 Bft) S-SW 193 0 min 0,000 mm 0,0 UV-I 0 W/m 7,8 C 14,3 C 1,6 km/h (1 Bft) 100,00 %
04.04.2016 21:52 14,4 C 65 % 1005,4 hPa 0,0 l/m 3,4 km/h (1 Bft) S-SW 192 0 min 0,000 mm 0,0 UV-I 0 W/m 7,9 C 14,4 C 4,8 km/h (1 Bft) 100,00 %
04.04.2016 21:53 14,5 C 64 % 1005,4 hPa 0,0 l/m 3,5 km/h (1 Bft) S-SW 192 0 min 0,000 mm 0,0 UV-I 0 W/m 7,8 C 14,5 C 4,8 km/h (1 Bft) 100,00 %
04.04.2016 21:54 14,6 C 63 % 1005,4 hPa 0,0 l/m 4,4 km/h (1 Bft) SO 134 0 min 0,000 mm 0,0 UV-I 0 W/m 7,6 C 14,6 C 6,4 km/h (2 Bft) 100,00 %
04.04.2016 21:55 14,6 C 63 % 1005,4 hPa 0,0 l/m 5,9 km/h (2 Bft) SO 128 0 min 0,000 mm 0,0 UV-I 0 W/m 7,6 C 14,6 C 8,0 km/h (2 Bft) 95,65 %
04.04.2016 21:56 14,6 C 63 % 1005,4 hPa 0,0 l/m 6,2 km/h (2 Bft) O-SO 119 0 min 0,000 mm 0,0 UV-I 0 W/m 7,6 C 14,6 C 6,4 km/h (2 Bft) 100,00 %
04.04.2016 21:57 14,6 C 63 % 1005,4 hPa 0,0 l/m 7,1 km/h (2 Bft) O-SO 121 0 min 0,000 mm 0,0 UV-I 0 W/m 7,6 C 14,2 C 11,3 km/h (2 Bft) 100,00 %
04.04.2016 21:58 14,6 C 63 % 1005,4 hPa 0,0 l/m 6,0 km/h (2 Bft) SO 133 0 min 0,000 mm 0,0 UV-I 0 W/m 7,6 C 14,6 C 9,7 km/h (2 Bft) 100,00 %
04.04.2016 21:59 14,5 C 62 % 1005,4 hPa 0,0 l/m 6,3 km/h (2 Bft) SO 125 0 min 0,000 mm 0,0 UV-I 0 W/m 7,3 C 14,5 C 8,0 km/h (2 Bft) 100,00 %
04.04.2016 22:00 14,6 C 63 % 1005,5 hPa 0,0 l/m 4,0 km/h (1 Bft) SO 138 0 min 0,000 mm 0,0 UV-I 0 W/m 7,6 C 14,6 C 6,4 km/h (2 Bft) 100,00 %
04.04.2016 22:01 14,6 C 64 % 1005,4 hPa 0,0 l/m 1,4 km/h (1 Bft) SO 138 0 min 0,026 mm 0,0 UV-I 0 W/m 7,9 C 14,6 C 3,2 km/h (1 Bft) 100,00 %
04.04.2016 22:02 14,6 C 65 % 1005,4 hPa 0,0 l/m 0,2 km/h (0 Bft) SO 138 0 min 0,000 mm 0,0 UV-I 0 W/m 8,1 C 14,6 C 1,6 km/h (1 Bft) 96,30 %
04.04.2016 22:03 14,4 C 66 % 1005,4 hPa 0,0 l/m 1,3 km/h (1 Bft) SO 138 0 min 0,000 mm 0,0 UV-I 0 W/m 8,1 C 14,4 C 3,2 km/h (1 Bft) 100,00 %
04.04.2016 22:04 14,3 C 67 % 1005,4 hPa 0,0 l/m 1,7 km/h (1 Bft) SO 138 0 min 0,000 mm 0,0 UV-I 0 W/m 8,3 C 14,3 C 3,2 km/h (1 Bft) 95,83 %
04.04.2016 22:05 14,0 C 68 % 1005,4 hPa 0,0 l/m 2,9 km/h (1 Bft) S-SO 153 0 min 0,000 mm 0,0 UV-I 0 W/m 8,2 C 14,0 C 4,8 km/h (1 Bft) 100,00 %
04.04.2016 22:06 13,8 C 70 % 1005,4 hPa 0,0 l/m 4,5 km/h (1 Bft) SW 215 0 min 0,000 mm 0,0 UV-I 0 W/m 8,4 C 13,8 C 6,4 km/h (2 Bft) 93,33 %
04.04.2016 22:07 13,6 C 71 % 1005,4 hPa 0,0 l/m 5,7 km/h (1 Bft) SW 215 0 min 0,000 mm 0,0 UV-I 0 W/m 8,4 C 13,6 C 8,0 km/h (2 Bft) 96,30 %
04.04.2016 22:08 13,4 C 72 % 1005,4 hPa 0,0 l/m 6,6 km/h (2 Bft) SW 216 0 min 0,000 mm 0,0 UV-I 0 W/m 8,5 C 13,3 C 8,0 km/h (2 Bft) 96,15 %
04.04.2016 22:09 13,3 C 73 % 1005,4 hPa 0,0 l/m 5,9 km/h (2 Bft) SW 216 0 min 0,000 mm 0,0 UV-I 0 W/m 8,6 C 13,3 C 8,0 km/h (2 Bft) 95,83 %
04.04.2016 22:10 13,2 C 73 % 1005,4 hPa 0,0 l/m 5,7 km/h (1 Bft) SW 215 0 min 0,000 mm 0,0 UV-I 0 W/m 8,5 C 13,2 C 6,4 km/h (2 Bft) 100,00 %
04.04.2016 22:11 13,1 C 74 % 1005,4 hPa 0,0 l/m 5,8 km/h (2 Bft) SW 215 0 min 0,000 mm 0,0 UV-I 0 W/m 8,6 C 13,1 C 6,4 km/h (2 Bft) 91,67 %
04.04.2016 22:12 13,1 C 74 % 1005,4 hPa 0,0 l/m 5,2 km/h (1 Bft) SW 215 0 min 0,000 mm 0,0 UV-I 0 W/m 8,6 C 13,1 C 6,4 km/h (2 Bft) 95,65 %
04.04.2016 22:13 13,1 C 74 % 1005,4 hPa 0,0 l/m 4,7 km/h (1 Bft) SW 215 0 min 0,000 mm 0,0 UV-I 0 W/m 8,6 C 13,1 C 4,8 km/h (1 Bft) 92,59 %
04.04.2016 22:14 13,1 C 74 % 1005,4 hPa 0,0 l/m 4,6 km/h (1 Bft) SW 215 0 min 0,000 mm 0,0 UV-I 0 W/m 8,6 C 13,1 C 6,4 km/h (2 Bft) 100,00 %
04.04.2016 22:15 13,1 C 74 % 1005,4 hPa 0,0 l/m 4,4 km/h (1 Bft) SW 215 0 min 0,000 mm 0,0 UV-I 0 W/m 8,6 C 13,1 C 4,8 km/h (1 Bft) 95,83 %
04.04.2016 22:16 13,1 C 74 % 1005,4 hPa 0,0 l/m 5,0 km/h (1 Bft) S-SW 204 0 min 0,000 mm 0,0 UV-I 0 W/m 8,6 C 13,1 C 6,4 km/h (2 Bft) 100,00 %
04.04.2016 22:17 13,1 C 73 % 1005,4 hPa 0,0 l/m 5,0 km/h (1 Bft) S-SW 204 0 min 0,000 mm 0,0 UV-I 0 W/m 8,4 C 13,1 C 6,4 km/h (2 Bft) 91,67 %
04.04.2016 22:18 13,2 C 73 % 1005,4 hPa 0,0 l/m 4,4 km/h (1 Bft) S-SW 204 0 min 0,000 mm 0,0 UV-I 0 W/m 8,5 C 13,2 C 4,8 km/h (1 Bft) 94,74 %
04.04.2016 22:19 13,2 C 72 % 1005,4 hPa 0,0 l/m 4,3 km/h (1 Bft) S-SW 203 0 min 0,000 mm 0,0 UV-I 0 W/m 8,3 C 13,2 C 4,8 km/h (1 Bft) 96,30 %
04.04.2016 22:20 13,2 C 71 % 1005,3 hPa 0,0 l/m 3,8 km/h (1 Bft) S-SW 203 0 min 0,000 mm 0,0 UV-I 0 W/m 8,1 C 13,2 C 4,8 km/h (1 Bft) 95,65 %
04.04.2016 22:21 13,3 C 71 % 1005,3 hPa 0,0 l/m 3,5 km/h (1 Bft) S-SW 203 0 min 0,000 mm 0,0 UV-I 0 W/m 8,2 C 13,3 C 4,8 km/h (1 Bft) 100,00 %
04.04.2016 22:22 13,3 C 70 % 1005,3 hPa 0,0 l/m 2,6 km/h (1 Bft) S-SW 203 0 min 0,000 mm 0,0 UV-I 0 W/m 7,9 C 13,3 C 3,2 km/h (1 Bft) 95,65 %
04.04.2016 22:23 13,4 C 70 % 1005,2 hPa 0,0 l/m 2,5 km/h (1 Bft) S-SW 203 0 min 0,000 mm 0,0 UV-I 0 W/m 8,0 C 13,4 C 3,2 km/h (1 Bft) 100,00 %
04.04.2016 22:24 13,4 C 69 % 1005,3 hPa 0,0 l/m 3,1 km/h (1 Bft) S-SW 203 0 min 0,000 mm 0,0 UV-I 0 W/m 7,8 C 13,4 C 3,2 km/h (1 Bft) 91,67 %
04.04.2016 22:25 13,4 C 70 % 1005,2 hPa 0,0 l/m 3,2 km/h (1 Bft) S-SW 203 0 min 0,000 mm 0,0 UV-I 0 W/m 8,0 C 13,4 C 3,2 km/h (1 Bft) 95,65 %
04.04.2016 22:26 13,4 C 70 % 1005,3 hPa 0,0 l/m 3,7 km/h (1 Bft) S-SW 203 0 min 0,000 mm 0,0 UV-I 0 W/m 8,0 C 13,4 C 4,8 km/h (1 Bft) 96,30 %
04.04.2016 22:27 13,3 C 70 % 1005,3 hPa 0,0 l/m 3,5 km/h (1 Bft) S-SW 203 0 min 0,000 mm 0,0 UV-I 0 W/m 7,9 C 13,3 C 4,8 km/h (1 Bft) 96,15 %
04.04.2016 22:28 13,3 C 71 % 1005,3 hPa 0,0 l/m 4,1 km/h (1 Bft) S-SW 203 0 min 0,000 mm 0,0 UV-I 0 W/m 8,2 C 13,3 C 4,8 km/h (1 Bft) 100,00 %
04.04.2016 22:29 13,2 C 72 % 1005,2 hPa 0,0 l/m 3,5 km/h (1 Bft) S-SW 203 0 min 0,000 mm 0,0 UV-I 0 W/m 8,3 C 13,2 C 4,8 km/h (1 Bft) 92,86 %
04.04.2016 22:30 13,1 C 72 % 1005,3 hPa 0,0 l/m 3,7 km/h (1 Bft) S-SW 203 0 min 0,000 mm 0,0 UV-I 0 W/m 8,2 C 13,1 C 4,8 km/h (1 Bft) 100,00 %
04.04.2016 22:31 12,9 C 71 % 1005,3 hPa 0,0 l/m 4,1 km/h (1 Bft) S-SW 203 0 min 0,000 mm 0,0 UV-I 0 W/m 7,8 C 12,9 C 4,8 km/h (1 Bft) 91,30 %
04.04.2016 22:32 12,9 C 71 % 1005,3 hPa 0,0 l/m 3,6 km/h (1 Bft) S-SW 203 0 min 0,000 mm 0,0 UV-I 0 W/m 7,8 C 12,9 C 4,8 km/h (1 Bft) 100,00 %
04.04.2016 22:33 12,8 C 71 % 1005,3 hPa 0,0 l/m 4,2 km/h (1 Bft) S-SW 203 0 min 0,000 mm 0,0 UV-I 0 W/m 7,7 C 12,8 C 4,8 km/h (1 Bft) 95,65 %
04.04.2016 22:34 12,7 C 72 % 1005,3 hPa 0,0 l/m 4,2 km/h (1 Bft) S-SW 203 0 min 0,000 mm 0,0 UV-I 0 W/m 7,8 C 12,7 C 4,8 km/h (1 Bft) 100,00 %
04.04.2016 22:35 12,7 C 72 % 1005,3 hPa 0,0 l/m 3,8 km/h (1 Bft) S-SW 203 0 min 0,000 mm 0,0 UV-I 0 W/m 7,8 C 12,7 C 4,8 km/h (1 Bft) 93,10 %
04.04.2016 22:36 12,7 C 72 % 1005,3 hPa 0,0 l/m 1,9 km/h (1 Bft) S-SW 203 0 min 0,000 mm 0,0 UV-I 0 W/m 7,8 C 12,7 C 3,2 km/h (1 Bft) 95,83 %
04.04.2016 22:37 12,7 C 72 % 1005,3 hPa 0,0 l/m 0,4 km/h (0 Bft) S-SW 203 0 min 0,000 mm 0,0 UV-I 0 W/m 7,8 C 12,7 C 1,6 km/h (1 Bft) 92,86 %
04.04.2016 22:38 12,7 C 72 % 1005,3 hPa 0,0 l/m 1,1 km/h (1 Bft) S-SW 203 0 min 0,000 mm 0,0 UV-I 0 W/m 7,8 C 12,7 C 1,6 km/h (1 Bft) 96,30 %
04.04.2016 22:39 12,7 C 71 % 1005,3 hPa 0,0 l/m 1,3 km/h (1 Bft) S-SW 203 0 min 0,000 mm 0,0 UV-I 0 W/m 7,6 C 12,7 C 1,6 km/h (1 Bft) 100,00 %
04.04.2016 22:40 12,7 C 71 % 1005,3 hPa 0,0 l/m 1,0 km/h (0 Bft) S-SW 203 0 min 0,000 mm 0,0 UV-I 0 W/m 7,6 C 12,7 C 1,6 km/h (1 Bft) 100,00 %
04.04.2016 22:41 12,7 C 71 % 1005,2 hPa 0,0 l/m 0,7 km/h (0 Bft) S-SW 203 0 min 0,000 mm 0,0 UV-I 0 W/m 7,6 C 12,7 C 1,6 km/h (1 Bft) 100,00 %
04.04.2016 22:42 12,7 C 72 % 1005,2 hPa 0,0 l/m 0,6 km/h (0 Bft) S-SW 203 0 min 0,000 mm 0,0 UV-I 0 W/m 7,8 C 12,7 C 1,6 km/h (1 Bft) 100,00 %
04.04.2016 22:43 12,6 C 72 % 1005,2 hPa 0,0 l/m 1,1 km/h (1 Bft) S-SW 203 0 min 0,000 mm 0,0 UV-I 0 W/m 7,7 C 12,6 C 1,6 km/h (1 Bft) 95,65 %
04.04.2016 22:44 12,7 C 72 % 1005,2 hPa 0,0 l/m 0,5 km/h (0 Bft) S-SW 203 0 min 0,000 mm 0,0 UV-I 0 W/m 7,8 C 12,7 C 1,6 km/h (1 Bft) 100,00 %
04.04.2016 22:45 12,7 C 72 % 1005,2 hPa 0,0 l/m 0,5 km/h (0 Bft) S-SW 203 0 min 0,000 mm 0,0 UV-I 0 W/m 7,8 C 12,7 C 1,6 km/h (1 Bft) 100,00 %
04.04.2016 22:46 12,6 C 74 % 1005,1 hPa 0,0 l/m 0,5 km/h (0 Bft) S-SW 203 0 min 0,000 mm 0,0 UV-I 0 W/m 8,1 C 12,6 C 1,6 km/h (1 Bft) 100,00 %
04.04.2016 22:47 12,6 C 74 % 1005,1 hPa 0,0 l/m 0,2 km/h (0 Bft) S-SW 203 0 min 0,000 mm 0,0 UV-I 0 W/m 8,1 C 12,6 C 1,6 km/h (1 Bft) 91,67 %
04.04.2016 22:48 12,5 C 74 % 1005,2 hPa 0,0 l/m 0,4 km/h (0 Bft) S-SW 203 0 min 0,000 mm 0,0 UV-I 0 W/m 8,0 C 12,5 C 1,6 km/h (1 Bft) 100,00 %
04.04.2016 22:49 12,5 C 73 % 1005,2 hPa 0,0 l/m 0,5 km/h (0 Bft) S-SW 203 0 min 0,000 mm 0,0 UV-I 0 W/m 7,8 C 12,5 C 1,6 km/h (1 Bft) 100,00 %
04.04.2016 22:50 12,5 C 74 % 1005,2 hPa 0,0 l/m 0,0 km/h (0 Bft) S-SW 203 0 min 0,000 mm 0,0 UV-I 0 W/m 8,0 C 12,5 C 0,0 km/h (0 Bft) 100,00 %
04.04.2016 22:51 12,5 C 73 % 1005,2 hPa 0,0 l/m 0,0 km/h (0 Bft) S-SW 203 0 min 0,000 mm 0,0 UV-I 0 W/m 7,8 C 12,5 C 0,0 km/h (0 Bft) 100,00 %
04.04.2016 22:52 12,6 C 73 % 1005,2 hPa 0,0 l/m 0,1 km/h (0 Bft) S-SW 203 0 min 0,000 mm 0,0 UV-I 0 W/m 7,9 C 12,6 C 1,6 km/h (1 Bft) 100,00 %
04.04.2016 22:53 12,6 C 72 % 1005,2 hPa 0,0 l/m 0,6 km/h (0 Bft) S-SW 203 0 min 0,000 mm 0,0 UV-I 0 W/m 7,7 C 12,6 C 1,6 km/h (1 Bft) 100,00 %
04.04.2016 22:54 12,7 C 71 % 1005,2 hPa 0,0 l/m 0,4 km/h (0 Bft) S-SW 203 0 min 0,000 mm 0,0 UV-I 0 W/m 7,6 C 12,7 C 1,6 km/h (1 Bft) 100,00 %
04.04.2016 22:55 12,8 C 70 % 1005,2 hPa 0,0 l/m 1,5 km/h (1 Bft) S-SW 203 0 min 0,000 mm 0,0 UV-I 0 W/m 7,5 C 12,8 C 1,6 km/h (1 Bft) 100,00 %
04.04.2016 22:56 12,9 C 70 % 1005,2 hPa 0,0 l/m 1,6 km/h (1 Bft) S-SW 203 0 min 0,000 mm 0,0 UV-I 0 W/m 7,6 C 12,9 C 3,2 km/h (1 Bft) 96,15 %
04.04.2016 22:57 12,9 C 71 % 1005,3 hPa 0,0 l/m 0,9 km/h (0 Bft) N-NO 13 0 min 0,000 mm 0,0 UV-I 0 W/m 7,8 C 12,9 C 3,2 km/h (1 Bft) 100,00 %
04.04.2016 22:58 12,9 C 72 % 1005,3 hPa 0,0 l/m 4,1 km/h (1 Bft) N-NW 346 0 min 0,000 mm 0,0 UV-I 0 W/m 8,0 C 12,9 C 6,4 km/h (2 Bft) 100,00 %
04.04.2016 22:59 12,8 C 73 % 1005,4 hPa 0,0 l/m 4,1 km/h (1 Bft) N-NO 13 0 min 0,000 mm 0,0 UV-I 0 W/m 8,1 C 12,8 C 8,0 km/h (2 Bft) 100,00 %
04.04.2016 23:00 12,6 C 74 % 1005,4 hPa 0,0 l/m 2,1 km/h (1 Bft) N-NO 13 0 min 0,000 mm 0,0 UV-I 0 W/m 8,1 C 12,6 C 3,2 km/h (1 Bft) 95,00 %
04.04.2016 23:01 12,3 C 75 % 1005,4 hPa 0,0 l/m 1,4 km/h (1 Bft) N-NO 13 0 min 0,025 mm 0,0 UV-I 0 W/m 8,0 C 12,3 C 3,2 km/h (1 Bft) 100,00 %
04.04.2016 23:02 12,0 C 76 % 1005,4 hPa 0,0 l/m 5,1 km/h (1 Bft) N-NO 23 0 min 0,000 mm 0,0 UV-I 0 W/m 7,9 C 12,0 C 8,0 km/h (2 Bft) 100,00 %
04.04.2016 23:03 11,8 C 76 % 1005,4 hPa 0,0 l/m 5,5 km/h (1 Bft) N-NO 28 0 min 0,000 mm 0,0 UV-I 0 W/m 7,7 C 11,8 C 8,0 km/h (2 Bft) 100,00 %
04.04.2016 23:04 11,8 C 77 % 1005,4 hPa 0,0 l/m 4,3 km/h (1 Bft) N-NO 28 0 min 0,000 mm 0,0 UV-I 0 W/m 7,9 C 11,8 C 6,4 km/h (2 Bft) 100,00 %
04.04.2016 23:05 11,7 C 77 % 1005,3 hPa 0,0 l/m 4,3 km/h (1 Bft) N-NO 28 0 min 0,000 mm 0,0 UV-I 0 W/m 7,8 C 11,7 C 6,4 km/h (2 Bft) 100,00 %
04.04.2016 23:06 11,8 C 77 % 1005,3 hPa 0,0 l/m 3,5 km/h (1 Bft) N-NO 28 0 min 0,000 mm 0,0 UV-I 0 W/m 7,9 C 11,8 C 4,8 km/h (1 Bft) 100,00 %
04.04.2016 23:07 11,8 C 77 % 1005,4 hPa 0,0 l/m 3,6 km/h (1 Bft) NO 50 0 min 0,000 mm 0,0 UV-I 0 W/m 7,9 C 11,8 C 4,8 km/h (1 Bft) 100,00 %
04.04.2016 23:08 11,8 C 77 % 1005,3 hPa 0,0 l/m 4,6 km/h (1 Bft) NO 50 0 min 0,000 mm 0,0 UV-I 0 W/m 7,9 C 11,8 C 4,8 km/h (1 Bft) 100,00 %
04.04.2016 23:09 11,9 C 76 % 1005,3 hPa 0,0 l/m 6,4 km/h (2 Bft) NO 47 0 min 0,000 mm 0,0 UV-I 0 W/m 7,8 C 11,9 C 8,0 km/h (2 Bft) 100,00 %
04.04.2016 23:10 12,1 C 75 % 1005,3 hPa 0,0 l/m 6,6 km/h (2 Bft) NO 41 0 min 0,000 mm 0,0 UV-I 0 W/m 7,8 C 12,0 C 8,0 km/h (2 Bft) 100,00 %
04.04.2016 23:11 12,2 C 75 % 1005,3 hPa 0,0 l/m 6,7 km/h (2 Bft) NO 42 0 min 0,000 mm 0,0 UV-I 0 W/m 7,9 C 12,0 C 8,0 km/h (2 Bft) 100,00 %
04.04.2016 23:12 12,2 C 75 % 1005,4 hPa 0,0 l/m 6,3 km/h (2 Bft) NO 52 0 min 0,000 mm 0,0 UV-I 0 W/m 7,9 C 12,2 C 8,0 km/h (2 Bft) 100,00 %
04.04.2016 23:13 12,3 C 74 % 1005,4 hPa 0,0 l/m 5,4 km/h (1 Bft) NO 48 0 min 0,000 mm 0,0 UV-I 0 W/m 7,8 C 12,3 C 6,4 km/h (2 Bft) 100,00 %
04.04.2016 23:14 12,4 C 74 % 1005,4 hPa 0,0 l/m 5,6 km/h (1 Bft) NO 51 0 min 0,000 mm 0,0 UV-I 0 W/m 7,9 C 12,4 C 6,4 km/h (2 Bft) 100,00 %
04.04.2016 23:15 12,5 C 73 % 1005,4 hPa 0,0 l/m 4,9 km/h (1 Bft) NO 53 0 min 0,000 mm 0,0 UV-I 0 W/m 7,8 C 12,5 C 6,4 km/h (2 Bft) 100,00 %
04.04.2016 23:17 12,9 C 72 % 1005,4 hPa 0,0 l/m 7,5 km/h (2 Bft) NO 46 0 min 0,000 mm 0,0 UV-I 0 W/m 8,0 C 12,2 C 11,3 km/h (2 Bft) 98,11 %
04.04.2016 23:18 13,1 C 71 % 1005,4 hPa 0,0 l/m 6,2 km/h (2 Bft) NO 37 0 min 0,000 mm 0,0 UV-I 0 W/m 8,0 C 13,1 C 8,0 km/h (2 Bft) 100,00 %
04.04.2016 23:19 13,2 C 70 % 1005,4 hPa 0,0 l/m 4,8 km/h (1 Bft) NO 45 0 min 0,000 mm 0,0 UV-I 0 W/m 7,9 C 13,2 C 6,4 km/h (2 Bft) 100,00 %
04.04.2016 23:20 13,3 C 70 % 1005,3 hPa 0,0 l/m 4,0 km/h (1 Bft) NO 55 0 min 0,000 mm 0,0 UV-I 0 W/m 7,9 C 13,3 C 4,8 km/h (1 Bft) 100,00 %
04.04.2016 23:21 13,4 C 69 % 1005,4 hPa 0,0 l/m 4,3 km/h (1 Bft) O-NO 65 0 min 0,000 mm 0,0 UV-I 0 W/m 7,8 C 13,4 C 4,8 km/h (1 Bft) 100,00 %
04.04.2016 23:22 13,5 C 69 % 1005,3 hPa 0,0 l/m 6,7 km/h (2 Bft) O-NO 69 0 min 0,000 mm 0,0 UV-I 0 W/m 7,9 C 13,3 C 8,0 km/h (2 Bft) 100,00 %
04.04.2016 23:23 13,5 C 69 % 1005,3 hPa 0,0 l/m 6,8 km/h (2 Bft) O-NO 61 0 min 0,000 mm 0,0 UV-I 0 W/m 7,9 C 13,3 C 8,0 km/h (2 Bft) 100,00 %
04.04.2016 23:24 13,6 C 69 % 1005,3 hPa 0,0 l/m 5,8 km/h (2 Bft) NO 51 0 min 0,000 mm 0,0 UV-I 0 W/m 8,0 C 13,6 C 6,4 km/h (2 Bft) 95,65 %
04.04.2016 23:25 13,6 C 69 % 1005,3 hPa 0,0 l/m 5,7 km/h (1 Bft) O-NO 57 0 min 0,000 mm 0,0 UV-I 0 W/m 8,0 C 13,6 C 6,4 km/h (2 Bft) 100,00 %
04.04.2016 23:26 13,6 C 70 % 1005,3 hPa 0,0 l/m 6,5 km/h (2 Bft) O-NO 63 0 min 0,000 mm 0,0 UV-I 0 W/m 8,2 C 13,6 C 8,0 km/h (2 Bft) 100,00 %
04.04.2016 23:27 13,6 C 70 % 1005,3 hPa 0,0 l/m 6,3 km/h (2 Bft) NO 52 0 min 0,000 mm 0,0 UV-I 0 W/m 8,2 C 13,6 C 6,4 km/h (2 Bft) 100,00 %
04.04.2016 23:28 13,6 C 70 % 1005,3 hPa 0,0 l/m 4,5 km/h (1 Bft) NO 53 0 min 0,000 mm 0,0 UV-I 0 W/m 8,2 C 13,6 C 6,4 km/h (2 Bft) 100,00 %
04.04.2016 23:29 13,6 C 70 % 1005,3 hPa 0,0 l/m 4,5 km/h (1 Bft) O-NO 72 0 min 0,000 mm 0,0 UV-I 0 W/m 8,2 C 13,6 C 4,8 km/h (1 Bft) 100,00 %
04.04.2016 23:30 13,4 C 70 % 1005,3 hPa 0,0 l/m 3,5 km/h (1 Bft) O-NO 72 0 min 0,000 mm 0,0 UV-I 0 W/m 8,0 C 13,4 C 4,8 km/h (1 Bft) 100,00 %
04.04.2016 23:31 13,3 C 70 % 1005,2 hPa 0,0 l/m 2,0 km/h (1 Bft) O-NO 72 0 min 0,000 mm 0,0 UV-I 0 W/m 7,9 C 13,3 C 4,8 km/h (1 Bft) 100,00 %
04.04.2016 23:32 13,2 C 71 % 1005,3 hPa 0,0 l/m 0,5 km/h (0 Bft) O-NO 72 0 min 0,000 mm 0,0 UV-I 0 W/m 8,1 C 13,2 C 1,6 km/h (1 Bft) 100,00 %
04.04.2016 23:33 12,9 C 72 % 1005,2 hPa 0,0 l/m 0,8 km/h (0 Bft) O-NO 72 0 min 0,000 mm 0,0 UV-I 0 W/m 8,0 C 12,9 C 3,2 km/h (1 Bft) 100,00 %
04.04.2016 23:34 12,8 C 72 % 1005,2 hPa 0,0 l/m 1,9 km/h (1 Bft) O 90 0 min 0,000 mm 0,0 UV-I 0 W/m 7,9 C 12,8 C 3,2 km/h (1 Bft) 100,00 %
04.04.2016 23:35 12,6 C 73 % 1005,2 hPa 0,0 l/m 3,9 km/h (1 Bft) SO 124 0 min 0,000 mm 0,0 UV-I 0 W/m 7,9 C 12,6 C 6,4 km/h (2 Bft) 100,00 %
04.04.2016 23:36 12,4 C 73 % 1005,2 hPa 0,0 l/m 1,9 km/h (1 Bft) SO 124 0 min 0,000 mm 0,0 UV-I 0 W/m 7,7 C 12,4 C 6,4 km/h (2 Bft) 100,00 %
04.04.2016 23:37 12,4 C 74 % 1005,2 hPa 0,0 l/m 1,3 km/h (1 Bft) SO 124 0 min 0,000 mm 0,0 UV-I 0 W/m 7,9 C 12,4 C 3,2 km/h (1 Bft) 100,00 %
04.04.2016 23:38 12,3 C 74 % 1005,2 hPa 0,0 l/m 2,0 km/h (1 Bft) SO 124 0 min 0,000 mm 0,0 UV-I 0 W/m 7,8 C 12,3 C 3,2 km/h (1 Bft) 100,00 %
04.04.2016 23:39 12,3 C 74 % 1005,2 hPa 0,0 l/m 1,3 km/h (1 Bft) SO 124 0 min 0,000 mm 0,0 UV-I 0 W/m 7,8 C 12,3 C 1,6 km/h (1 Bft) 100,00 %
04.04.2016 23:40 12,2 C 74 % 1005,2 hPa 0,0 l/m 0,8 km/h (0 Bft) SO 124 0 min 0,000 mm 0,0 UV-I 0 W/m 7,7 C 12,2 C 1,6 km/h (1 Bft) 95,83 %
04.04.2016 23:41 12,2 C 75 % 1005,2 hPa 0,0 l/m 0,2 km/h (0 Bft) SO 124 0 min 0,000 mm 0,0 UV-I 0 W/m 7,9 C 12,2 C 1,6 km/h (1 Bft) 100,00 %
04.04.2016 23:42 12,1 C 75 % 1005,2 hPa 0,0 l/m 0,7 km/h (0 Bft) SO 124 0 min 0,000 mm 0,0 UV-I 0 W/m 7,8 C 12,1 C 1,6 km/h (1 Bft) 100,00 %
04.04.2016 23:43 12,0 C 75 % 1005,2 hPa 0,0 l/m 0,9 km/h (0 Bft) SO 124 0 min 0,000 mm 0,0 UV-I 0 W/m 7,7 C 12,0 C 1,6 km/h (1 Bft) 100,00 %
04.04.2016 23:44 11,9 C 76 % 1005,2 hPa 0,0 l/m 0,6 km/h (0 Bft) SO 124 0 min 0,000 mm 0,0 UV-I 0 W/m 7,8 C 11,9 C 1,6 km/h (1 Bft) 100,00 %
04.04.2016 23:45 11,7 C 76 % 1005,2 hPa 0,0 l/m 1,7 km/h (1 Bft) SO 124 0 min 0,000 mm 0,0 UV-I 0 W/m 7,6 C 11,7 C 3,2 km/h (1 Bft) 100,00 %
04.04.2016 23:46 11,6 C 77 % 1005,1 hPa 0,0 l/m 1,6 km/h (1 Bft) SO 124 0 min 0,000 mm 0,0 UV-I 0 W/m 7,7 C 11,6 C 3,2 km/h (1 Bft) 100,00 %
04.04.2016 23:47 11,4 C 77 % 1005,1 hPa 0,0 l/m 1,1 km/h (1 Bft) SO 124 0 min 0,000 mm 0,0 UV-I 0 W/m 7,5 C 11,4 C 1,6 km/h (1 Bft) 100,00 %
04.04.2016 23:48 11,3 C 78 % 1005,1 hPa 0,0 l/m 1,4 km/h (1 Bft) SO 124 0 min 0,000 mm 0,0 UV-I 0 W/m 7,6 C 11,3 C 1,6 km/h (1 Bft) 100,00 %
04.04.2016 23:49 11,2 C 78 % 1005,1 hPa 0,0 l/m 1,5 km/h (1 Bft) SO 124 0 min 0,000 mm 0,0 UV-I 0 W/m 7,5 C 11,2 C 3,2 km/h (1 Bft) 100,00 %
04.04.2016 23:50 11,1 C 78 % 1005,1 hPa 0,0 l/m 1,7 km/h (1 Bft) SO 124 0 min 0,000 mm 0,0 UV-I 0 W/m 7,4 C 11,1 C 3,2 km/h (1 Bft) 95,83 %
04.04.2016 23:51 11,1 C 79 % 1005,1 hPa 0,0 l/m 2,8 km/h (1 Bft) SO 124 0 min 0,000 mm 0,0 UV-I 0 W/m 7,6 C 11,1 C 3,2 km/h (1 Bft) 100,00 %
04.04.2016 23:52 11,1 C 79 % 1005,1 hPa 0,0 l/m 3,0 km/h (1 Bft) SO 124 0 min 0,000 mm 0,0 UV-I 0 W/m 7,6 C 11,1 C 3,2 km/h (1 Bft) 100,00 %
04.04.2016 23:53 11,0 C 79 % 1005,1 hPa 0,0 l/m 2,4 km/h (1 Bft) SO 124 0 min 0,000 mm 0,0 UV-I 0 W/m 7,5 C 11,0 C 3,2 km/h (1 Bft) 100,00 %
04.04.2016 23:54 10,9 C 80 % 1005,1 hPa 0,0 l/m 1,7 km/h (1 Bft) SO 124 0 min 0,000 mm 0,0 UV-I 0 W/m 7,6 C 10,9 C 3,2 km/h (1 Bft) 100,00 %
04.04.2016 23:55 10,9 C 80 % 1005,0 hPa 0,0 l/m 1,9 km/h (1 Bft) SO 124 0 min 0,000 mm 0,0 UV-I 0 W/m 7,6 C 10,9 C 3,2 km/h (1 Bft) 100,00 %
04.04.2016 23:56 10,9 C 80 % 1005,0 hPa 0,0 l/m 2,4 km/h (1 Bft) SO 124 0 min 0,000 mm 0,0 UV-I 0 W/m 7,6 C 10,9 C 3,2 km/h (1 Bft) 100,00 %
04.04.2016 23:57 10,9 C 80 % 1005,0 hPa 0,0 l/m 2,3 km/h (1 Bft) SO 124 0 min 0,000 mm 0,0 UV-I 0 W/m 7,6 C 10,9 C 3,2 km/h (1 Bft) 100,00 %
04.04.2016 23:58 10,9 C 80 % 1005,0 hPa 0,0 l/m 2,4 km/h (1 Bft) SO 124 0 min 0,000 mm 0,0 UV-I 0 W/m 7,6 C 10,9 C 3,2 km/h (1 Bft) 95,83 %
04.04.2016 23:59 10,9 C 80 % 1005,0 hPa 0,0 l/m 2,0 km/h (1 Bft) SO 124 0 min 0,000 mm 0,0 UV-I 0 W/m 7,6 C 10,9 C 3,2 km/h (1 Bft) 96,15 %
_ Min-Zeit 06:58 14:52 17:31 - 04:07 - - - - - - 06:58 06:58 04:07 03:01
Minimum _ 4,9 C 38 % 1004,7 hPa - 0,0 km/h (0 Bft) - - - - - - 4,2 C 4,9 C 0,0 km/h (0 Bft) 86,96 %
_ Max-Zeit 15:22 05:51 00:00 00:00 15:46 - - 15:36 15:00 13:42 12:39 13:37 15:42 15:46 00:00
Maximum _ 22,9 C 96 % 1009,2 hPa 0,0 l/m 10,2 km/h
NO (2 Bft)
- - 6 min 0,432 mm 3,8 UV-I 768 W/m 11,8 C 22,9 C 14,5 km/h
N-NO (3 Bft)
100,00 %
Durchschnitt _ 13,8 C 71 % 1006,8 hPa #0,0 l/m 2,5 km/h (1 Bft) S - #10:04 h #3,124 mm 2,2 UV-I 385 W/m 7,9 C 13,8 C 3,8 km/h (1 Bft) 98,46 %